[[{"header":{"parameterUnit":"m.s-1","parameterCategory":1,"la1":30.6,"la2":28.766,"lo1":-90.7593,"lo2":-88.6598,"dy":0.0162,"dx":0.0183,"nx":116,"ny":114,"refTime":"2023-09-15T18:00:00:Z","depth":0,"parameterNumber":2,"parameterNumberName":"U-component_of_WINDS"},"data":[0.0,0.0,0.0,0.0,0.0,0.0,0.0,0.0,0.0,0.0,0.0,0.0,0.0,0.0,0.0,0.0,0.0,0.0,0.0,0.0,0.0,0.0,0.0,0.0,0.0,0.0,0.0,0.0,0.0,0.0,0.0,0.0,0.0,0.0,0.0,0.0,0.0,0.0,0.0,0.0,0.0,0.0,0.0,0.0,0.0,0.0,0.0,0.0,0.0,0.0,0.0,0.0,0.0,0.0,0.0,0.0,0.0,0.0,0.0,0.0,0.0,0.0,0.0,0.0,0.0,0.0,0.0,0.0,0.0,0.0,0.0,0.0,0.0,0.0,0.0,0.0,0.0,0.0,0.0,0.0,0.0,0.0,0.0,0.0,0.0,0.0,0.0,0.0,0.0,0.0,0.0,0.0,0.0,0.0,0.0,0.0,0.0,0.0,0.0,0.0,0.0,0.0,0.0,0.0,0.0,0.0,0.0,0.0,0.0,0.0,0.0,0.0,0.0,0.0,0.0,0.0,0.0,0.0,0.0,0.0,0.0,0.0,0.0,0.0,0.0,0.0,0.0,0.0,0.0,0.0,0.0,0.0,0.0,0.0,0.0,0.0,0.0,0.0,0.0,0.0,0.0,0.0,0.0,0.0,0.0,0.0,0.0,0.0,0.0,0.0,0.0,0.0,0.0,0.0,0.0,0.0,0.0,0.0,0.0,0.0,0.0,0.0,0.0,0.0,0.0,0.0,0.0,0.0,0.0,0.0,0.0,0.0,0.0,0.0,0.0,0.0,0.0,0.0,0.0,0.0,0.0,0.0,0.0,0.0,0.0,0.0,0.0,0.0,0.0,0.0,0.0,0.0,0.0,0.0,0.0,0.0,0.0,0.0,0.0,0.0,0.0,0.0,0.0,0.0,0.0,0.0,0.0,0.0,0.0,0.0,0.0,0.0,0.0,0.0,0.0,0.0,0.0,0.0,0.0,0.0,0.0,0.0,0.0,0.0,0.0,0.0,0.0,0.0,0.0,0.0,0.0,0.0,0.0,0.0,0.0,0.0,0.0,0.0,0.0,0.0,0.0,0.0,0.0,0.0,0.0,0.0,0.0,0.0,0.0,0.0,0.0,0.0,0.0,0.0,0.0,0.0,0.0,0.0,0.0,0.0,0.0,0.0,0.0,0.0,0.0,0.0,0.0,0.0,0.0,0.0,0.0,0.0,0.0,0.0,0.0,0.0,0.0,0.0,0.0,0.0,0.0,0.0,0.0,0.0,0.0,0.0,0.0,0.0,0.0,0.0,0.0,0.0,0.0,0.0,0.0,0.0,0.0,0.0,0.0,0.0,0.0,0.0,0.0,0.0,0.0,0.0,0.0,0.0,0.0,0.0,0.0,0.0,0.0,0.0,0.0,0.0,0.0,0.0,0.0,0.0,0.0,0.0,0.0,0.0,0.0,0.0,0.0,0.0,0.0,0.0,0.0,0.0,0.0,0.0,0.0,0.0,0.0,0.0,0.0,0.0,0.0,0.0,0.0,0.0,0.0,0.0,0.0,0.0,0.0,0.0,0.0,0.0,0.0,0.0,0.0,0.0,0.0,0.0,0.0,0.0,0.0,0.0,0.0,0.0,0.0,0.0,0.0,0.0,0.0,0.0,0.0,0.0,0.0,0.0,0.0,0.0,0.0,0.0,0.0,0.0,0.0,0.0,0.0,0.0,0.0,0.0,0.0,0.0,0.0,0.0,0.0,0.0,0.0,0.0,0.0,0.0,0.0,0.0,0.0,0.0,0.0,0.0,0.0,0.0,0.0,0.0,0.0,0.0,0.0,0.0,0.0,0.0,0.0,0.0,0.0,0.0,0.0,0.0,0.0,0.0,0.0,0.0,0.0,0.0,0.0,0.0,0.0,0.0,0.0,0.0,0.0,0.0,0.0,0.0,0.0,0.0,0.0,0.0,0.0,0.0,0.0,0.0,0.0,0.0,0.0,0.0,0.0,0.0,0.0,0.0,0.0,0.0,0.0,0.0,0.0,0.0,0.0,0.0,0.0,0.0,0.0,0.0,0.0,0.0,0.0,0.0,0.0,0.0,0.0,0.0,0.0,0.0,0.0,0.0,0.0,0.0,0.0,0.0,0.0,0.0,0.0,0.0,0.0,0.0,0.0,0.0,0.0,0.0,0.0,0.0,0.0,0.0,0.0,0.0,0.0,0.0,0.0,0.0,0.0,0.0,0.0,0.0,0.0,0.0,0.0,0.0,0.0,0.0,0.0,0.0,0.0,0.0,0.0,0.0,0.0,0.0,0.0,0.0,0.0,0.0,0.0,0.0,0.0,0.0,0.0,0.0,0.0,0.0,0.0,0.0,0.0,0.0,0.0,0.0,0.0,0.0,0.0,0.0,0.0,0.0,0.0,0.0,0.0,0.0,0.0,0.0,0.0,0.0,0.0,0.0,0.0,0.0,0.0,0.0,0.0,0.0,0.0,0.0,0.0,0.0,0.0,0.0,0.0,0.0,0.0,0.0,0.0,0.0,0.0,0.0,0.0,0.0,0.0,0.0,0.0,0.0,0.0,0.0,0.0,0.0,0.0,0.0,0.0,0.0,0.0,0.0,0.0,0.0,0.0,0.0,0.0,0.0,0.0,0.0,0.0,0.0,0.0,0.0,0.0,0.0,0.0,0.0,0.0,0.0,0.0,0.0,0.0,0.0,0.0,0.0,0.0,0.0,0.0,0.0,0.0,0.0,0.0,0.0,0.0,0.0,0.0,0.0,0.0,0.0,0.0,0.0,0.0,0.0,0.0,0.0,0.0,0.0,0.0,0.0,0.0,0.0,0.0,0.0,0.0,0.0,0.0,0.0,0.0,0.0,0.0,0.0,0.0,0.0,0.0,0.0,0.0,0.0,0.0,0.0,0.0,0.0,0.0,0.0,0.0,0.0,0.0,0.0,0.0,0.0,0.0,0.0,0.0,0.0,0.0,0.0,0.0,0.0,0.0,0.0,0.0,0.0,0.0,0.0,0.0,0.0,0.0,0.0,0.0,0.0,0.0,0.0,0.0,0.0,0.0,0.0,0.0,0.0,0.0,0.0,0.0,0.0,0.0,0.0,0.0,0.0,0.0,0.0,0.0,0.0,0.0,0.0,0.0,0.0,0.0,0.0,0.0,0.0,0.0,0.0,0.0,0.0,0.0,0.0,0.0,0.0,0.0,0.0,0.0,0.0,0.0,0.0,0.0,0.0,0.0,0.0,0.0,0.0,0.0,0.0,0.0,0.0,0.0,0.0,0.0,0.0,0.0,0.0,0.0,0.0,0.0,0.0,0.0,0.0,0.0,0.0,0.0,0.0,0.0,0.0,0.0,0.0,0.0,0.0,0.0,0.0,0.0,0.0,0.0,0.0,0.0,0.0,0.0,0.0,0.0,0.0,0.0,0.0,0.0,0.0,0.0,0.0,0.0,0.0,0.0,0.0,0.0,0.0,0.0,0.0,0.0,0.0,0.0,0.0,0.0,0.0,0.0,0.0,0.0,0.0,0.0,0.0,0.0,0.0,0.0,0.0,0.0,0.0,0.0,0.0,0.0,0.0,0.0,0.0,0.0,0.0,0.0,0.0,0.0,0.0,0.0,0.0,0.0,0.0,0.0,0.0,0.0,0.0,0.0,0.0,0.0,0.0,0.0,0.0,0.0,0.0,0.0,0.0,0.0,0.0,0.0,0.0,0.0,0.0,0.0,0.0,0.0,0.0,0.0,0.0,0.0,0.0,0.0,0.0,0.0,0.0,0.0,0.0,0.0,0.0,0.0,0.0,0.0,0.0,0.0,0.0,0.0,0.0,0.0,0.0,0.0,0.0,0.0,0.0,0.0,0.0,0.0,0.0,0.0,0.0,0.0,0.0,0.0,0.0,0.0,0.0,0.0,0.0,0.0,0.0,0.0,0.0,0.0,0.0,0.0,0.0,0.0,0.0,0.0,0.0,0.0,0.0,0.0,0.0,0.0,0.0,0.0,0.0,0.0,0.0,0.0,0.0,0.0,0.0,0.0,0.0,0.0,0.0,0.0,0.0,0.0,0.0,0.0,0.0,0.0,0.0,0.0,0.0,0.0,0.0,0.0,0.0,0.0,0.0,0.0,0.0,0.0,0.0,0.0,0.0,0.0,0.0,0.0,0.0,0.0,0.0,0.0,0.0,0.0,0.0,0.0,0.0,0.0,0.0,0.0,0.0,0.0,0.0,0.0,0.0,0.0,0.0,0.0,0.0,0.0,0.0,0.0,0.0,0.0,0.0,0.0,0.0,0.0,0.0,0.0,0.0,0.0,0.0,0.0,0.0,0.0,0.0,0.0,0.0,0.0,0.0,0.0,0.0,0.0,0.0,0.0,0.0,0.0,0.0,0.0,0.0,0.0,0.0,0.0,0.0,0.0,0.0,0.0,0.0,0.0,0.0,0.0,0.0,0.0,0.0,0.0,0.0,0.0,0.0,0.0,0.0,0.0,0.0,0.0,0.0,0.0,0.0,0.0,0.0,0.0,0.0,0.0,0.0,0.0,0.0,0.0,0.0,0.0,0.0,0.0,0.0,0.0,0.0,0.0,0.0,0.0,0.0,0.0,0.0,0.0,0.0,0.0,0.0,0.0,0.0,0.0,0.0,0.0,0.0,0.0,0.0,0.0,0.0,0.0,0.0,0.0,0.0,0.0,0.0,0.0,0.0,0.0,0.0,0.0,0.0,0.0,0.0,0.0,0.0,0.0,0.0,0.0,0.0,0.0,0.0,0.0,0.0,0.0,0.0,0.0,0.0,0.0,0.0,0.0,0.0,0.0,0.0,0.0,0.0,0.0,0.0,0.0,0.0,0.0,0.0,0.0,0.0,0.0,0.0,0.0,0.0,0.0,0.0,0.0,0.0,0.0,0.0,0.0,0.0,0.0,0.0,0.0,0.0,0.0,0.0,0.0,0.0,0.0,0.0,0.0,0.0,0.0,0.0,0.0,0.0,0.0,0.0,0.0,0.0,0.0,0.0,0.0,0.0,0.0,0.0,0.0,0.0,0.0,0.0,0.0,0.0,0.0,0.0,0.0,0.0,0.0,0.0,0.0,0.0,0.0,0.0,0.0,0.0,0.0,0.0,0.0,0.0,0.0,0.0,0.0,0.0,0.0,0.0,0.0,0.0,0.0,0.0,0.0,0.0,0.0,0.0,0.0,0.0,0.0,0.0,0.0,0.0,0.0,0.0,0.0,0.0,0.0,0.0,0.0,0.0,0.0,0.0,0.0,0.0,0.0,0.0,0.0,0.0,0.0,0.0,0.0,0.0,0.0,0.0,0.0,0.0,0.0,0.0,0.0,0.0,0.0,0.0,0.0,0.0,0.0,0.0,0.0,0.0,0.0,0.0,0.0,0.0,0.0,0.0,0.0,0.0,0.0,0.0,0.0,0.0,0.0,0.0,0.0,0.0,0.0,0.0,0.0,0.0,0.0,0.0,0.0,0.0,0.0,0.0,0.0,0.0,0.0,0.0,0.0,0.0,0.0,0.0,0.0,0.0,0.0,0.0,0.0,0.0,0.0,0.0,0.0,0.0,0.0,0.0,0.0,0.0,0.0,0.0,0.0,0.0,0.0,0.0,0.0,0.0,0.0,0.0,0.0,0.0,0.0,0.0,0.0,0.0,0.0,0.0,0.0,0.0,0.0,0.0,0.0,0.0,0.0,0.0,0.0,0.0,0.0,0.0,0.0,0.0,0.0,0.0,0.0,0.0,0.0,0.0,0.0,0.0,0.0,0.0,0.0,0.0,0.0,0.0,0.0,0.0,0.0,0.0,0.0,0.0,0.0,0.0,0.0,0.0,0.0,0.0,0.0,0.0,0.0,0.0,0.0,0.0,0.0,0.0,0.0,0.0,0.0,0.0,0.0,0.0,0.0,0.0,0.0,0.0,0.0,0.0,0.0,0.0,0.0,0.0,0.0,0.0,0.0,0.0,0.0,0.0,0.0,0.0,0.0,0.0,0.0,0.0,0.0,0.0,0.0,0.0,0.0,0.0,0.0,0.0,0.0,0.0,0.0,0.0,0.0,0.0,0.0,0.0,0.0,0.0,0.0,0.0,0.0,0.0,0.0,0.0,0.0,0.0,1.9134,0.0,0.0,0.0,0.0,0.0,0.0,0.0,0.0,0.0,0.0,0.0,0.0,0.0,0.0,0.0,0.0,0.0,0.0,0.0,0.0,0.0,0.0,0.0,0.0,0.0,0.0,0.0,0.0,0.0,0.0,0.0,0.0,0.0,0.0,0.0,0.0,0.0,0.0,0.0,0.0,0.0,0.0,0.0,0.0,0.0,0.0,0.0,0.0,0.0,0.0,0.0,0.0,0.0,0.0,0.0,0.0,0.0,0.0,0.0,0.0,0.0,0.0,0.0,0.0,0.0,0.0,0.0,0.0,0.0,0.0,0.0,0.0,0.0,0.0,0.0,0.0,0.0,0.0,0.0,0.0,0.0,0.0,0.0,0.0,0.0,0.0,0.0,0.0,0.0,0.0,0.0,0.0,0.0,0.0,0.0,0.0,0.0,0.0,0.0,0.0,0.0,0.0,0.0,0.0,0.0,0.0,0.0,0.0,0.0,0.0,0.0,0.0,0.0,0.0,0.0,0.0,1.9855,0.0,0.0,0.0,0.0,0.0,0.0,0.0,0.0,0.0,0.0,0.0,0.0,0.0,0.0,0.0,0.0,0.0,0.0,0.0,0.0,0.0,0.0,0.0,0.0,0.0,0.0,0.0,0.0,0.0,0.0,0.0,0.0,0.0,0.0,0.0,0.0,0.0,0.0,0.0,0.0,0.0,0.0,0.0,0.0,0.0,0.0,0.0,0.0,0.0,0.0,0.0,0.0,0.0,0.0,0.0,0.0,0.0,0.0,0.0,0.0,0.0,0.0,0.0,0.0,0.0,0.0,0.0,0.0,0.0,0.0,0.0,0.0,0.0,0.0,0.0,0.0,0.0,0.0,0.0,0.0,0.0,0.0,0.0,0.0,0.0,0.0,0.0,0.0,0.0,0.0,0.0,0.0,0.0,0.0,0.0,0.0,0.0,0.0,0.0,0.0,0.0,0.0,0.0,0.0,0.0,0.0,0.0,0.0,2.4149,2.4256,2.4222,2.3521,2.3782,2.4694,2.3246,2.2772,2.2778,0.0,0.0,0.0,0.0,0.0,0.0,0.0,0.0,0.0,0.0,0.0,0.0,0.0,0.0,0.0,0.0,0.0,0.0,0.0,0.0,0.0,0.0,0.0,0.0,0.0,0.0,0.0,0.0,0.0,0.0,0.0,0.0,0.0,0.0,0.0,0.0,0.0,0.0,0.0,1.1825,1.2328,1.2717,1.2874,1.0372,0.0,0.0,0.0,0.0,0.0,0.0,0.0,0.0,0.0,0.0,0.0,0.0,0.0,0.0,0.0,0.0,0.0,0.0,0.0,0.0,0.0,0.0,0.0,0.0,0.0,0.0,0.0,0.0,0.0,0.0,0.0,0.0,0.0,0.0,0.0,0.0,0.0,0.0,0.0,0.0,0.0,0.0,0.0,1.9444,1.9444,0.0,0.0,0.0,0.0,0.0,0.0,0.0,0.0,0.0,0.0,0.0,0.0,0.0,2.3176,2.3355,2.4597,2.5259,2.5349,2.6342,2.681,2.6797,2.6525,2.6501,2.6625,2.6394,0.0,2.3017,2.2124,0.0,0.0,0.0,0.0,0.0,0.0,0.0,0.0,0.0,0.0,0.0,0.0,0.0,0.0,0.0,0.0,0.0,0.0,0.0,0.0,0.0,0.0,0.0,0.0,0.0,0.0,0.0,0.0,0.0,0.0,0.0,0.0,0.0,0.0,0.0,0.0,1.1828,1.2457,1.2722,1.3295,1.327,1.2676,1.1819,1.1237,1.0831,0.9975,0.0,0.0,0.0,0.0,0.0,0.0,0.0,0.0,0.0,0.0,0.0,0.0,0.0,0.0,0.0,0.0,0.0,0.0,0.0,0.0,0.0,0.0,0.0,0.0,0.0,0.0,0.0,0.0,0.0,0.0,0.0,0.0,0.0,0.0,0.0,0.0,0.0,0.0,0.0,1.8027,1.8574,1.8574,1.8057,1.7414,0.0,0.0,0.0,0.0,0.0,0.0,0.0,0.0,0.0,2.4294,2.4582,2.527,2.6393,2.6979,2.738,2.7571,2.8066,2.8436,2.8634,2.8039,2.7996,2.832,2.7834,2.6973,2.5767,2.3776,2.2194,2.0882,0.0,0.0,0.0,0.0,1.8973,1.9599,0.0,0.0,0.0,0.0,0.0,0.0,0.0,0.0,0.0,0.0,0.0,0.0,0.0,0.0,0.0,0.5332,0.0,0.0,0.0,0.0,0.0,0.0,0.0,0.0,0.0,0.0,0.0,0.0,1.2881,1.3317,1.3552,1.4053,1.38,1.2951,1.3245,1.3135,1.261,1.1441,1.1077,0.0,0.0,0.0,0.0,0.0,0.0,0.0,0.0,0.0,0.0,0.0,0.0,0.0,0.0,0.0,0.0,0.0,0.0,0.0,0.0,0.0,0.0,0.0,0.0,0.0,0.0,0.0,0.0,0.0,0.0,0.0,0.0,0.0,0.0,0.0,0.0,0.0,0.0,1.8559,1.885,1.8506,1.8775,1.8469,0.0,0.0,0.0,0.0,0.0,0.0,2.4044,2.4433,2.5162,2.6321,2.668,2.7562,2.9071,2.9198,2.9358,2.9613,2.9315,2.9329,2.9588,2.8715,2.8611,2.9036,2.8375,2.8109,2.792,2.5572,2.4348,2.3771,2.1982,2.1029,2.0702,2.1129,2.1432,2.1922,0.0,0.0,0.0,0.0,0.0,0.0,0.0,0.0,0.0,0.0,0.0,0.0,0.0,0.0,0.5953,0.5691,0.6846,0.723,0.0,0.0,0.0,0.0,0.0,0.0,0.0,0.0,0.0,1.2192,1.3441,1.428,1.4728,1.4746,1.4933,1.5197,1.446,1.3391,1.2157,1.2325,1.2398,1.2393,0.0,0.0,0.0,0.0,0.0,0.0,0.0,0.0,0.0,0.0,0.0,0.0,0.0,0.0,0.0,0.0,0.0,0.0,0.0,0.0,0.0,0.0,0.0,0.0,0.0,0.0,0.0,0.0,0.0,0.0,0.0,0.0,0.0,0.0,0.0,0.0,0.0,0.0,0.0,2.0703,2.1675,0.0,0.0,0.0,0.0,2.2493,2.3141,2.4088,2.5435,2.6704,2.772,2.8427,2.9624,3.0298,3.0402,3.0789,3.0984,3.0993,2.9896,2.9394,2.9394,2.8505,2.8126,2.8152,2.8128,2.8109,2.8097,2.7932,2.6919,2.5489,2.5351,2.4343,2.3133,2.472,2.5823,2.678,0.0,0.0,0.0,0.0,0.0,0.0,0.0,0.0,0.0,0.0,0.0,0.0,0.0,0.63,0.7367,0.6842,0.8557,0.9365,0.8665,0.0,0.0,0.0,0.0,0.0,0.0,0.0,1.2903,1.3877,1.4326,1.4775,1.5171,1.4657,1.4489,1.4599,1.3795,1.3145,1.2699,1.3065,1.3031,1.2766,1.2957,1.2146,0.0,0.0,0.0,0.0,0.0,0.0,0.0,0.0,0.0,0.0,0.0,0.0,0.0,0.0,0.0,0.0,0.0,0.0,0.0,0.0,0.0,0.0,0.0,0.0,0.0,0.0,0.0,0.0,0.0,0.0,0.0,0.0,0.0,0.0,0.0,0.0,0.0,2.0862,2.2612,0.0,2.2109,2.334,2.4492,2.5162,2.621,2.738,2.8669,2.9205,2.9968,3.1061,3.0955,3.1095,3.1533,3.1039,3.069,3.0527,3.0113,2.9814,2.9654,2.9341,2.9189,2.9189,2.9189,2.9189,2.9189,2.9189,2.8411,2.7205,2.7205,2.6836,2.6385,2.6992,2.7417,2.7757,0.0,0.0,0.0,0.0,0.0,0.0,0.0,0.0,0.0,0.0,0.0,0.4896,0.5423,0.7213,0.8242,0.7933,0.9556,1.0142,0.906,0.0,0.0,0.0,0.0,0.0,0.0,1.2864,1.3802,1.4799,1.4946,1.5137,1.5381,1.485,1.4524,1.4351,1.3819,1.3473,1.3324,1.359,1.3403,1.2941,1.3073,1.2369,1.125,0.0,0.0,0.0,0.0,0.0,0.0,0.0,0.0,0.0,0.0,0.0,0.0,0.0,0.0,0.0,0.0,0.0,0.0,0.0,0.0,0.0,0.0,0.0,0.0,0.0,0.0,0.0,0.0,0.0,0.0,0.0,0.0,0.0,0.0,0.0,2.3176,2.1834,2.4212,2.5438,2.414,2.5806,2.7215,2.7872,2.8951,3.0044,3.1121,3.11,3.1456,3.2342,3.1644,3.1492,3.1936,3.1189,3.0703,3.0526,3.0217,2.9965,2.9792,2.9792,2.9792,2.9792,2.9792,2.9792,2.9792,2.9792,2.9352,2.8674,2.8674,2.8674,2.8674,2.8674,2.8674,2.8674,0.0,0.0,0.0,0.0,0.0,0.0,0.0,0.0,0.0,0.0,0.4931,0.5896,0.7437,0.803,0.8476,0.8878,0.9727,0.9414,0.7428,0.8966,0.0,0.0,0.0,0.0,1.2913,1.3717,1.4352,1.4819,1.5215,1.5396,1.5396,1.54,1.5139,1.4715,1.4693,1.44,1.3908,1.3875,1.3525,1.2963,1.258,1.2612,1.2747,0.0,0.0,0.0,0.0,0.0,0.0,0.0,0.0,0.0,0.0,0.0,0.0,0.0,0.0,0.0,0.0,0.0,0.0,0.0,0.0,0.0,0.0,0.0,0.0,0.0,0.0,0.0,0.0,0.0,0.0,0.0,0.0,0.0,2.1929,2.4044,2.5184,2.3909,2.6677,2.8173,2.6884,2.8545,2.9967,3.0552,3.1211,3.184,3.2482,3.2278,3.2136,3.2118,3.176,3.1598,3.1598,3.131,3.1161,3.1143,3.0222,2.9792,2.9792,2.9792,2.9792,2.9792,2.9817,2.9817,2.9836,2.9829,2.9822,2.979,2.9804,2.9792,2.9792,2.9792,2.9792,2.9792,0.0,0.0,0.0,0.0,0.0,0.0,0.0,0.0,0.0,0.0,0.5093,0.6105,0.7456,0.8277,0.8881,0.9236,1.0544,1.0795,0.9458,0.0,0.0,0.0,0.0,0.0,1.3766,1.4313,1.4814,1.5244,1.5352,1.5396,1.5391,1.5155,1.4971,1.4833,1.4541,1.4334,1.4156,1.3469,1.3085,1.2949,1.3067,1.2801,1.2321,0.0,0.0,0.0,0.0,0.0,0.0,0.0,0.0,0.0,0.0,0.0,0.0,0.0,0.0,0.0,0.0,0.0,0.0,0.0,0.0,0.0,0.0,0.0,0.0,0.0,0.0,0.0,0.0,0.0,0.0,0.0,0.0,2.5285,2.4627,2.5974,2.7093,2.7215,2.9282,3.0554,3.018,3.1539,3.2512,3.2662,3.2856,3.2955,3.2943,3.2872,3.2716,3.2479,3.1707,3.1314,3.1314,3.0574,3.0177,3.0177,2.9914,2.9792,2.9792,2.9792,2.9792,2.9817,3.0218,3.0374,3.0419,3.0796,3.0437,2.9664,2.9766,2.9792,2.9792,2.9792,2.9792,2.9792,0.0,0.0,0.0,0.0,0.0,0.0,0.0,0.0,0.0,0.0,0.5222,0.6241,0.8109,0.8663,0.9122,0.9681,1.0696,1.0836,0.9729,0.0,0.0,0.0,0.0,1.3948,1.4381,1.4824,1.5166,1.5396,1.5396,1.5508,1.5693,1.5489,1.5371,1.532,1.5072,1.4857,1.4638,1.4083,1.386,1.3863,1.3924,1.3541,1.2913,1.2664,1.3041,1.3639,1.3088,1.2607,1.2114,1.1619,0.0,0.0,0.0,0.0,0.0,0.0,0.0,0.0,0.0,0.0,0.0,0.0,0.0,0.0,0.0,0.0,0.0,0.0,0.0,0.0,0.0,0.0,0.0,0.0,2.5836,2.759,2.8011,2.8728,2.9385,2.9775,3.1316,3.2347,3.2347,3.3036,3.362,3.3904,3.3919,3.3794,3.3482,3.3107,3.2629,3.2019,3.11,3.0601,3.0601,3.0075,2.9792,2.9792,2.9792,2.9792,2.9804,3.003,3.0143,0.0,3.0708,3.0947,3.0959,3.1273,3.0692,0.0,0.0,0.0,0.0,0.0,2.9693,3.0105,0.0,0.0,0.0,0.0,0.0,0.0,0.0,0.0,0.0,0.0,0.0,0.6354,0.9005,0.9012,0.9229,1.0228,1.0487,1.0226,0.0,0.0,0.0,1.3493,1.3997,1.4439,1.4858,1.5225,1.5396,1.5396,1.5444,1.5684,1.6095,1.6193,1.6183,1.6072,1.6117,1.5909,1.5499,1.5411,1.5358,1.5324,1.4929,1.4563,1.4163,1.2955,1.3537,1.4858,1.3675,1.2988,1.2623,1.2476,0.0,0.0,0.0,0.0,0.0,0.0,0.0,0.0,0.0,0.0,0.0,0.0,0.0,0.0,0.0,0.0,0.0,0.0,0.0,0.0,0.0,0.0,0.0,0.0,2.8008,2.9551,3.1361,3.1735,3.1809,3.1735,3.2841,3.3604,3.3604,3.3679,3.3963,3.4563,3.4513,3.4271,3.3865,0.0,0.0,0.0,0.0,2.9792,2.9792,2.9792,2.9792,2.9792,2.9792,2.9829,2.9905,3.0374,3.0625,3.0713,3.126,3.1486,3.1486,3.157,3.0971,3.0064,3.0877,2.9747,2.7806,2.8756,2.9687,3.0441,0.0,0.0,0.0,0.0,0.0,0.0,0.0,0.0,0.0,0.517,0.5483,0.656,0.9026,0.8765,0.9121,1.0857,1.0762,1.087,0.0,0.0,1.3298,1.3958,1.4732,1.5191,1.5283,1.5357,1.5396,1.5396,1.5777,1.6007,1.613,1.6829,1.7135,1.7126,1.7446,1.7537,1.7398,1.6645,1.6341,1.6253,1.5432,1.5282,1.5509,1.5017,1.547,1.6264,1.5694,1.542,1.518,1.4108,1.3685,1.3579,1.3365,0.0,0.0,0.0,0.0,0.0,0.0,0.0,0.0,0.0,0.0,0.0,0.0,0.0,0.0,0.0,0.0,0.0,0.0,0.0,0.0,2.7989,2.9745,3.1256,3.2183,3.3245,3.3709,3.3185,3.3829,3.4308,3.4308,3.4801,3.5175,3.5295,3.455,3.3745,3.2912,3.1979,3.1044,3.0113,2.9895,2.9792,2.9792,2.9792,2.9792,2.9792,0.0,0.0,3.0437,3.055,3.0846,3.1273,3.1813,3.2051,3.2089,3.2575,3.2635,3.2258,3.0604,2.9027,2.796,3.0101,3.0441,2.992,0.0,0.0,0.0,0.0,0.0,0.0,0.0,0.0,0.0,0.0,0.5609,0.6473,0.8253,0.851,0.8931,0.9865,1.0346,0.0,0.0,1.3025,1.3874,1.4708,1.5171,1.5396,1.5396,1.5396,1.5396,1.5396,1.5865,1.6197,1.6416,1.7096,1.7516,1.7705,1.792,1.7991,1.7983,1.7702,1.7604,1.7551,1.7085,1.7037,1.7142,1.6092,1.6258,1.6986,1.6562,1.6265,1.5997,1.5327,1.4937,1.4725,1.455,1.4202,1.3989,0.0,0.0,0.0,0.0,0.0,0.0,0.0,0.0,0.0,0.0,0.0,0.0,0.0,0.0,2.3209,2.4764,0.0,2.861,2.9839,3.1435,3.2721,3.341,3.4084,3.4384,3.4039,3.4592,3.5012,3.5012,3.5295,3.5295,3.4789,3.4279,3.338,3.1979,3.1444,3.0758,2.983,2.9792,2.9792,2.9792,2.9792,2.9792,2.9792,3.0068,3.0337,3.0613,3.1152,3.1562,3.1838,3.2403,3.2641,3.2569,3.1646,3.0901,3.0281,2.9717,2.9861,3.0436,3.0783,3.0908,3.0956,0.0,0.0,0.0,0.0,0.0,0.0,0.0,0.0,0.0,0.0,0.0,0.6362,0.759,0.8288,0.8731,0.0,0.0,0.0,0.0,1.309,1.4121,1.522,1.5371,1.5396,1.5396,1.5396,1.5396,1.5396,1.5953,1.6377,1.6716,1.7266,1.7686,1.7991,1.7991,1.7991,1.802,1.8352,1.8481,1.8481,1.8481,1.8481,1.8323,1.6862,1.6814,1.7441,1.6908,1.6479,1.6187,1.6026,1.5718,1.5396,1.5396,1.5016,1.467,1.5194,1.52,0.0,0.0,0.0,0.0,0.0,0.0,0.0,0.0,1.9113,1.9648,2.1957,2.3487,2.4819,2.6176,2.8421,3.0518,3.187,3.2991,3.3934,3.4592,3.4682,3.4682,3.4682,3.516,3.5504,3.5504,3.5504,3.5083,3.4078,3.3825,3.2996,3.1278,3.1026,3.0576,2.983,2.9792,2.9792,2.9792,2.9792,2.9842,2.9955,3.0387,3.0701,3.0939,3.1825,3.2256,3.2382,3.2641,3.259,3.2208,2.9977,2.8611,2.8049,2.9016,3.062,3.2234,3.0999,3.1016,3.1622,0.0,0.0,0.0,0.0,0.0,0.0,0.0,0.0,0.0,0.0,0.0,0.0,0.0,0.0,0.0,0.0,0.0,0.0,1.2192,1.3354,1.4283,1.4848,1.5215,1.5396,1.5396,1.5396,1.5396,1.5396,1.6235,1.6664,1.6716,1.7552,1.7969,1.7991,1.7991,1.7991,1.8001,1.804,1.8059,1.8059,1.8059,1.8059,1.8049,1.785,1.7828,1.7815,1.7005,1.6668,1.6502,1.5737,1.5435,1.5396,1.5396,1.5779,1.6186,1.5971,1.6008,1.6042,1.5697,1.6057,1.6737,1.7678,1.828,1.9196,0.0,2.1864,2.2387,2.4328,2.6065,2.7746,2.9449,3.0889,3.2333,3.3914,3.4278,3.4622,3.5295,3.5385,3.5385,3.5385,3.5459,3.5504,3.5504,3.5504,3.5083,3.4078,3.3223,3.2303,3.1259,3.04,2.9914,2.9792,2.9792,2.9792,2.9792,2.9792,3.0043,3.05,3.0563,3.109,3.2039,3.2144,3.2491,3.2938,3.1862,3.0788,2.9704,2.8366,2.8342,2.92,2.9338,2.9567,2.992,3.0796,3.0527,2.9863,0.0,0.0,0.0,0.0,0.0,0.0,0.0,0.0,0.0,0.0,0.0,0.0,0.0,0.0,0.0,0.0,0.0,0.0,1.2174,1.339,1.4313,1.478,1.5186,1.5396,1.5396,1.5396,1.5396,1.5396,1.6035,1.6353,1.6373,1.7236,1.7646,1.7656,1.79,1.7991,1.8027,1.8254,1.8361,1.8361,1.8361,1.8361,1.8303,1.7832,1.7646,1.7568,1.6921,1.6365,0.0,0.0,1.5244,1.5088,1.5332,1.5693,1.6028,1.6006,1.6355,1.6955,1.7852,1.8254,1.8681,1.9849,2.0513,2.1453,2.3475,2.3847,2.4386,2.6563,2.8351,2.9556,2.9739,3.1809,3.3544,3.3662,3.448,3.5175,3.5459,3.5504,3.5504,3.5504,3.4986,3.4856,3.5441,3.497,3.4228,3.3258,3.2321,3.1384,3.0438,3.0017,2.9792,2.9792,2.9792,2.9792,2.9792,2.9792,3.0068,3.06,3.0922,3.1474,3.2206,3.2554,3.2453,3.1921,3.0676,2.9476,2.8319,2.7814,2.7471,2.7318,2.8062,2.8342,2.8588,3.0496,3.0451,2.9476,0.0,0.0,0.0,0.0,0.0,0.0,0.0,0.0,0.0,0.0,0.0,0.0,0.0,0.0,0.0,0.0,0.0,0.0,0.0,1.312,1.402,1.458,1.501,1.5293,1.5396,1.5396,1.5396,1.5396,1.5865,1.6095,1.613,1.6862,1.7207,1.7217,1.7503,1.764,1.7659,1.7944,1.8081,1.8081,1.8081,1.8081,1.8013,1.7432,1.7145,1.6998,1.666,1.6039,0.0,0.0,1.4961,1.4686,1.5172,1.5652,1.6098,1.626,1.6721,1.7533,1.9145,1.9811,2.0388,2.1834,2.2824,2.3844,2.536,2.5719,2.6202,2.7954,2.935,3.0149,2.9755,3.2022,3.3745,3.3063,3.4151,3.5001,3.4739,3.4706,3.4706,3.4706,3.4058,3.3891,3.4624,3.4041,3.3223,3.2285,3.1591,3.0796,2.985,2.9792,2.9792,2.9792,2.9792,2.9792,2.9792,2.9942,3.0294,3.0834,3.1361,3.1913,3.2466,3.2901,3.2404,3.1134,2.992,2.8727,2.7565,2.722,2.673,2.6318,2.7244,2.7589,2.7814,2.9567,2.9658,2.8912,0.0,0.0,0.0,0.0,0.0,0.0,0.0,0.0,0.0,0.0,0.0,0.0,0.0,0.0,0.0,0.0,0.0,0.0,0.0,1.2445,1.3291,1.4094,1.457,1.5,1.5386,1.5396,1.5396,1.5396,1.5865,1.6095,1.6105,1.6527,1.6716,1.6716,1.6736,1.6746,1.6746,1.6755,1.6755,1.6755,1.6755,1.6755,1.6755,1.6726,1.6484,1.6134,1.6114,0.0,0.0,1.4955,1.4512,1.424,1.49,1.5959,1.6972,1.7052,1.7228,1.7627,1.8732,1.9823,2.1194,2.3376,2.515,2.6512,2.7107,2.7625,2.8021,2.809,2.8567,2.9243,3.0191,3.1626,3.265,3.2633,3.3432,3.3722,3.282,3.2696,3.2696,3.2696,3.2646,3.2646,0.0,3.2646,3.2249,3.1296,3.1217,3.0796,2.985,2.9792,2.9792,2.9792,2.9792,2.9792,2.9792,3.0319,3.0846,3.1373,3.1926,3.2491,3.3077,3.309,3.2404,3.1134,2.992,2.8727,2.7494,2.6269,2.6452,2.7542,2.7589,2.7589,2.7613,2.7683,2.7683,2.766,0.0,0.0,0.0,0.0,0.0,0.0,0.0,0.0,0.0,0.0,0.0,0.0,0.0,0.0,0.0,0.0,0.0,0.0,0.0,1.2238,1.302,1.3291,1.3971,1.4537,1.498,1.5,1.5127,1.5396,1.5557,1.5649,1.5644,1.6099,1.6304,1.6314,1.6586,1.6697,1.6697,1.6697,1.6697,1.6697,1.6697,1.6697,1.6668,1.6406,1.6517,1.6721,0.0,0.0,0.0,1.4848,1.4701,1.4743,1.5718,1.641,1.6987,1.7642,1.8374,1.9233,2.0363,2.202,2.3778,2.5276,2.662,2.7695,2.8247,2.8493,2.8743,2.9151,2.8981,2.8675,2.8413,2.977,3.0744,3.0115,3.1733,3.2961,3.2629,3.2593,3.2593,3.2593,3.2051,0.0,0.0,0.0,0.0,3.1217,3.062,3.0139,2.9811,2.9792,2.9792,2.9792,2.9792,2.9792,2.9792,3.0331,3.0871,3.1419,3.2361,3.2901,3.3068,3.2217,3.1611,3.1134,2.992,2.9177,2.8773,2.8332,2.8402,2.8704,2.7908,2.7589,2.7494,2.6644,2.6342,2.6342,0.0,0.0,0.0,0.0,0.0,0.0,0.0,0.0,0.0,0.0,0.0,0.0,0.0,0.0,0.0,0.0,0.0,0.0,0.0,0.0,1.2314,1.2637,1.3139,1.3636,1.4105,1.4115,1.4252,1.4512,1.4791,1.4937,1.4957,1.5557,1.5845,1.5855,1.6118,1.6244,1.6244,1.6244,1.6141,1.602,1.602,1.6177,1.6382,1.6136,1.6583,0.0,0.0,0.0,0.0,1.5329,1.5085,1.5158,1.6402,1.7149,1.7774,1.8809,1.9585,2.0502,2.2209,2.3712,2.5205,2.6934,2.7871,2.853,2.9082,2.922,2.927,2.9453,2.8802,2.7967,2.7157,2.8428,2.9104,2.756,2.9505,3.1083,3.0761,3.0708,3.0918,3.1524,3.1076,3.0696,0.0,0.0,0.0,3.0696,3.0139,2.9792,2.9792,2.9792,2.9792,2.9792,2.9792,2.9792,2.9792,3.052,3.126,3.2022,3.2751,3.3102,3.3068,3.2261,3.1877,3.1821,3.0586,3.0045,3.0022,2.959,2.9407,2.9269,2.8062,2.7861,2.8085,2.6849,2.639,2.6318,0.0,0.0,0.0,0.0,0.0,0.0,0.0,0.0,0.0,0.0,0.0,0.0,0.0,0.0,0.0,0.0,0.0,0.0,0.0,0.0,0.0,1.2106,1.2164,1.2391,1.2854,1.2854,1.2886,1.2905,1.3669,1.4059,1.4125,1.496,1.538,1.5429,1.5429,1.5414,1.5395,1.5414,1.5179,1.4825,1.4825,1.5276,1.5933,1.5906,0.0,0.0,0.0,0.0,1.7486,1.6358,1.5744,1.5655,1.7004,1.8228,1.9371,2.0452,2.0855,2.1521,2.4126,2.4913,2.5645,2.8254,2.8913,2.9095,2.9628,2.9741,2.9566,2.8919,2.7908,2.6972,2.6424,2.7497,2.7674,2.5243,2.7019,2.8421,2.7554,2.7424,2.8027,2.9603,2.9792,2.9792,2.9792,0.0,0.0,2.9792,0.0,2.9792,2.9792,2.9792,2.9792,2.9792,2.9792,2.9792,2.9792,3.0846,3.1972,3.3102,3.3102,3.3102,3.3102,3.3102,3.3102,3.3025,3.1821,3.1311,3.1201,3.0067,2.959,2.9476,2.8249,2.8471,2.9338,2.8132,2.766,2.7434,0.0,0.0,0.0,0.0,0.0,0.0,0.0,0.0,0.0,0.0,0.0,0.0,0.0,0.0,0.0,0.0,0.0,0.0,0.0,0.0,0.0,0.0,0.0,0.0,0.0,0.0,0.0,0.0,1.3108,1.3591,1.4337,1.4551,1.5086,1.5846,1.5846,1.5603,1.5211,1.5669,1.5527,1.502,0.0,1.5635,1.6523,0.0,0.0,0.0,0.0,0.0,1.829,1.746,1.775,1.854,1.8902,2.0136,2.1517,2.1807,2.305,2.451,2.5209,2.6598,2.801,2.8712,2.9233,2.9503,2.9195,2.9132,2.8762,2.7386,2.5904,2.4657,2.4076,2.4637,2.524,2.5368,2.7341,2.8915,2.9126,2.9151,2.9315,2.9741,2.9792,2.9792,2.9792,2.9792,0.0,0.0,2.9792,2.9792,2.9792,2.9792,2.9792,2.9792,2.9792,2.9792,2.9792,3.0846,3.1972,3.3102,3.3102,3.3102,3.3102,3.3102,3.3102,3.3068,3.2776,3.2612,3.259,3.2295,3.2152,3.2042,3.0765,3.0474,3.0586,2.9384,2.8355,2.7542,0.0,0.0,0.0,0.0,0.0,0.0,0.0,0.0,0.0,0.0,0.0,0.0,0.0,0.0,0.0,0.0,0.0,0.0,0.0,0.0,0.0,0.0,0.0,0.0,0.0,0.0,0.0,0.0,0.0,0.0,0.0,1.4078,1.4816,1.5643,1.5643,1.56,1.5513,1.586,0.0,0.0,0.0,0.0,0.0,0.0,0.0,0.0,0.0,1.8834,1.9123,1.8701,1.9246,2.0084,2.0084,2.1098,2.2395,2.2897,2.4255,2.5749,2.6502,2.7777,2.8969,2.9233,2.9346,2.9183,2.8386,2.8021,2.7381,2.5741,2.4271,2.3148,2.2807,2.3424,2.4029,2.4142,2.6226,2.7959,2.8303,2.8555,2.8982,2.9704,2.9792,2.9792,2.9792,2.9792,2.9792,0.0,2.9792,2.9792,2.9792,2.9792,2.9792,2.9792,2.9792,2.9905,3.0156,3.0972,3.1838,3.2726,3.2977,3.3102,3.3102,3.3102,3.3102,3.3102,0.0,3.3102,3.3102,3.3102,3.2776,3.2196,3.1478,3.1201,3.1134,3.0451,2.943,2.8389,0.0,0.0,0.0,0.0,0.0,0.0,0.0,0.0,0.0,0.0,0.0,0.0,0.0,0.0,0.0,0.0,0.0,0.0,0.0,0.0,0.0,0.0,0.0,0.0,0.0,0.0,0.0,0.0,0.0,0.0,0.0,0.0,0.0,0.0,0.0,0.0,0.0,0.0,0.0,0.0,0.0,0.0,0.0,0.0,0.0,0.0,1.9798,1.9798,1.9798,1.9798,2.0251,2.0818,2.0818,2.1658,2.2834,2.3904,2.5021,2.6264,2.7795,2.8593,2.9132,2.9566,2.9283,2.858,2.7344,2.6708,2.5854,2.4029,2.2887,2.2169,2.2108,2.3012,2.3527,2.2759,2.4811,2.6562,2.6788,2.7223,2.8072,2.9635,2.9792,2.9792,2.9792,2.9792,2.9792,2.9792,2.9792,2.9792,2.9792,2.9792,2.9792,2.9792,2.9792,3.0055,3.0588,3.1135,3.1675,3.2206,3.2805,3.3102,3.3102,3.3102,3.3102,3.3102,0.0,0.0,3.3102,3.3102,3.2447,3.1456,3.1456,3.1456,3.1456,3.1456,3.0676,2.9613,0.0,0.0,0.0,0.0,0.0,0.0,0.0,0.0,0.0,0.0,0.0,0.0,0.0,0.0,0.0,0.0,0.0,0.0,0.0,0.0,0.0,0.0,0.0,0.0,0.0,0.0,0.0,0.0,0.0,0.0,0.0,0.0,0.0,0.0,0.0,0.0,0.0,0.0,0.0,0.0,0.0,0.0,0.0,0.0,0.0,0.0,1.9798,1.9798,1.9798,1.9798,2.0502,2.1356,2.1356,2.2749,2.449,2.5134,2.644,2.7833,2.8568,2.9183,2.9553,2.9145,2.8982,2.838,2.6352,2.5812,2.5037,2.2462,2.1784,2.1507,2.1069,2.1857,2.2972,2.4177,2.5565,2.6947,2.8292,2.8568,2.8919,2.9704,2.9792,2.9792,2.9792,2.9792,0.0,0.0,2.9792,2.9792,2.9792,2.9792,2.9792,2.9792,2.9792,3.0055,3.0588,3.1135,3.1675,3.2206,3.2805,3.3102,3.3102,3.3102,3.3102,3.3102,3.3102,0.0,3.3102,3.3102,3.2961,3.2776,3.2776,3.2776,3.2776,3.2776,3.1965,3.0743,0.0,0.0,0.0,0.0,0.0,0.0,0.0,0.0,0.0,0.0,0.0,0.0,0.0,0.0,0.0,0.0,0.0,0.0,0.0,0.0,0.0,0.0,0.0,0.0,0.0,0.0,1.241,1.2156,0.0,0.0,0.0,0.0,0.0,0.0,0.0,0.0,0.0,0.0,0.0,0.0,0.0,0.0,0.0,0.0,0.0,0.0,0.0,1.956,1.9798,1.9798,2.0376,2.1118,2.1407,2.2824,2.449,2.5034,2.6578,2.816,2.8405,2.8894,2.9258,2.8982,2.848,2.7494,2.5272,2.4515,2.36,2.1117,2.0628,2.064,2.0679,2.1344,2.2334,2.3684,2.5109,2.6507,2.7883,2.8543,2.912,2.9729,2.9792,2.9792,2.9792,2.9792,2.9792,2.9792,2.9792,2.9792,2.9792,2.9792,2.9792,2.9792,2.9792,2.9917,3.0181,3.0984,3.1524,3.1788,3.2688,3.3102,3.3102,3.3102,3.3102,3.3102,3.3102,0.0,3.3102,3.3102,3.3102,3.3102,3.3102,3.3102,3.3102,3.3102,3.2283,3.1134,0.0,0.0,0.0,0.0,0.0,0.0,0.0,0.0,0.7447,0.7714,0.8132,0.8442,0.8526,0.8533,0.0,0.0,0.0,0.0,0.0,0.0,0.0,0.0,0.0,0.0,0.0,0.0,0.0,1.265,1.3012,0.0,0.0,0.0,0.0,0.0,1.4956,0.0,0.0,0.0,0.0,0.0,0.0,0.0,0.0,0.0,0.0,0.0,0.0,1.9334,1.9798,1.9798,2.0125,2.0603,2.1143,2.2385,2.3791,2.4578,2.6109,2.7645,2.8009,2.8405,2.8706,2.8593,2.7833,2.6545,2.4318,2.3361,2.233,2.0238,1.9798,1.9936,2.0427,2.0968,2.1631,2.2594,2.4051,2.5498,2.6758,2.7883,2.8819,2.9528,2.9716,2.9792,2.9792,2.9792,0.0,2.9792,2.9792,2.9792,2.9792,2.9792,2.9792,2.9792,2.9792,2.9792,2.9792,3.0746,3.1286,3.1419,3.2424,3.2977,3.3102,3.3102,3.3102,3.3102,3.3102,0.0,0.0,3.3102,3.3102,3.3102,3.3102,3.3102,3.3102,3.3102,3.2469,3.1567,0.0,0.0,0.0,0.0,0.0,0.0,0.0,0.0,0.8199,0.8234,0.8543,0.8892,0.9256,0.9296,0.0,0.0,0.0,0.0,0.0,0.0,0.0,0.0,0.0,0.0,0.0,0.0,0.0,1.3138,1.3181,0.0,0.0,0.0,0.0,0.0,0.0,1.55,1.65,0.0,0.0,0.0,0.0,0.0,0.0,0.0,0.0,0.0,0.0,1.9334,1.9798,1.9798,1.9836,1.9987,2.0591,2.1545,2.2759,2.434,2.5281,2.6151,2.7695,2.8147,2.8059,2.7557,2.7014,2.5984,2.3712,2.2757,2.1881,2.0162,1.9798,1.9823,1.9874,2.0364,2.0968,2.1557,2.2596,2.3913,2.5523,2.6728,2.7821,2.8869,2.9478,2.9792,2.9792,2.9792,2.9792,2.9792,2.9792,2.9792,2.9792,2.9792,2.9792,2.9792,2.9792,2.9792,2.9792,3.0382,3.0922,3.1419,3.2001,3.2566,3.3102,3.3102,3.3102,3.3102,3.3102,0.0,0.0,3.3102,3.3102,3.3102,3.3102,3.3102,3.3102,3.3102,3.3025,3.2776,0.0,0.0,0.0,0.0,0.0,0.0,0.0,0.0,0.8312,0.851,0.8898,0.9302,0.9659,0.9987,0.0,0.0,0.0,0.0,0.0,0.0,0.0,0.0,0.0,0.0,0.0,0.0,0.0,1.3198,1.3198,0.0,0.0,0.0,0.0,0.0,0.0,1.55,1.65,0.0,0.0,0.0,0.0,0.0,0.0,0.0,0.0,0.0,0.0,0.0,1.9798,1.9798,1.9798,1.9849,2.0088,2.0439,2.1191,2.3183,2.4399,2.5331,2.6327,2.659,2.654,2.6344,2.564,2.4585,2.2985,2.2194,2.143,2.0075,1.9798,1.9798,1.9798,2.0,2.0351,2.093,2.1658,2.2723,2.4406,2.5891,2.7223,2.8279,2.9239,2.9792,2.9792,2.9792,2.9792,2.9792,2.9792,2.9792,2.9792,2.9792,2.9792,2.9792,2.9792,2.9792,2.9792,3.0331,3.0701,3.0934,3.178,3.234,3.2566,3.2939,3.3102,3.3102,3.3102,0.0,0.0,3.3102,3.3102,3.3102,3.3102,3.3102,3.3102,3.3102,3.3102,3.3025,0.0,0.0,0.0,0.0,0.0,0.0,0.709,0.7949,0.8639,0.8879,0.9279,0.9633,0.988,1.0238,1.0702,1.1286,0.0,0.0,0.0,0.0,0.0,0.0,0.0,0.0,0.0,0.0,0.0,0.0,1.3198,1.3294,0.0,0.0,1.3892,1.5135,0.0,0.0,0.0,0.0,0.0,0.0,0.0,0.0,0.0,0.0,0.0,0.0,0.0,0.0,0.0,0.0,0.0,1.9773,1.961,1.966,2.0175,2.2069,2.3311,2.4214,2.4933,2.5234,2.5335,2.5172,2.4418,2.3452,2.2322,2.1644,2.0992,1.9999,1.9798,1.9798,1.9798,1.9798,1.9949,0.0,0.0,2.1733,2.3062,2.4547,2.5841,2.6779,2.7745,2.8511,2.9001,2.9503,2.9792,2.9792,2.9792,2.9792,2.9792,2.9792,2.9792,2.9792,2.9792,2.9792,2.9792,3.0181,3.0437,3.06,3.1366,3.1893,3.2206,3.2641,3.2939,3.3102,3.3102,0.0,0.0,3.2914,3.2839,3.2826,3.2663,3.26,3.26,3.26,3.26,3.26,0.0,0.0,0.0,0.0,0.0,0.0,0.0,0.0,0.9389,0.9396,0.9686,0.9893,0.9905,0.9905,1.0125,1.0663,0.0,0.0,0.0,0.0,0.0,0.0,0.0,0.0,0.0,0.0,0.0,0.0,0.0,0.0,1.4081,1.3475,1.4093,1.5678,0.0,0.0,0.0,0.0,0.0,0.0,0.0,0.0,0.0,0.0,0.0,0.0,0.0,0.0,0.0,0.0,0.0,0.0,0.0,1.9371,2.0024,2.1181,2.1895,2.2571,2.3715,2.439,2.4678,2.4155,2.3562,2.2832,2.1744,2.1094,2.0541,1.9924,1.9798,1.9798,1.9798,1.9798,1.9798,1.9811,2.0327,0.0,2.1444,2.2458,2.3358,2.3966,2.4515,2.5494,2.7173,2.8831,2.9792,2.9792,2.9792,0.0,2.9792,2.9792,2.9792,2.9792,2.9792,2.9792,2.9792,2.9804,3.0068,3.06,3.06,3.1165,3.2194,3.2206,3.2541,0.0,0.0,0.0,0.0,3.2453,3.2206,3.2164,3.1625,3.1432,3.1432,3.1432,3.1432,3.1432,0.0,0.0,0.0,0.0,0.0,0.0,0.0,0.0,0.975,0.975,0.9828,0.9905,0.9905,1.0238,1.0519,1.0688,0.0,0.0,0.0,0.0,0.0,0.0,0.0,0.0,0.0,0.0,0.0,0.0,0.0,0.0,0.0,0.0,1.4293,1.516,1.5361,0.0,0.0,0.0,0.0,0.0,0.0,0.0,0.0,0.0,0.0,0.0,0.0,0.0,0.0,0.0,0.0,0.0,0.0,0.0,0.0,1.9785,2.0464,2.1369,2.2098,2.2424,2.2498,2.2322,2.1857,2.1369,2.1031,2.0502,2.0024,1.9836,1.9798,1.9798,1.9798,1.9798,1.9798,1.9798,1.9962,2.0289,2.0867,2.2548,2.4051,2.4983,2.6942,2.8423,2.8969,0.0,2.9792,2.9792,2.9792,2.9792,2.9792,2.9792,2.9792,2.9792,2.9792,2.9792,2.9792,2.9792,2.988,3.0055,3.0412,3.0776,3.1115,3.1486,3.175,0.0,0.0,0.0,0.0,3.1725,3.165,3.1637,3.1482,3.1406,3.1406,3.1406,3.1406,3.1406,0.0,0.0,0.0,0.0,0.0,0.0,0.0,0.0,0.9905,0.9905,0.9905,0.9905,0.9905,1.02,1.0394,1.0394,0.0,0.0,0.0,0.0,0.0,0.0,0.0,0.0,0.0,0.0,0.0,0.0,0.0,0.0,0.0,0.0,0.0,0.0,0.0,0.0,0.0,0.0,0.0,0.0,0.0,0.0,1.6522,0.0,0.0,0.0,0.0,0.0,0.0,0.0,0.0,0.0,0.0,0.0,0.0,0.0,1.9484,2.0477,2.1056,2.1344,2.1457,2.1243,2.0943,2.0629,2.0415,2.0075,1.9798,1.9798,1.9798,1.9798,1.9798,1.9798,1.9798,1.9798,1.9798,2.0075,2.0893,2.2198,2.3527,2.4833,2.7281,2.8869,0.0,2.9434,2.9792,2.9792,2.9792,0.0,2.9792,2.9792,2.9792,2.9792,2.9792,2.9792,2.9792,2.9792,2.9792,2.9792,3.0143,3.04,3.06,3.0947,3.1198,0.0,0.0,0.0,0.0,3.1173,3.1097,3.1085,3.0891,3.0803,3.0803,3.0803,3.0803,3.0803,0.0,0.0,0.0,0.0,0.0,0.0,0.0,0.0,0.0,0.0,0.0,0.9905,0.9905,0.9905,0.0,0.0,0.0,0.0,0.0,0.0,0.0,0.0,0.0,0.0,0.0,0.0,0.0,1.325,1.3284,1.3514,1.3934,0.0,0.0,0.0,0.0,0.0,0.0,0.0,0.0,0.0,0.0,0.0,0.0,0.0,0.0,0.0,0.0,0.0,0.0,0.0,0.0,0.0,0.0,0.0,0.0,0.0,0.0,0.0,0.0,2.1006,2.1256,2.0754,2.0629,2.049,1.9924,1.9798,0.0,1.9798,1.9798,1.9798,1.9798,1.9798,1.9798,1.9798,1.9798,2.02,2.1344,2.1708,2.2424,2.3929,2.6088,2.7437,2.7311,2.8831,2.9792,2.9792,2.9792,0.0,2.9792,2.9792,2.9792,2.9792,2.9792,2.9792,2.9792,2.9792,2.9792,2.9792,2.9792,3.0068,3.0538,3.0538,3.0821,0.0,0.0,0.0,0.0,3.0758,3.0538,3.0487,2.9993,2.9792,2.9792,2.9792,2.9792,2.9792,0.0,0.0,0.0,0.0,0.0,0.0,0.0,0.0,0.0,0.0,0.0,0.0,0.0,0.0,0.0,0.0,0.0,0.0,0.0,0.0,0.0,0.0,0.0,0.0,0.0,0.0,0.0,1.3735,1.4035,1.4246,1.4372,1.4679,0.0,0.0,0.0,0.0,0.0,0.0,0.0,0.0,0.0,0.0,0.0,0.0,0.0,0.0,1.8282,1.8897,0.0,0.0,0.0,0.0,0.0,0.0,0.0,0.0,1.8957,1.9823,1.9962,0.0,2.0162,2.0037,2.0012,1.9962,0.0,1.9798,1.9798,1.9798,1.9798,1.9798,1.9798,1.9798,1.9798,1.9798,1.9798,2.02,2.1344,2.3706,2.5305,2.5222,2.757,2.8718,2.7424,2.8831,2.9792,2.9792,2.9792,2.9792,2.9792,2.9792,2.9792,2.9792,2.9792,2.9792,2.9792,2.9792,2.9792,2.9792,2.9792,2.9867,2.9993,2.9993,3.0055,0.0,0.0,0.0,3.0168,3.003,2.9993,2.998,2.9842,2.9792,2.9792,2.9792,2.9792,2.9792,0.0,0.0,0.0,0.0,0.0,0.0,0.0,0.0,0.0,0.0,0.0,0.0,0.0,0.0,0.0,0.0,0.0,0.0,0.0,0.0,0.0,0.0,0.0,0.0,0.0,0.0,0.0,0.0,0.0,1.4588,0.0,0.0,0.0,0.0,0.0,0.0,0.0,0.0,0.0,0.0,1.7471,0.0,0.0,0.0,0.0,0.0,1.88,1.9345,0.0,1.9215,1.9633,2.0149,0.0,0.0,0.0,0.0,1.9601,2.0317,2.0604,2.0257,1.9798,1.9798,1.9798,1.9798,1.9798,1.9798,1.9798,1.9798,1.9798,1.9798,1.9798,2.0037,2.0125,1.9849,2.0451,2.1241,2.2106,2.4029,2.5515,2.5954,2.7575,2.8605,0.0,2.9283,2.9792,2.9792,0.0,2.9792,2.9792,2.9792,2.9792,2.9792,2.9792,2.9792,2.9792,2.9792,2.9792,2.9792,2.9792,2.9792,2.9792,2.9792,2.9792,0.0,0.0,0.0,2.9792,2.9792,2.9792,2.9792,2.9792,2.9792,2.9792,2.9792,2.9792,2.9792,0.0,0.0,0.0,0.0,0.0,0.0,0.0,0.0,0.0,0.0,0.0,0.0,0.0,0.0,0.0,0.0,0.0,0.0,0.0,0.0,0.0,0.0,0.0,0.0,0.0,0.0,0.0,0.0,0.0,0.0,0.0,0.0,1.5096,0.0,0.0,0.0,0.0,0.0,0.0,0.0,1.7591,0.0,0.0,0.0,0.0,0.0,0.0,0.0,0.0,1.9414,1.9985,2.0744,1.9011,0.0,0.0,0.0,0.0,0.0,2.1344,2.0788,2.008,1.9978,1.9875,1.9798,1.9798,1.9798,1.9798,1.9798,1.9798,1.9823,1.9911,2.0276,2.0427,2.0012,2.1343,2.2671,2.3384,2.4139,2.51,2.6348,2.7203,0.0,2.9321,2.9641,2.9792,2.9792,0.0,2.9792,2.9792,2.9792,2.9792,2.9792,2.9792,2.9792,2.9792,2.9792,2.9792,2.9792,2.9792,2.9792,2.9792,2.9792,2.9792,2.9792,0.0,0.0,2.9792,2.9792,2.9792,2.9792,2.9792,2.9792,2.9792,2.9792,2.9792,2.9792,0.0,0.0,0.0,0.0,0.0,0.0,0.0,0.0,0.0,0.0,0.0,0.0,0.0,0.0,0.0,0.0,0.0,0.0,0.0,0.0,0.0,0.0,0.0,0.0,0.0,0.0,0.0,0.0,0.0,0.0,1.5682,1.5631,1.5668,0.0,0.0,0.0,1.7645,1.8147,1.8461,1.8675,1.9141,0.0,0.0,0.0,0.0,0.0,0.0,0.0,0.0,2.0326,2.0648,2.1502,2.0086,0.0,0.0,0.0,0.0,0.0,2.0508,2.0819,2.1292,2.077,2.022,1.9798,1.9798,1.9798,1.9798,1.9798,1.9798,1.9962,2.0465,2.0226,2.0088,2.049,2.192,2.3496,2.5008,2.6527,2.7231,2.6575,0.0,2.8969,2.7801,2.8982,2.9792,0.0,0.0,2.9792,2.9792,2.9792,2.9792,2.9792,2.9792,2.9792,2.9792,2.9792,2.9792,2.9792,2.9792,2.9792,2.9792,2.9792,2.9792,0.0,0.0,2.9792,2.9792,2.9792,2.9792,2.9792,2.9792,2.9792,2.9792,2.9792,2.9792,2.9792,0.0,0.0,0.0,0.0,0.0,0.0,0.0,0.0,0.0,0.0,0.0,0.0,0.0,0.0,0.0,0.0,0.0,0.0,0.0,0.0,0.0,0.0,0.0,0.0,0.0,0.0,0.0,0.0,0.0,1.5799,1.5814,1.6129,1.6675,1.7371,0.0,0.0,1.8807,1.9106,1.9289,1.935,0.0,0.0,0.0,0.0,0.0,0.0,0.0,0.0,0.0,0.0,2.121,2.253,2.094,0.0,0.0,0.0,0.0,0.0,2.1611,2.1344,2.1312,2.1728,2.1077,2.0258,1.9875,1.9798,1.9798,1.9798,1.9798,1.9974,2.0591,2.1038,2.1807,2.3279,2.328,2.3684,2.536,2.5762,2.6138,0.0,0.0,2.8504,2.8643,2.934,0.0,0.0,0.0,0.0,2.9792,2.9792,2.9792,2.9792,2.9792,2.9792,2.9792,2.9792,2.9792,2.9792,2.9792,2.9792,2.9792,2.9792,2.9792,2.9792,0.0,2.9792,2.9792,2.9792,2.9792,2.9792,2.9792,2.9792,2.9792,2.9792,2.9792,2.9792,0.0,0.0,0.0,0.0,0.0,0.0,0.0,0.0,0.0,0.0,0.0,0.0,0.0,0.0,0.0,0.0,0.0,0.0,0.0,0.0,0.0,0.0,0.0,0.0,0.0,0.0,1.5799,1.5799,1.5934,1.6091,1.6263,1.6719,1.7473,0.0,0.0,0.0,1.9468,1.9468,1.9564,1.9708,0.0,0.0,0.0,0.0,0.0,0.0,0.0,0.0,0.0,0.0,0.0,0.0,0.0,0.0,0.0,2.1653,2.1947,2.2637,2.2359,2.1776,2.1482,2.2457,2.1619,2.0472,2.0118,1.9914,1.9888,2.0207,2.0129,2.0293,2.1208,2.2286,2.3577,2.521,2.4542,2.4348,2.5971,2.5473,2.5686,2.7663,2.7889,2.8391,2.9685,2.9792,0.0,0.0,0.0,0.0,2.9792,2.9792,2.9792,2.9792,2.9792,2.9792,2.9792,2.9792,2.9792,2.9792,2.9792,2.9792,2.9792,2.9792,2.9792,2.9792,2.9792,2.9792,2.9792,2.9792,2.9792,2.9792,2.9792,2.9792,2.9792,2.9792,2.9792,2.9792,0.0,0.0,0.0,0.0,0.0,0.0,0.0,0.0,0.0,0.0,0.0,0.0,0.0,0.0,0.0,0.0,0.0,0.0,0.0,0.0,0.0,0.0,0.0,0.0,0.0,1.5463,1.5799,1.5799,1.6368,1.695,1.7556,1.7601,1.7675,1.7765,0.0,1.8147,1.8768,1.8768,1.913,1.9708,1.9708,0.0,0.0,0.0,0.0,0.0,0.0,0.0,0.0,0.0,0.0,0.0,0.0,0.0,2.1595,2.0388,2.1302,2.246,2.1339,2.1773,2.2596,2.2685,2.1269,2.0029,2.0597,2.0258,2.0143,2.1405,2.1107,2.1194,2.3049,2.391,2.4327,2.4238,2.5156,2.6358,2.7733,0.0,2.826,2.9484,2.9635,2.9666,2.9779,0.0,0.0,0.0,0.0,0.0,2.9792,2.9792,2.9792,2.9792,2.9792,2.9792,2.9792,2.9792,2.9792,2.9792,2.9792,2.9792,2.9792,2.9792,2.9792,2.9792,2.9792,2.9792,2.9792,2.9792,2.9792,2.9792,2.9792,2.9792,2.9792,2.9792,2.9792,2.9792,0.0,0.0,0.0,0.0,0.0,0.0,0.0,0.0,0.0,0.0,0.0,0.0,0.0,0.0,0.0,0.0,0.0,0.0,0.0,0.0,0.0,0.0,0.0,1.4804,1.4804,1.5462,1.5799,1.5799,1.6391,1.7264,1.8311,1.8311,0.0,0.0,1.8942,1.9076,1.9324,1.9324,1.9468,1.9708,1.9708,1.9708,0.0,0.0,0.0,0.0,0.0,0.0,0.0,0.0,2.2603,2.3127,0.0,2.2183,2.2078,2.0774,2.1495,2.2512,2.1623,2.2022,2.271,2.2704,2.183,2.0953,2.0833,2.0858,2.0849,2.0605,2.1263,2.2366,2.3991,2.5232,2.6003,2.609,2.6659,2.7528,2.8745,2.8448,2.8524,2.9654,2.9792,2.9792,0.0,0.0,0.0,0.0,0.0,0.0,2.9792,2.9792,2.9792,2.9792,2.9792,2.9792,2.9792,2.9792,2.9792,2.9792,2.9792,2.9792,2.9792,2.9792,2.9792,2.9792,2.9792,2.9792,2.9792,2.9792,2.9792,2.9792,2.9792,2.9792,2.9792,2.9792,2.9792,2.9792,0.0,0.0,0.0,0.0,0.0,0.0,0.0,0.0,0.0,0.0,0.0,0.0,0.0,0.0,0.0,0.0,0.0,0.0,0.0,0.0,0.0,0.0,0.0,1.5117,1.5117,1.5574,1.5799,1.5799,1.6622,1.7586,1.8694,0.0,0.0,0.0,1.9708,1.9708,1.9708,1.9708,1.9708,1.9708,1.9708,1.9708,0.0,0.0,0.0,0.0,0.0,0.0,0.0,0.0,2.2308,0.0,0.0,0.0,0.0,2.0907,2.15,2.2273,2.1814,2.2034,2.2479,2.2882,2.2495,2.1963,2.1765,2.1841,2.1896,2.1677,2.2983,2.4471,2.5406,2.6764,0.0,0.0,2.8122,2.8732,2.9328,2.8876,2.8831,2.9692,2.9792,0.0,0.0,0.0,0.0,0.0,0.0,0.0,0.0,2.9792,2.9792,2.9792,2.9792,2.9792,2.9792,2.9792,2.9792,2.9792,2.9792,2.9792,2.9792,2.9792,2.9792,2.9792,2.9792,2.9792,2.9792,2.9792,2.9792,2.9792,2.9792,2.9792,2.9792,2.9792,2.9792,2.9792,0.0,0.0,0.0,0.0,0.0,0.0,0.0,0.0,0.0,0.0,0.0,0.0,0.0,0.0,0.0,0.0,0.0,0.0,0.0,0.0,0.0,0.0,0.0,1.5799,1.5799,1.5799,1.5799,1.5814,1.7079,1.8042,1.8709,1.9384,0.0,0.0,0.0,1.9708,1.9708,1.9708,1.9708,1.9708,1.9708,1.9708,1.9708,0.0,0.0,0.0,0.0,0.0,0.0,0.0,2.1809,2.0937,0.0,0.0,0.0,0.0,2.1161,2.168,2.1695,2.1695,2.2009,2.3266,2.3141,2.2899,2.3569,2.3201,2.3283,2.5221,2.6682,2.7577,2.7508,2.8671,0.0,2.8453,2.9433,3.0097,2.9506,2.9399,2.9501,2.9776,2.9811,0.0,0.0,0.0,0.0,0.0,0.0,0.0,0.0,2.9792,2.9792,2.9792,2.9792,2.9792,2.9792,2.9792,2.9792,2.9792,2.9792,2.9792,2.9792,2.9792,2.9792,2.9792,2.9792,2.9792,2.9792,2.9792,2.9792,2.9792,2.9792,2.9792,2.9792,2.9792,2.9792,2.9792,0.0,0.0,0.0,0.0,0.0,0.0,0.0,0.0,0.0,0.0,0.0,0.0,0.0,0.0,0.0,0.0,0.0,0.0,0.0,0.0,0.0,0.0,0.0,0.0,0.0,0.0,1.6009,1.6435,1.7287,1.8042,0.0,0.0,0.0,1.9708,0.0,0.0,1.9708,1.9708,1.9708,1.9708,1.9708,1.9708,1.9708,0.0,0.0,0.0,0.0,0.0,0.0,0.0,0.0,0.0,0.0,0.0,0.0,2.0643,2.0847,2.1101,2.1575,2.2049,2.2378,2.2288,2.3161,2.4093,2.4285,2.4505,2.5099,2.6624,2.6838,2.7079,2.8082,2.9267,0.0,2.9315,2.9828,3.0374,3.057,2.9896,2.9564,3.0026,0.0,0.0,0.0,0.0,0.0,0.0,0.0,0.0,0.0,2.9792,2.9792,2.9792,2.9792,2.9792,2.9792,2.9792,2.9792,2.9792,2.9792,2.9792,2.9792,2.9792,2.9792,2.9792,2.9792,2.9792,2.9792,2.9792,2.9792,2.9792,2.9792,2.9792,2.9792,2.9792,2.9792,2.9792,0.0,0.0,0.0,0.0,0.0,0.0,0.0,0.0,0.0,0.0,0.0,0.0,0.0,0.0,0.0,0.0,0.0,0.0,0.0,0.0,0.0,0.0,0.0,0.0,0.0,1.5799,1.6106,0.0,0.0,0.0,0.0,0.0,0.0,1.9708,0.0,1.9708,0.0,1.9708,1.9708,1.9708,1.9708,1.9708,1.9708,0.0,0.0,0.0,0.0,0.0,0.0,0.0,0.0,0.0,2.0273,0.0,2.0703,2.0703,2.0892,2.1246,2.1914,2.2198,2.2333,2.2438,2.3539,2.4814,2.5603,2.6073,2.6709,2.8068,2.7973,2.8105,2.9491,3.0305,0.0,3.0393,3.0585,3.0847,3.1072,3.0513,3.015,3.0342,0.0,0.0,0.0,0.0,0.0,0.0,0.0,0.0,0.0,2.9792,2.9792,2.9792,2.9792,2.9792,2.9792,2.9792,2.9792,2.9792,2.9792,2.9792,2.9792,2.9792,2.9792,2.9792,2.9792,2.9792,2.9792,2.9792,2.9792,2.9792,2.9792,2.9792,2.9792,2.9792,2.9792,2.9792,0.0,0.0,0.0,0.0,0.0,0.0,0.0,0.0,0.0,0.0,0.0,0.0,0.0,0.0,0.0,0.0,0.0,0.0,0.0,0.0,0.0,0.0,0.0,0.0,0.0,0.0,0.0,0.0,0.0,0.0,0.0,0.0,1.9708,1.9708,0.0,1.9708,1.9708,1.9708,1.9708,1.9708,1.9708,1.9708,1.9708,1.9708,0.0,0.0,0.0,0.0,0.0,0.0,0.0,0.0,2.0593,2.0757,2.0703,2.0763,2.1186,2.1764,2.2433,2.2213,2.2069,2.3231,2.4107,2.5199,2.7165,2.76,2.7974,2.9324,2.9593,2.9997,3.1271,3.1511,3.1511,3.1511,3.1511,3.1412,3.117,3.1129,3.0995,0.0,0.0,0.0,0.0,0.0,0.0,0.0,0.0,0.0,0.0,2.9767,2.9792,2.9792,2.9792,2.9792,2.9792,2.9792,2.9792,2.9792,2.9741,2.9716,2.9716,2.9767,2.9792,2.9792,2.9792,2.9792,2.9792,2.9792,2.9792,2.9792,2.9792,2.9792,2.9792,2.9792,2.9792,2.9792,0.0,0.0,0.0,0.0,0.0,0.0,0.0,0.0,0.0,0.0,0.0,0.0,0.0,0.0,0.0,0.0,0.0,0.0,0.0,0.0,0.0,0.0,0.0,0.0,0.0,0.0,0.0,0.0,0.0,0.0,0.0,0.0,0.0,1.9708,0.0,1.9708,1.9708,1.9708,1.9708,1.9708,1.9708,1.9708,1.9708,1.9708,1.9708,0.0,0.0,0.0,0.0,0.0,0.0,0.0,2.144,2.1116,2.0802,2.1335,2.1206,2.1057,2.1724,2.2183,2.2553,2.2823,2.4148,2.5767,2.727,2.76,2.7974,2.9324,2.9593,2.9997,3.1271,3.1511,3.1511,3.1511,3.1511,3.1468,3.1427,3.1239,3.1075,0.0,0.0,0.0,0.0,0.0,0.0,0.0,0.0,0.0,2.9095,2.9541,2.9792,2.9792,2.9792,2.9792,2.9792,2.9792,2.9792,0.0,2.9321,2.9095,2.9107,2.9578,2.9792,2.9792,2.9792,2.9792,2.9792,2.9792,2.9792,2.9792,2.9792,2.9792,2.9792,2.9792,2.9792,2.9792,0.0,0.0,0.0,0.0,0.0,0.0,0.0,0.0,0.0,0.0,0.0,0.0,0.0,0.0,0.0,0.0,0.0,0.0,0.0,0.0,0.0,0.0,0.0,0.0,0.0,0.0,0.0,0.0,0.0,0.0,0.0,0.0,0.0,1.9708,0.0,1.9708,1.9708,1.9708,1.9708,1.9708,1.9708,1.9708,1.9708,1.9708,1.9708,1.9708,1.9708,0.0,0.0,0.0,0.0,0.0,0.0,0.0,2.1176,2.1206,2.0967,2.0922,2.1914,2.2198,2.2438,2.337,2.4612,2.5869,2.6884,2.7375,2.7884,2.8904,2.9383,2.9892,3.0852,3.1286,3.1511,3.1511,3.1511,3.1511,3.1511,3.1383,0.0,0.0,0.0,0.0,0.0,0.0,0.0,0.0,0.0,2.8959,2.8536,2.8825,2.8988,2.8988,2.8988,2.8988,2.8988,2.8988,2.8988,2.8976,2.8668,2.8518,2.853,2.885,2.8988,2.9001,2.9264,2.9377,2.9383,2.9679,2.9792,2.9792,2.9792,2.9792,2.9792,2.9792,2.9792,2.9792,0.0,0.0,0.0,0.0,0.0,0.0,0.0,0.0,0.0,0.0,0.0,0.0,0.0,0.0,0.0,0.0,0.0,0.0,0.0,0.0,0.0,0.0,0.0,0.0,0.0,0.0,0.0,0.0,0.0,0.0,0.0,0.0,0.0,1.9708,0.0,1.9708,1.9708,1.9708,1.9708,1.9708,1.9708,1.9708,1.9708,1.9708,1.9708,1.9708,1.9708,1.9774,1.9983,2.0653,0.0,0.0,0.0,0.0,2.156,2.0907,2.0703,2.0937,2.2049,2.2124,2.2308,2.4141,2.5098,2.5779,2.645,2.7121,2.7764,2.8321,2.8964,2.9653,3.0372,3.0957,3.1376,3.1481,3.1511,3.1511,3.1511,3.1511,0.0,0.0,0.0,0.0,0.0,0.0,0.0,0.0,0.0,2.9092,2.8205,2.8402,2.8393,2.8109,2.8261,2.8261,2.8109,2.8109,2.8109,2.8109,2.8009,2.7908,2.7821,2.7821,2.7921,2.8134,2.8568,2.8769,2.8806,2.9302,2.9553,2.9641,2.9641,2.9704,2.9792,2.9792,2.9792,2.9792,0.0,0.0,0.0,0.0,0.0,0.0,0.0,0.0,0.0,0.0,0.0,0.0,0.0,0.0,0.0,0.0,0.0,0.0,1.4789,0.0,0.0,1.5799,1.5799,0.0,0.0,0.0,0.0,0.0,0.0,0.0,0.0,0.0,0.0,1.9708,0.0,1.9708,1.9708,1.9708,1.9708,1.9708,1.9708,1.9708,1.9708,1.9708,1.9708,1.9708,1.9708,2.0064,2.0668,2.1335,2.1944,0.0,0.0,0.0,2.156,2.0907,2.0703,2.0742,2.0922,2.1749,2.2887,2.4261,2.5098,2.5779,2.645,2.7121,2.7642,2.772,2.8261,2.9101,3.0283,3.0568,3.0822,3.1406,3.1511,3.1511,3.1511,3.1511,0.0,0.0,0.0,0.0,0.0,0.0,0.0,0.0,2.9898,2.9365,2.8485,2.9596,2.9609,2.8152,2.8836,2.8871,2.8109,2.8109,2.8109,2.8097,2.762,2.716,2.6713,2.6713,2.7223,2.8109,2.8185,2.821,2.8204,2.8298,2.8593,2.9019,2.9019,2.9333,2.9792,2.9792,2.9792,2.9792,0.0,0.0,0.0,0.0,0.0,0.0,0.0,0.0,0.0,0.0,0.0,0.0,0.0,0.0,0.0,1.4333,1.4975,1.5357,1.5357,1.5649,1.5799,1.5799,1.5799,1.5799,0.0,0.0,0.0,0.0,0.0,0.0,0.0,1.9564,1.9708,0.0,0.0,0.0,0.0,1.9708,1.9708,1.9708,1.9708,1.9923,2.0228,1.9833,1.9938,2.0213,1.9833,0.0,2.0303,2.135,2.1899,2.2209,2.2583,0.0,0.0,0.0,2.0703,2.0778,2.1161,2.1959,2.2927,2.3808,2.453,2.5229,2.5899,2.6569,2.7151,2.7525,2.7839,2.8321,2.9265,2.9744,3.0088,3.0387,3.0447,3.0538,3.0897,3.0942,0.0,0.0,0.0,0.0,0.0,0.0,0.0,0.0,3.016,2.9692,2.8825,2.9362,2.9378,2.8624,2.898,2.8758,2.7881,2.7876,2.7664,2.7198,2.6947,2.6738,2.6499,2.6499,2.6763,2.7223,2.7507,2.7645,2.767,2.7984,2.8247,2.8442,2.8442,2.8794,2.9296,2.9296,2.9515,2.9792,0.0,0.0,0.0,0.0,0.0,0.0,0.0,0.0,0.0,0.0,0.0,0.0,0.0,0.0,0.0,0.0,1.5507,1.5799,1.5799,1.5799,1.5799,1.5799,1.5799,1.5866,1.6031,0.0,0.0,0.0,0.0,0.0,1.9708,1.9708,1.9708,0.0,1.9708,1.9708,0.0,0.0,1.9708,1.9708,1.9893,2.0258,2.0658,2.0333,2.0513,2.0862,2.0183,0.0,0.0,0.0,2.156,2.1794,2.2298,2.2448,0.0,0.0,0.0,2.0817,2.1321,2.1944,2.2588,2.3216,2.3853,2.4515,2.5199,2.5869,2.6539,0.0,2.7345,2.7542,2.8216,2.8889,2.9398,2.9563,2.9593,2.9758,3.0208,3.0268,0.0,0.0,0.0,0.0,0.0,0.0,0.0,0.0,3.0599,3.0238,2.938,2.952,2.9442,2.9018,2.9207,2.8812,2.7703,2.7501,2.7078,2.6499,2.6499,2.6499,2.6499,2.6499,2.6499,2.6512,2.6909,2.7097,2.7123,2.7537,2.777,2.7896,2.7896,2.8217,2.8706,2.8706,2.907,2.9578,0.0,0.0,0.0,0.0,0.0,0.0,0.0,0.0,0.0,0.0,0.0,0.0,0.0,1.4348,1.502,1.5694,1.5784,1.5799,1.5799,1.5799,1.5799,1.5799,1.5799,0.0,1.6644,0.0,0.0,0.0,0.0,0.0,1.9708,1.9708,1.9708,1.9708,1.9708,1.9708,1.9708,0.0,0.0,0.0,2.0384,2.0668,2.0772,2.1365,0.0,0.0,0.0,0.0,0.0,0.0,0.0,0.0,0.0,2.1749,2.1605,0.0,0.0,0.0,2.0742,2.1246,2.1914,2.2583,2.3201,2.3834,2.45,2.5173,2.5839,2.6509,2.6644,2.6854,2.7525,2.8201,2.8861,2.9503,2.9593,2.9608,2.9638,2.9638,0.0,0.0,0.0,0.0,0.0,0.0,0.0,0.0,3.1438,3.1073,3.0284,3.097,3.0644,2.905,2.9812,2.9426,2.772,2.6939,2.6538,2.6499,2.6499,2.6499,2.6499,2.6499,2.6499,2.6499,2.6524,2.6537,2.6537,2.6562,2.6889,2.7336,2.7336,2.7657,2.8147,2.8147,2.848,2.8957,0.0,0.0,0.0,0.0,0.0,0.0,0.0,0.0,0.0,0.0,0.0,0.0,0.0,1.375,1.443,1.5095,1.5552,1.5799,1.5799,1.5799,1.5799,1.5799,1.6174,1.648,1.6696,1.7122,0.0,0.0,0.0,1.9031,1.9708,1.9708,1.9708,1.9708,1.9708,1.9708,1.9708,1.9708,0.0,0.0,0.0,0.0,0.0,0.0,0.0,0.0,0.0,0.0,0.0,0.0,0.0,0.0,0.0,0.0,0.0,2.0907,2.0399,2.0154,2.0578,2.0877,2.1221,2.1884,2.2543,2.3186,2.3819,2.4481,2.5143,2.5812,2.5959,2.6153,2.6824,2.751,2.8036,2.8289,2.8319,2.8468,2.8904,2.8951,0.0,0.0,0.0,0.0,0.0,0.0,0.0,0.0,0.0,3.138,3.1087,3.1351,3.1219,3.0614,3.0911,3.0253,2.8556,2.7687,2.7007,2.6499,2.6499,2.6499,2.6499,2.6499,2.6499,2.6499,2.6499,2.6499,2.6499,2.6499,2.6612,2.6788,2.6788,2.711,2.76,2.76,2.7921,2.843,0.0,0.0,0.0,0.0,0.0,0.0,0.0,0.0,0.0,0.0,0.0,0.0,0.0,0.0,1.4162,1.5065,1.5537,1.5799,1.5799,1.5799,1.5799,1.5799,1.6189,1.6495,1.6696,0.0,0.0,0.0,0.0,0.0,0.0,1.9708,1.9708,1.9708,1.9708,1.9708,0.0,0.0,0.0,2.0718,0.0,0.0,2.2628,0.0,0.0,0.0,0.0,0.0,0.0,0.0,0.0,0.0,0.0,0.0,0.0,0.0,2.0372,2.0372,2.0363,2.0533,2.0817,2.1261,2.1695,2.2243,2.3097,2.364,2.4212,2.5068,2.5259,2.5468,2.6138,2.6629,2.7091,2.7525,2.76,2.7764,2.8201,2.8248,0.0,0.0,0.0,0.0,0.0,0.0,0.0,0.0,0.0,0.0,3.1152,3.1152,3.1271,3.1496,3.1234,3.0419,2.9018,2.8149,2.73,2.6499,2.6499,2.6499,2.6499,2.6499,2.6499,2.6499,2.6499,2.6499,2.6499,2.6499,2.6499,2.6499,2.6499,2.6713,2.7022,2.7022,2.7374,2.7883,0.0,0.0,0.0,0.0,0.0,0.0,0.0,0.0,0.0,0.0,0.0,0.0,0.0,0.0,0.0,1.5671,1.5799,1.5799,1.5799,1.5799,1.5799,1.5799,1.5829,1.6106,1.6689,0.0,0.0,0.0,0.0,0.0,0.0,0.0,1.9708,1.9708,1.9708,1.9708,1.9729,0.0,2.0118,2.0787,0.0,2.2139,2.2823,0.0,0.0,0.0,2.2972,2.2733,0.0,2.1974,0.0,0.0,0.0,0.0,0.0,0.0,0.0,2.136,0.0,0.0,0.0,2.0668,2.0688,2.1042,2.2333,2.2673,2.3052,2.4291,2.456,2.4784,2.5453,2.5573,2.6004,2.733,2.7555,2.757,2.757,2.7585,0.0,0.0,0.0,0.0,0.0,0.0,0.0,0.0,2.9578,2.9862,3.0447,3.0477,3.0762,3.1421,3.0689,2.9862,2.8994,2.8128,2.7282,2.6471,2.6466,2.6449,2.6449,2.6449,2.6449,2.6461,2.6461,2.6474,2.6499,2.6499,2.6499,2.6499,2.6499,2.6499,2.6499,2.6499,2.6839,2.7273,0.0,0.0,0.0,0.0,0.0,0.0,0.0,0.0,0.0,0.0,0.0,0.0,0.0,0.0,1.4871,1.5724,1.5799,1.5799,1.5799,1.5799,1.5799,1.5799,1.6211,1.6532,1.6696,0.0,0.0,0.0,0.0,0.0,0.0,0.0,0.0,0.0,1.9708,1.9968,2.0413,2.0413,0.0,2.1485,2.2154,2.3097,0.0,0.0,0.0,0.0,0.0,2.3475,2.2748,0.0,2.1944,2.0582,0.0,0.0,0.0,0.0,0.0,0.0,1.9803,0.0,0.0,0.0,0.0,0.0,2.1171,2.2004,2.2808,2.3156,2.3565,2.4077,2.4754,2.4874,2.5158,2.6019,2.6569,2.6869,2.6869,2.73,0.0,0.0,0.0,0.0,0.0,0.0,0.0,0.0,2.9324,2.9668,2.9832,2.9847,2.9937,3.0118,2.9909,2.9373,2.8493,2.7734,2.6909,2.6057,2.5525,2.5272,2.5272,2.5272,2.5473,2.5854,2.5854,2.6109,2.6499,2.6499,2.6499,2.6499,2.6499,2.6499,2.6499,2.6499,2.6587,2.6788,0.0,0.0,0.0,0.0,0.0,0.0,0.0,0.0,0.0,0.0,0.0,0.0,0.0,0.0,0.0,1.5769,1.5799,1.5799,1.5799,1.5799,1.5799,1.5799,1.6383,1.6696,1.6696,1.7735,0.0,0.0,0.0,0.0,0.0,0.0,0.0,0.0,0.0,0.0,0.0,0.0,0.0,0.0,2.2538,0.0,0.0,2.4167,2.4676,0.0,0.0,0.0,2.3965,2.4313,2.3056,0.0,0.0,0.0,0.0,0.0,0.0,0.0,0.0,1.9708,0.0,0.0,0.0,0.0,2.0982,2.1724,2.2423,0.0,2.3366,2.3729,2.4107,2.4182,2.4317,2.4691,2.533,2.5869,2.6138,2.6524,0.0,0.0,0.0,0.0,0.0,2.7946,2.8186,2.8186,2.853,2.8903,2.9174,2.9443,2.9593,2.9593,2.9593,2.9181,2.8311,2.7866,2.7061,2.5891,2.5461,2.51,2.4804,2.4804,2.4967,2.5285,2.5498,2.5804,2.6147,2.6399,2.6499,2.6521,2.6871,2.7007,2.704,2.7417,2.7537,2.759,0.0,0.0,0.0,0.0,0.0,0.0,0.0,0.0,0.0,0.0,0.0,0.0,0.0,0.0,0.0,0.0,1.5799,1.5799,1.5799,1.5799,0.0,1.5799,1.6383,1.6696,1.6696,1.7436,0.0,0.0,0.0,0.0,0.0,0.0,0.0,0.0,0.0,0.0,0.0,0.0,0.0,2.2703,2.2763,2.3565,0.0,0.0,2.5173,2.5812,2.5812,2.5734,2.5573,2.5435,2.4597,0.0,0.0,0.0,0.0,0.0,2.0348,0.0,0.0,0.0,0.0,0.0,0.0,0.0,2.1211,2.154,2.1904,0.0,2.334,2.3385,2.3385,2.3385,2.3385,2.3385,2.3958,2.4649,2.5393,2.5543,2.5812,0.0,0.0,0.0,2.733,2.745,2.748,2.748,2.7555,2.7869,2.8457,2.9054,2.9382,2.9382,2.9382,2.9014,2.8237,2.8138,2.738,2.5954,2.5799,2.5376,2.4744,2.4648,2.4653,2.4741,2.5285,2.5536,2.5653,2.6248,2.6538,2.6696,2.7417,2.7769,2.7937,2.8716,2.9002,2.9002,1.1805,0.0,0.0,0.0,0.0,0.0,0.0,0.0,0.0,0.0,0.0,0.0,0.0,0.0,0.0,0.0,1.5799,1.5799,1.5799,1.5799,0.0,1.5799,1.6383,1.6696,1.6696,1.7893,0.0,0.0,0.0,0.0,0.0,0.0,0.0,0.0,0.0,0.0,0.0,0.0,0.0,2.2748,2.3231,0.0,2.5408,2.5408,2.6153,2.721,2.721,2.6524,2.5438,2.4358,2.3819,2.3475,0.0,0.0,0.0,2.139,0.0,0.0,0.0,0.0,0.0,0.0,0.0,0.0,2.0028,2.0513,2.0967,0.0,2.1695,2.2069,2.2069,2.2069,2.2069,2.2069,2.2633,2.3475,2.4634,2.5259,2.5648,0.0,0.0,0.0,2.5974,2.6479,2.6794,2.6794,2.73,2.766,2.7794,2.7914,2.7989,2.7989,2.7989,2.791,2.7728,2.7152,2.6681,2.6367,2.5175,2.4534,2.4385,2.3725,2.37,2.4192,2.4716,2.5193,2.5653,2.6248,2.6871,2.7484,2.7637,2.8133,2.8764,2.8939,2.9002,2.9002,1.1805,0.0,0.0,0.0,0.0,0.0,0.0,0.0,0.0,0.0,0.0,0.0,0.0,0.0,0.0,0.0,0.0,0.0,0.0,0.0,0.0,1.5799,1.6436,1.6919,1.7182,1.8245,0.0,0.0,0.0,0.0,0.0,0.0,0.0,0.0,0.0,0.0,0.0,0.0,2.2573,2.3171,2.3486,0.0,2.5633,2.5974,2.6719,2.76,2.76,2.7165,2.645,2.5447,2.4657,0.0,0.0,2.2483,2.1635,0.0,2.144,2.162,0.0,0.0,0.0,2.1191,0.0,0.0,0.0,2.0707,2.0793,2.1131,2.147,2.1695,2.1695,2.1695,2.1695,2.1695,2.2258,2.2812,2.3105,2.3988,2.4732,0.0,0.0,0.0,2.5558,2.5899,2.6093,2.6093,2.6719,2.7106,2.7106,2.742,2.76,2.76,2.76,2.76,2.76,2.7242,2.6865,2.6497,2.5384,2.4667,2.4292,2.3884,2.3637,2.362,2.4938,2.5636,2.5923,2.6853,2.7946,2.8955,2.8524,2.8876,2.969,3.0103,3.0253,3.0253,1.1805,0.0,0.0,0.0,0.0,0.0,0.0,0.0,0.0,0.0,0.0,0.0,0.0,0.0,0.0,0.0,0.0,0.0,0.0,0.0,0.0,1.6173,1.6866,1.7514,1.8079,1.8725,0.0,0.0,0.0,0.0,0.0,0.0,0.0,0.0,0.0,0.0,0.0,0.0,0.0,2.361,0.0,2.4436,2.5483,2.6153,2.6899,2.7615,2.775,2.7794,2.7675,2.6869,2.5708,2.447,2.367,2.2722,0.0,0.0,0.0,0.0,0.0,0.0,0.0,0.0,0.0,2.0847,0.0,0.0,0.0,2.1201,2.1315,2.1315,2.1315,0.0,0.0,0.0,0.0,0.0,0.0,2.2249,0.0,2.3947,0.0,0.0,0.0,2.5046,2.5196,2.5573,2.5854,2.6135,2.639,2.7046,2.7405,2.7405,2.7525,2.76,2.76,2.76,2.7306,2.6708,2.5824,2.5091,2.4509,2.4364,2.3943,2.3435,2.5357,2.6231,2.6402,2.7535,2.891,3.0238,2.9535,2.9781,3.0614,3.1263,3.1511,3.1511,1.1805,1.1805,0.0,0.0,0.0,0.0,0.0,0.0,0.0,0.0,0.0,0.0,0.0,0.0,0.0,0.0,0.0,0.0,1.6733,0.0,0.0,0.0,1.8127,1.8791,1.9459,1.9555,0.0,0.0,0.0,0.0,0.0,0.0,0.0,0.0,2.1061,0.0,0.0,0.0,2.3052,0.0,2.4257,2.459,0.0,2.5468,2.6509,2.7675,2.8263,2.8487,2.8293,0.0,2.5708,2.4395,0.0,2.2703,2.2343,2.1071,0.0,0.0,0.0,0.0,0.0,0.0,2.1635,0.0,0.0,0.0,1.9842,1.9908,0.0,1.9932,0.0,0.0,0.0,0.0,0.0,0.0,2.0467,2.0276,2.0612,2.1874,0.0,0.0,0.0,2.3032,2.374,2.5468,2.4567,2.4462,2.5648,2.6348,2.6704,2.6704,2.7285,2.76,2.76,2.76,2.7562,2.7458,2.6067,2.5356,2.5245,2.4595,2.4249,2.4232,2.5617,2.6524,2.7129,2.775,2.891,3.0299,3.0193,3.0644,3.138,3.1467,3.1511,3.1511,1.1805,1.1805,1.2218,0.0,0.0,0.0,0.0,0.0,0.0,0.0,0.0,0.0,0.0,0.0,0.0,0.0,0.0,1.7598,0.0,0.0,0.0,0.0,0.0,0.0,0.0,1.8275,1.8612,0.0,1.9234,0.0,0.0,0.0,0.0,0.0,2.0872,0.0,2.1929,0.0,2.3366,0.0,0.0,0.0,0.0,2.6635,2.7931,2.8798,2.9084,2.8934,2.8517,0.0,2.6351,0.0,0.0,0.0,0.0,0.0,0.0,0.0,0.0,0.0,0.0,0.0,0.0,0.0,2.0787,0.0,1.9708,0.0,0.0,0.0,0.0,0.0,0.0,0.0,2.1038,0.0,0.0,0.0,2.0899,0.0,0.0,0.0,0.0,0.0,0.0,0.0,2.4272,2.4436,2.4993,2.5659,2.6198,2.6584,2.6869,2.721,2.76,2.76,2.76,2.7587,2.6094,2.5618,2.6014,2.5273,2.4937,2.5021,2.6405,2.7349,2.7953,2.8627,2.9755,3.0999,3.0999,3.1205,3.1511,3.1511,3.1511,3.1511,1.1805,1.1805,1.2158,0.0,0.0,0.0,0.0,0.0,0.0,0.0,0.0,0.0,1.6166,1.6729,0.0,0.0,1.8515,1.8634,0.0,0.0,1.8104,0.0,0.0,0.0,0.0,0.0,1.7977,0.0,0.0,0.0,0.0,0.0,0.0,0.0,0.0,2.1335,2.2478,0.0,2.3804,2.4253,2.542,2.5902,2.6156,2.7934,2.9129,2.9847,2.9847,2.952,2.9041,2.8502,2.6916,0.0,2.5869,0.0,0.0,0.0,0.0,0.0,2.1485,0.0,0.0,0.0,0.0,0.0,0.0,0.0,0.0,0.0,0.0,0.0,0.0,0.0,0.0,0.0,0.0,2.1182,0.0,2.0327,0.0,0.0,0.0,0.0,0.0,0.0,0.0,2.3056,2.3539,2.3962,2.4306,2.4948,2.5543,2.6033,2.6408,2.6824,2.733,2.751,2.76,2.7587,2.6309,2.5987,2.6484,2.596,2.5701,2.5769,2.706,2.8032,2.8761,2.9359,3.0357,3.1511,3.1511,3.1511,3.1511,3.1511,3.1511,3.1511,1.1805,1.1805,1.202,0.0,0.0,0.0,0.0,0.0,0.0,0.0,0.0,0.0,0.0,0.0,0.0,0.0,0.0,2.1097,2.0471,0.0,2.0178,0.0,0.0,1.8876,0.0,0.0,1.8351,1.8902,0.0,0.0,0.0,0.0,0.0,0.0,0.0,2.1086,2.1809,2.3071,2.4358,2.56,2.6288,2.7722,2.9383,0.0,2.9385,3.0477,3.0477,0.0,0.0,2.8274,2.7138,0.0,0.0,0.0,0.0,0.0,0.0,0.0,0.0,0.0,0.0,2.1869,0.0,0.0,0.0,0.0,1.9708,0.0,0.0,0.0,0.0,0.0,0.0,0.0,0.0,0.0,0.0,0.0,0.0,0.0,0.0,0.0,0.0,0.0,0.0,2.1665,2.1784,2.2323,2.3565,2.4261,2.4649,2.4653,2.5929,2.6614,2.6629,2.7285,2.76,2.76,2.6826,2.6484,2.6497,2.6484,2.6457,2.651,2.7267,2.8351,2.9566,2.9593,3.0357,3.1511,3.1511,3.1511,3.1511,3.1511,3.1511,3.1511,1.1805,1.2155,1.2534,1.2765,0.0,0.0,0.0,1.5249,0.0,0.0,0.0,0.0,0.0,1.9921,2.0826,0.0,0.0,2.2417,2.2236,2.1072,0.0,0.0,0.0,1.7681,0.0,0.0,1.7302,1.7847,1.7847,0.0,0.0,0.0,0.0,0.0,0.0,2.1311,0.0,0.0,0.0,0.0,0.0,2.7675,2.8349,0.0,0.0,3.1152,3.1152,3.0882,0.0,2.9744,2.8515,2.7258,2.7245,2.6025,2.4649,2.4855,2.4451,0.0,0.0,0.0,2.3599,2.2084,0.0,0.0,0.0,0.0,0.0,0.0,0.0,0.0,0.0,0.0,0.0,0.0,0.0,0.0,0.0,0.0,0.0,0.0,0.0,0.0,0.0,0.0,0.0,2.1684,2.2473,2.3146,2.358,2.3819,2.4141,2.459,2.5468,2.6153,2.6599,2.727,2.76,2.76,2.6852,2.6761,2.7201,2.6721,2.6774,2.7242,2.7484,2.8364,2.9593,2.9593,3.0357,3.1511,3.1511,3.1511,3.1511,3.1511,3.1511,3.1511,1.2463,1.2669,1.2795,0.0,0.0,0.0,0.0,0.0,0.0,0.0,1.7425,0.0,1.9851,0.0,2.1655,0.0,2.3304,2.331,2.2585,2.192,0.0,2.1006,1.907,0.0,0.0,0.0,0.0,1.7889,1.7489,1.7565,0.0,0.0,0.0,0.0,0.0,2.0793,2.2126,2.3603,2.4609,0.0,0.0,2.7994,0.0,0.0,3.0298,3.0882,0.0,3.1212,3.0822,3.0582,2.9683,2.8665,2.8889,2.7619,2.6111,2.6545,2.5884,2.4923,2.4448,2.4631,0.0,2.2817,2.2707,0.0,2.0806,0.0,0.0,0.0,0.0,0.0,0.0,0.0,0.0,0.0,0.0,0.0,0.0,1.856,0.0,0.0,0.0,0.0,0.0,0.0,2.11,2.1888,2.2555,2.3116,0.0,0.0,2.3804,2.4231,2.4889,2.5558,2.6243,2.6914,2.736,2.76,2.7126,2.7137,2.7587,2.7113,2.7152,2.76,2.76,2.8364,2.9593,2.9593,3.0357,3.1511,3.1511,3.1511,3.1511,3.1511,3.1511,3.1511,1.3637,1.3277,0.0,0.0,1.394,0.0,0.0,0.0,1.577,0.0,1.7856,1.8462,1.9768,2.1832,2.2964,2.2539,2.3963,2.3988,2.1884,2.2621,0.0,0.0,2.1081,2.1218,2.227,0.0,0.0,1.8955,1.7818,1.7514,0.0,0.0,0.0,0.0,1.8631,0.0,2.1005,2.2754,2.3898,2.4652,2.6673,2.8614,3.0291,3.0437,3.0078,2.9703,3.1018,3.1511,3.1406,3.0762,3.0537,3.0402,2.9832,2.9189,2.8652,2.8652,2.8171,2.7375,2.6093,2.5722,2.5379,2.4029,0.0,0.0,0.0,0.0,2.1605,0.0,0.0,0.0,0.0,0.0,0.0,0.0,0.0,0.0,0.0,0.0,0.0,0.0,0.0,0.0,0.0,1.8777,1.9455,2.2093,2.1952,2.2279,0.0,0.0,2.3535,2.3595,2.4246,2.4918,2.5588,2.6258,2.6929,2.76,2.76,2.76,2.76,2.76,2.76,2.76,2.76,2.8364,2.9593,2.9593,3.0357,3.1511,3.1511,3.1511,3.1511,3.1511,3.1511,3.1511,1.3252,1.3579,1.3927,0.0,1.4384,1.434,0.0,0.0,0.0,0.0,1.9941,2.1443,2.3799,2.458,2.505,2.5393,2.582,0.0,0.0,0.0,0.0,2.4519,2.2462,2.1606,2.2282,1.9999,0.0,1.8415,1.7259,1.6784,1.6919,0.0,0.0,0.0,0.0,0.0,2.207,2.2154,2.3564,2.5824,2.6857,2.7225,0.0,0.0,2.9639,2.8881,3.0817,3.1511,3.1466,3.1301,3.0912,3.0477,3.0313,2.9834,2.9338,2.9338,2.8874,2.8263,2.7919,2.7467,2.6764,2.542,2.5091,2.4747,0.0,0.0,0.0,0.0,0.0,0.0,0.0,0.0,0.0,0.0,0.0,0.0,0.0,0.0,0.0,1.78,0.0,0.0,1.7965,1.9563,2.0671,2.0758,2.1664,2.2619,2.3541,0.0,0.0,2.3565,2.4246,2.4918,2.5588,2.6258,2.6929,2.76,2.76,2.76,2.76,2.76,2.76,2.76,2.76,2.8364,2.9593,2.9593,3.0357,3.1511,3.1511,3.1511,3.1511,3.1511,3.1511,3.1511,1.3663,1.4031,0.0,1.4767,0.0,0.0,1.5337,1.5294,0.0,1.8907,2.0131,0.0,2.4227,2.5598,2.657,2.7148,2.7198,0.0,2.5816,0.0,0.0,2.4921,2.412,2.3706,2.374,2.1567,0.0,1.9296,0.0,0.0,1.6511,0.0,0.0,0.0,0.0,1.8818,2.0659,2.1323,2.3271,2.595,2.6494,0.0,0.0,2.9111,2.9493,2.9333,3.0543,3.1205,3.1511,3.1511,3.1241,3.0942,3.0942,3.0493,2.9997,2.9997,2.9548,2.9039,2.9039,2.8545,2.7857,2.7096,2.6692,2.6123,2.4777,2.4477,2.4298,0.0,0.0,0.0,0.0,0.0,0.0,0.0,0.0,0.0,0.0,0.0,0.0,0.0,1.8272,0.0,1.7592,2.0001,2.1268,2.0405,2.1235,2.1826,0.0,0.0,0.0,2.2752,2.3684,2.447,2.5169,2.5839,2.6509,2.7165,2.7465,2.76,2.76,2.76,2.76,2.76,2.76,2.8199,2.9189,2.9473,3.0178,3.1091,3.1391,3.1511,3.1511,3.1511,3.1511,3.1511,1.4159,1.4298,0.0,0.0,0.0,0.0,0.0,1.5866,0.0,1.897,0.0,2.1443,2.3434,2.59,2.7582,2.8059,0.0,2.7276,2.5356,2.7025,2.7042,2.4644,2.5866,2.6336,2.5724,2.3627,2.192,0.0,0.0,0.0,0.0,0.0,0.0,0.0,0.0,0.0,0.0,2.0628,2.3011,2.5449,2.5783,2.7041,2.8684,2.8796,2.9301,2.9996,3.0223,3.0822,3.1511,3.1511,3.1511,3.1467,3.138,3.0934,3.0472,3.0472,3.0039,2.959,2.9686,2.9234,2.8712,2.8622,2.8156,2.7405,2.6153,2.5869,2.5663,2.4993,2.3509,2.2757,0.0,0.0,0.0,0.0,0.0,0.0,0.0,0.0,0.0,0.0,0.0,0.0,0.0,1.9987,2.1185,2.0397,2.0623,2.0579,0.0,0.0,0.0,2.1944,2.3011,0.0,2.459,0.0,2.5944,2.6614,2.7285,2.76,2.76,2.76,2.76,2.76,2.76,2.7976,2.8652,2.9324,3.0012,3.0687,3.1271,3.1511,3.1511,3.1511,3.1511,3.1511,1.3095,0.0,0.0,0.0,0.0,1.7263,1.7887,1.923,2.0684,2.2158,2.4092,2.5628,2.6465,2.7394,2.7996,2.8097,2.8109,0.0,0.0,0.0,0.0,2.7406,2.7248,2.6896,2.6348,2.461,2.2726,0.0,0.0,0.0,0.0,0.0,0.0,0.0,0.0,0.0,1.961,2.0942,0.0,2.4931,2.4992,2.5777,2.7007,2.7687,2.8019,2.833,2.9781,3.0822,3.1511,3.1511,3.1511,3.138,3.0733,3.0422,3.035,3.035,2.9871,2.9493,3.0146,2.9879,2.9294,2.8742,2.8502,2.8216,2.7423,2.7255,2.7048,2.639,2.5974,2.5192,2.3366,0.0,0.0,0.0,0.0,0.0,0.0,0.0,0.0,0.0,0.0,1.9403,0.0,0.0,1.9784,1.9526,1.9666,0.0,0.0,0.0,0.0,0.0,2.3475,0.0,0.0,0.0,2.5944,2.6614,2.7285,2.76,2.76,2.76,2.76,2.76,2.76,2.7976,2.8652,2.9324,3.0283,3.1331,3.1451,3.1511,3.1511,3.1511,3.1511,3.1511,1.255,0.0,0.0,0.0,0.0,0.0,0.0,2.2385,0.0,2.3145,2.433,2.5515,2.6344,2.7682,2.8631,2.895,2.8976,2.8976,2.8976,2.8976,2.885,2.853,2.8009,2.7462,2.6939,2.5552,2.3618,2.1105,0.0,0.0,0.0,0.0,0.0,0.0,0.0,1.7966,0.0,0.0,0.0,2.3985,2.4854,2.5741,2.6538,2.6922,2.7334,2.7819,2.8652,2.9489,3.0269,3.0733,3.0881,3.0807,3.0419,3.0299,3.0299,3.0299,3.0366,3.0426,3.0397,3.0241,2.9997,2.9669,2.9086,2.8517,2.8186,2.7854,2.751,2.7195,2.6839,2.5791,2.3182,2.1762,0.0,0.0,0.0,0.0,0.0,0.0,0.0,0.0,0.0,0.0,0.0,0.0,0.0,0.0,0.0,0.0,0.0,0.0,0.0,0.0,0.0,0.0,0.0,0.0,0.0,2.6093,2.7121,2.76,2.76,2.76,2.76,2.76,2.76,2.7779,2.8156,2.9174,3.0148,3.1017,3.1361,3.1511,3.1511,3.1511,3.1511,3.1511,0.0,1.3023,0.0,0.0,1.8607,0.0,2.2769,2.4729,2.5485,2.4177,2.4503,2.5234,2.6201,2.7966,2.9283,2.9754,2.9792,2.9792,2.9792,2.9792,2.9591,2.912,2.8442,2.7896,2.7487,2.6369,2.456,0.0,0.0,0.0,0.0,0.0,0.0,0.0,0.0,0.0,0.0,0.0,2.2822,2.3763,2.5071,2.5954,2.6499,2.6499,2.6888,2.7467,2.7637,2.8149,2.8828,2.952,2.9873,2.9996,2.9812,2.9873,3.0011,3.0011,3.0479,3.0911,3.0629,3.0514,3.0459,3.0495,2.9744,2.8936,2.8667,2.8186,2.7764,2.763,2.7076,2.5926,2.3721,2.2877,0.0,0.0,0.0,0.0,0.0,0.0,0.0,0.0,0.0,0.0,1.9051,0.0,0.0,0.0,0.0,0.0,0.0,0.0,0.0,0.0,0.0,2.3191,2.3191,0.0,2.5603,0.0,2.6958,2.76,2.76,2.76,2.76,2.76,2.76,2.7675,2.7914,2.9112,2.9967,3.0567,3.1241,3.1511,3.1511,3.1511,3.1511,3.1511,0.0,0.0,0.0,0.0,0.0,0.0,2.3058,2.541,2.7085,2.6934,2.7381,2.7928,2.853,2.9264,2.9729,2.9811,2.9792,2.9792,2.9792,2.9792,2.9767,2.9716,2.8674,2.8084,2.8034,2.6959,2.5556,0.0,0.0,0.0,0.0,0.0,0.0,0.0,0.0,0.0,0.0,2.2182,2.3489,2.5372,2.5536,2.5954,2.6499,2.6499,2.6538,2.6714,2.7434,2.7753,2.7835,2.792,2.846,2.8987,2.8198,2.8492,2.9129,2.9129,2.9176,2.9551,3.0999,3.0852,3.0351,3.0473,3.0417,3.0028,2.8861,2.8547,2.8323,2.772,2.7076,2.6333,2.5495,2.5285,2.4818,0.0,0.0,0.0,0.0,0.0,2.2864,2.1743,0.0,0.0,0.0,1.996,0.0,0.0,1.9749,0.0,0.0,0.0,0.0,2.1669,0.0,2.1874,2.1874,2.4358,2.5603,2.5618,2.6958,2.76,2.76,2.76,2.76,2.76,2.76,2.7931,2.8562,2.9294,2.9967,3.0567,3.1241,3.1511,3.1511,3.1511,3.1511,3.1511,0.0,0.0,0.0,0.0,0.0,0.0,0.0,2.6854,2.7896,2.8217,2.8442,2.8794,2.939,2.9654,2.9792,2.9792,2.9792,2.9792,2.9792,2.9792,2.9792,2.9792,2.9026,2.843,2.8109,2.7361,2.6005,0.0,0.0,0.0,0.0,0.0,0.0,0.0,0.0,2.1266,2.2383,2.3715,2.4782,2.5624,2.5992,2.6285,2.6499,2.6499,2.6499,2.6538,2.6867,2.6973,2.6973,2.6973,2.7534,2.8165,2.7819,2.7937,2.8314,2.886,2.9364,2.9935,3.0599,3.0896,3.1043,3.108,3.0792,3.0268,2.9398,2.8891,2.8412,2.7735,2.739,2.6988,2.6318,2.5857,2.5423,0.0,0.0,0.0,0.0,0.0,0.0,2.2951,0.0,2.1544,0.0,2.055,2.0396,2.0845,0.0,0.0,0.0,0.0,0.0,2.169,0.0,2.3026,2.3449,2.4885,2.5809,2.6213,2.7151,2.76,2.76,2.76,2.76,2.76,2.76,2.775,2.8081,2.9159,2.9743,3.0058,3.1092,3.1511,3.1511,3.1511,3.1511,3.1511,1.9685,0.0,2.1077,0.0,2.4695,2.5598,2.7482,2.8097,2.853,2.9095,2.9157,2.934,2.9741,2.9792,2.9792,2.9792,2.9792,2.9792,2.9792,2.9792,2.9792,2.9792,2.922,0.0,2.8109,2.7557,2.6457,2.4736,2.3065,0.0,0.0,0.0,0.0,0.0,2.2006,2.2809,2.3361,2.4933,2.5703,2.5904,2.6336,2.6499,2.6499,2.6499,2.6499,2.6499,2.6499,2.6499,2.6499,2.6499,2.6871,2.7351,2.7351,2.7517,2.7819,2.8443,2.9239,2.9965,3.0238,3.0703,3.1205,3.1438,3.1137,3.0628,3.0012,2.9368,2.865,2.7779,2.76,2.745,2.6973,2.6509,2.6123,2.5929,0.0,0.0,0.0,0.0,0.0,0.0,2.2483,2.1779,2.1974,2.1169,2.0835,0.0,0.0,0.0,0.0,0.0,0.0,0.0,0.0,0.0,0.0,2.5079,2.5944,2.6614,2.7285,2.76,2.76,2.76,2.76,2.76,2.76,2.76,2.7705,2.9052,2.9593,2.9728,3.1002,3.1511,3.1511,3.1511,3.1511,3.1511,2.183,2.2681,2.3935,2.6771,2.7261,2.762,2.8718,2.8894,2.9107,2.9704,2.9779,2.9779,2.9792,2.9792,2.9792,2.9792,2.9792,2.9792,2.9792,2.9792,2.9792,0.0,0.0,2.8656,2.8109,2.7557,2.7022,2.6461,0.0,0.0,2.3904,0.0,2.2019,2.3058,2.3083,2.4014,2.5548,2.5586,2.5942,2.6487,2.6499,2.6499,2.6499,2.6499,2.6499,2.6499,2.6499,2.6499,2.6499,2.6499,2.6516,2.6516,2.6516,2.7074,2.7703,2.7703,2.833,2.9207,3.0072,3.0314,3.0509,3.1292,3.1496,3.1316,3.0643,3.0013,2.9204,2.7869,2.76,2.76,2.7585,2.7585,2.736,2.6704,0.0,0.0,0.0,0.0,0.0,2.3684,2.2483,2.1959,2.2628,2.2089,0.0,0.0,0.0,0.0,0.0,0.0,0.0,2.1695,2.171,0.0,2.2718,2.4642,2.5944,2.6614,2.7285,2.76,2.76,2.76,2.76,2.76,2.76,2.76,2.7705,2.9052,2.9593,2.9728,3.1002,3.1511,3.1511,3.1511,3.1511,3.1511,2.4937,2.5603,2.6239,2.7148,2.7908,2.8505,2.8856,2.9245,2.9578,2.9767,2.9792,2.9792,2.9792,2.9792,2.9792,0.0,2.9792,2.9792,0.0,2.9792,2.9792,2.9792,2.9616,2.9233,2.8668,2.8122,2.7587,2.7052,0.0,0.0,0.0,2.2847,2.3198,2.4261,2.4641,2.5109,2.5624,2.603,2.6323,2.6499,2.6499,2.6499,2.6499,2.6499,2.6499,2.6499,2.6499,2.6499,2.6499,2.6499,2.6499,2.6499,2.6499,2.6692,2.699,2.7537,2.8314,2.9192,3.0057,3.0688,3.119,3.1438,3.1511,3.1316,3.0643,2.9684,2.88,2.838,2.7916,2.76,2.76,2.76,2.7525,2.7315,2.7285,0.0,0.0,0.0,0.0,2.4421,2.3917,2.3584,0.0,2.3116,0.0,0.0,0.0,0.0,0.0,0.0,0.0,0.0,2.2986,0.0,2.4672,2.5734,2.6614,2.7285,2.7495,2.76,2.76,2.76,2.76,2.76,2.76,2.76,2.7705,2.9052,2.9593,2.9728,3.1002,3.1511,3.1511,3.1511,3.1511,3.1511,2.6424,2.6939,2.7361,2.7575,2.8317,2.8982,2.9195,2.9566,2.9792,2.9792,2.9792,2.9792,2.9792,2.9792,0.0,2.9792,2.9792,2.9792,2.9792,2.9792,2.9792,2.9792,2.9792,2.9528,2.8919,0.0,0.0,2.7298,2.5716,2.4748,2.4381,2.4381,2.4757,2.5448,2.5791,2.5942,2.5954,2.6336,2.6499,2.6499,2.6499,2.6499,2.6499,2.6499,2.6499,2.6499,2.6499,2.6499,2.6499,2.6499,2.6499,2.6499,2.6499,2.6499,2.6607,2.7095,2.7838,2.87,2.9566,3.0419,3.1117,3.1423,3.1511,3.1316,3.0643,2.9879,2.9175,2.8697,2.8276,2.7899,2.7645,2.76,2.76,2.76,2.76,2.745,2.7033,0.0,0.0,0.0,0.0,0.0,0.0,2.3744,2.3599,0.0,0.0,0.0,0.0,0.0,0.0,2.2791,2.3962,0.0,2.5974,2.639,2.6929,2.76,2.76,2.76,2.76,2.76,2.76,2.76,2.76,2.775,2.8051,2.9144,2.9728,3.0042,3.1091,3.1511,3.1511,3.1511,3.1511,3.1511,2.6499,2.6947,0.0,0.0,2.858,0.0,2.9704,2.9792,2.9792,2.9792,2.9792,2.9792,2.9792,2.9733,2.9702,2.9792,0.0,0.0,0.0,2.9792,2.9792,2.9792,2.9721,2.9413,2.8856,2.8806,2.8312,2.7298,2.6801,2.6537,2.6499,2.6499,2.6499,2.6499,2.6499,2.6499,2.6499,2.6499,2.6499,2.6499,2.6499,2.6499,2.6499,2.6499,2.6499,2.6499,2.6499,2.6499,2.6499,2.6499,2.6499,2.6499,2.6499,2.6499,2.6499,2.6499,2.7061,2.7871,2.8684,2.9582,3.0479,3.1234,3.1423,3.1259,3.0632,3.0453,3.0094,2.8968,2.8667,2.8412,2.7779,2.763,2.76,2.76,2.76,2.76,2.76,0.0,0.0,0.0,0.0,0.0,0.0,2.4107,2.4223,0.0,0.0,0.0,0.0,0.0,2.2702,2.4605,2.4709,2.5349,2.6584,2.6644,2.6973,2.76,2.76,2.76,2.76,2.76,2.76,2.76,2.76,2.7976,2.8652,2.9324,2.9967,3.0567,3.1241,3.1511,3.1511,3.1511,3.1511,3.1511,0.0,0.0,2.7946,2.8084,2.8925,2.9641,2.9779,2.9792,2.9792,2.9792,2.9792,2.9792,2.9792,2.9028,2.8846,2.9721,2.9792,2.9792,2.9792,2.9792,2.9792,2.9792,2.8956,2.8437,2.8285,2.7876,2.7554,2.7298,2.7173,2.6901,2.6499,2.6499,2.6499,2.6499,2.6499,2.6499,2.6499,2.6499,2.6499,2.6499,2.6499,2.6499,2.6499,2.6499,2.6499,2.6499,2.6499,2.6499,2.6499,2.6499,2.6499,2.6499,2.6499,2.6499,2.6499,2.6499,2.7061,2.7753,2.7953,2.9129,3.0344,3.0539,3.0584,3.054,3.038,2.9958,2.9666,2.9994,2.928,2.8547,2.8382,2.7959,2.76,2.76,2.76,2.76,2.76,2.7465,0.0,0.0,2.609,2.5749,2.5408,2.5214,2.4825,0.0,0.0,0.0,0.0,2.349,2.3834,2.5319,2.5869,2.6273,2.6599,2.7121,2.7435,2.76,2.76,2.76,2.76,2.76,2.76,2.76,2.76,2.7976,2.8652,2.9324,2.9967,3.0567,3.1241,3.1511,3.1511,3.1511,3.1511,3.1511,2.5891,2.6483,2.728,2.7986,2.802,2.8382,2.9606,2.9365,2.9028,2.9028,2.9475,2.9417,2.8403,2.8187,2.8148,2.8271,2.8291,2.8502,2.8988,2.8561,2.8291,2.8291,2.7706,2.7371,2.7371,2.7073,2.6936,2.6926,2.6651,2.6508,2.6499,2.6499,2.6499,2.6499,2.6499,2.6499,2.6499,2.6499,2.6499,2.6499,2.6499,2.6499,2.6499,2.6499,2.6499,2.6499,2.6499,2.6499,2.6499,2.6499,2.6499,2.6499,2.6499,2.6499,2.6499,2.6499,2.6816,2.7229,2.7604,2.8379,2.9301,3.0103,2.9996,2.9919,3.0659,3.0278,2.99,3.0398,2.9953,2.9295,2.8712,2.8306,2.7959,2.7645,2.7091,2.6899,2.751,2.7063,0.0,2.7031,2.7048,2.6914,2.6554,2.6509,2.621,2.5477,0.0,0.0,2.5432,2.5432,2.5626,2.6033,2.6408,2.6749,2.7048,2.742,2.76,2.76,2.76,2.76,2.76,2.76,2.76,2.7615,2.7916,2.844,2.9114,2.9758,3.0387,3.0987,3.1361,3.1511,3.1511,3.1511,3.1511,3.1511,2.5141,2.5318,2.6031,2.7507,2.6669,2.6559,2.8856,2.843,2.7864,2.7864,2.87,2.8593,2.6709,2.7157,2.7299,2.6554,2.6182,2.6522,2.7783,2.7005,2.6504,2.6504,2.6338,2.6245,2.6245,2.6245,2.6278,2.6357,2.5941,2.5943,2.6357,2.6455,2.6499,2.6499,2.6499,2.6499,2.6499,2.6499,2.6499,2.6499,2.6499,2.6499,2.6499,2.6499,2.6499,2.6499,2.6499,2.6499,2.6499,2.6499,2.6499,2.6499,2.6499,2.6499,2.6499,2.6499,2.6499,2.6658,2.7334,2.7604,2.8068,2.9535,2.9442,2.9364,3.0807,3.0688,3.0379,3.0592,3.0567,3.0178,2.9086,2.8727,2.8353,2.757,2.6584,2.6228,2.7165,0.0,2.6318,2.7465,2.76,2.76,2.76,2.76,2.76,2.76,2.76,2.76,0.0,2.76,2.7345,2.6764,2.6749,2.7018,2.7585,2.76,2.76,2.76,2.76,2.76,2.76,2.76,2.7549,2.7478,2.8122,2.8791,2.9473,3.0071,3.0711,3.1322,3.1322,3.1322,3.1292,3.1175,3.1278,3.1467,2.4862,2.4742,2.4877,2.5971,2.5951,2.5935,2.6354,2.661,2.676,2.676,2.6903,2.6894,2.6545,2.5797,2.5619,2.6431,2.4744,2.452,2.6616,2.6595,2.6504,2.6504,2.5567,2.5062,2.5062,2.5062,2.5297,2.5737,2.6158,2.6144,2.5744,2.627,2.6499,2.6499,2.6499,2.6499,2.6499,2.6499,2.6499,2.6499,2.6499,2.6499,2.6499,2.6499,2.6499,2.6499,2.6499,2.6499,2.6499,2.6499,2.6499,2.6499,2.6499,2.6499,2.6499,2.6499,2.6499,2.6521,2.6658,2.7179,2.7769,2.8035,2.8556,2.9066,2.9333,2.9858,3.0495,3.1202,3.0897,3.0447,3.0238,2.9325,2.8188,2.6958,2.7061,2.6971,2.6033,0.0,2.736,2.757,2.76,2.76,2.76,2.76,2.76,2.76,2.76,2.76,2.76,2.76,2.754,2.745,2.745,2.7495,2.76,2.76,2.76,2.76,2.76,2.76,2.76,2.76,2.7267,2.6698,2.7252,2.7901,2.8637,2.9233,2.9885,3.0494,3.0494,3.0494,3.0389,2.9659,3.0284,3.1394,2.3404,2.3211,2.3479,2.4779,2.4075,2.389,2.5554,2.5477,2.5348,2.5556,2.612,2.6016,2.4808,2.4755,2.4755,2.4681,2.3702,2.356,2.4606,2.4659,2.4659,2.4659,2.4156,2.3877,2.3877,2.3877,2.4165,2.4732,2.4755,2.5062,2.5607,2.5665,2.599,2.6499,2.6499,2.6499,2.6499,2.6499,2.6499,2.6499,2.6499,2.6499,2.6499,2.6499,2.6499,2.6499,2.6499,2.6499,2.6499,2.6499,2.6499,2.6499,2.6499,2.6499,2.6499,2.6499,2.6499,2.6499,2.6499,2.6765,2.7162,2.7587,2.7687,2.7887,2.8796,2.9317,2.9843,3.0673,3.0953,3.0927,3.0567,3.0028,2.9205,2.7889,2.7333,0.0,0.0,2.6584,2.6794,2.751,2.76,2.76,2.76,2.76,2.76,2.76,2.76,2.76,2.76,2.76,2.76,2.76,2.76,2.76,2.76,2.76,2.76,2.76,2.76,2.76,2.76,2.719,2.6974,2.696,2.7606,2.8267,2.8958,3.0046,3.0411,3.0299,3.0299,3.0011,2.9613,2.9675,3.0193,3.0851,2.2103,2.1811,2.2124,2.3519,2.2327,2.199,2.4371,2.4109,2.3805,2.4208,2.5019,2.4946,2.3268,2.3877,2.4049,2.3178,2.3091,2.3091,2.3091,2.3091,2.3091,2.3091,2.3091,2.3091,2.3091,2.3091,2.3337,2.3792,2.3566,2.4141,2.5401,2.5239,2.5632,2.6499,2.6499,2.6499,2.6499,2.6499,2.6499,2.6499,2.6499,2.6499,2.6499,2.6499,2.6499,2.6499,2.6499,2.6499,2.6499,2.6499,2.6499,2.6499,2.6499,2.6499,2.6499,2.6499,2.6499,2.6499,2.6499,2.6499,2.6658,2.728,2.7095,2.7112,2.8395,2.886,2.9192,2.9858,3.0494,3.0764,3.0249,3.0186,2.981,2.8506,0.0,0.0,0.0,2.6749,2.6617,2.7495,2.76,2.76,2.76,2.76,2.76,2.76,2.76,2.76,2.76,2.76,2.76,2.76,2.76,2.76,2.76,2.76,2.76,2.76,2.76,2.7511,2.7331,2.6761,2.6612,2.6821,2.7527,2.8177,2.8843,3.0099,3.0253,2.969,2.969,2.9286,2.878,2.9442,2.995,3.0389,2.1849,2.1298,2.1021,2.2004,2.1625,2.127,2.151,2.1844,2.2205,2.2627,2.274,2.2876,2.3074,2.3178,2.32,2.3113,2.3091,2.3091,2.3091,2.3091,2.3091,2.3091,2.3091,2.3091,2.3091,2.3091,2.3125,2.3183,2.3697,2.4259,2.4876,2.5338,2.5882,2.6499,2.6499,2.6499,2.6499,2.6499,2.6499,2.6499,2.6499,2.6499,2.6499,2.6499,2.6499,2.6499,2.6499,2.6499,2.6499,2.6499,2.6499,2.6499,2.6499,2.6499,2.6499,2.6499,2.6499,2.6499,2.6499,2.6499,2.6516,2.6572,2.7095,2.7637,2.7769,2.8411,2.9018,2.9081,2.9144,2.9178,2.912,2.9259,2.8944,2.7605,0.0,0.0,2.6929,2.7649,2.8201,2.766,2.76,2.76,2.76,2.76,2.76,2.76,2.76,2.76,2.76,2.76,2.76,2.76,2.76,2.76,2.76,2.76,2.76,2.76,2.76,2.7242,2.6576,2.6523,2.605,2.5296,2.5839,2.6454,2.7112,2.773,2.7953,2.7887,2.7887,2.7838,2.7802,2.7871,2.8907,3.0314,2.1059,2.0847,2.0712,2.1078,2.0966,2.0908,2.1151,2.1357,2.1641,2.207,2.2129,2.2285,2.2684,2.2732,2.283,2.3071,2.3091,2.3091,2.3091,2.3091,2.3091,2.3091,2.3091,2.3091,2.3091,2.3091,2.3091,2.3091,2.3069,2.335,2.387,2.3825,2.4431,2.5564,2.5564,2.5921,2.6499,2.6499,2.6499,2.6499,2.6499,2.6499,2.6499,2.6499,2.6499,2.6499,2.6499,2.6499,2.6499,2.6499,2.6499,2.6499,2.6499,2.6499,2.6499,2.6499,2.6499,2.6499,2.6499,2.6499,2.6499,2.6499,2.6731,2.6956,2.6956,2.7604,2.8198,2.8198,2.862,2.9002,2.9002,2.9506,2.9621,2.8699,0.0,2.9759,2.862,2.8904,2.9129,2.8873,2.8843,2.8843,2.8843,2.8843,2.8843,2.8843,2.8455,2.8216,2.8216,2.7824,2.76,2.76,2.76,2.76,2.76,2.76,2.76,2.76,2.7139,2.6774,2.6498,2.6465,2.6138,2.566,2.6831,2.7346,2.7452,2.8201,2.8198,2.7703,2.7703,2.7401,2.7078,2.8117,2.8939,2.9566,2.0605,2.0605,2.0605,2.0605,2.0605,2.0693,2.0977,2.1005,2.1162,2.1621,2.168,2.1846,2.2266,2.2314,2.241,2.2703,2.2723,2.2723,2.2723,2.2723,2.2781,2.2918,2.2791,2.2723,2.2723,2.2723,2.2723,2.2723,2.2461,2.2579,2.3102,2.2838,2.3346,2.4528,2.4528,2.4904,2.5581,2.5891,2.6025,2.606,2.6366,2.6499,2.6499,2.6499,2.6499,2.6499,2.6499,2.6499,2.6499,2.6499,2.6499,2.6499,2.6499,2.6499,2.6499,2.6499,2.6499,2.6499,2.6499,2.6499,2.6499,2.6499,2.6499,2.6499,2.6499,2.6922,2.7317,2.7317,2.7802,2.8214,2.8214,2.8907,2.9333,2.8866,2.9724,3.0214,2.9593,2.9727,2.9817,2.9623,2.9593,2.9593,2.9593,2.9593,2.9593,2.9593,2.9174,2.8816,2.8607,2.8156,2.7824,2.76,2.76,2.7484,2.7267,2.7471,2.7471,2.7255,2.6734,2.6343,2.6063,2.6016,2.5925,2.5862,2.692,2.7359,2.7367,2.7969,2.7855,2.7317,2.7317,2.699,2.6675,2.8068,2.8588,2.8744,2.0605,2.0605,2.0605,2.0605,2.0605,2.0605,2.0605,2.0605,2.0742,2.1132,2.119,2.1376,2.1836,2.1896,2.1905,2.1905,2.1905,2.1905,2.1905,2.1905,2.207,2.2459,2.2109,2.1905,2.1905,2.1905,2.1905,2.1905,2.1905,2.216,2.2691,2.2691,2.2976,2.3478,2.3478,2.3496,2.358,2.4582,2.4987,2.5087,2.6094,2.6499,2.6499,2.6499,2.6499,2.6499,2.6499,2.6499,2.6499,2.6499,2.6499,2.6499,2.6499,2.6499,2.6499,2.6499,2.6499,2.6499,2.6499,2.6499,2.6499,2.6499,2.6499,2.6499,2.6499,2.6499,2.6499,2.6499,2.6499,2.6499,2.6499,2.7162,2.7703,2.7703,2.9176,3.0068,2.9404,2.9998,3.0283,2.9683,2.9608,2.9608,2.9608,2.9608,2.9608,2.9608,2.9608,2.9309,2.8637,2.8607,2.8306,2.763,2.7627,2.7269,2.6525,2.7242,2.7229,2.6511,2.6511,2.6008,2.5103,2.5103,2.5286,2.5598,2.5615,2.5942,2.6499,2.6499,2.6499,2.6499,2.6499,2.6499,2.6607,2.7401,2.7716,2.7898,2.0605,2.0605,2.0605,2.0605,2.0605,2.0605,2.0605,2.0605,2.0635,2.0772,2.0781,2.0937,2.1357,2.1405,2.1532,2.1876,2.1905,2.1905,2.1905,2.1581,2.1464,2.157,2.1787,2.1905,2.1905,2.1905,2.1905,2.1905,2.1905,2.1814,2.164,2.164,2.1929,2.2459,2.2459,2.285,2.358,2.4582,2.4987,2.5087,2.6094,2.6499,2.6499,2.6499,2.6499,2.6499,2.6499,2.6499,2.6499,2.6499,2.6751,2.7123,2.7494,2.7361,2.7047,2.7047,2.6801,2.6499,2.6499,2.6499,2.6499,2.6499,2.6499,2.6499,2.6499,2.6499,2.6499,2.6499,2.6499,2.6499,2.6499,2.7653,2.8604,2.8604,2.9551,3.0227,3.0024,3.0219,3.0294,3.0119,3.0598,3.0927,3.0927,3.0927,3.0927,3.0927,3.0507,2.9953,2.9338,2.9294,2.9204,2.9022,2.9007,2.8901,2.8672,2.7961,2.7163,2.6287,2.6287,2.6077,2.5682,2.615,2.6071,2.5661,2.6641,2.6857,2.6499,2.6499,2.6499,2.6499,2.6499,2.6499,2.6644,2.7831,2.8253,2.8366,2.0527,2.0605,2.0469,2.004,2.0323,2.0459,2.004,2.0323,2.045,2.0021,1.9962,1.9899,1.9683,1.965,1.9771,2.006,2.0078,2.0078,2.0078,1.9808,1.965,1.965,2.0365,2.0943,2.1378,2.1387,2.1387,2.1387,2.1387,2.125,2.0947,2.0947,2.1144,2.1451,2.1451,2.1783,2.2414,2.3397,2.3818,2.3945,2.5341,2.5921,2.5943,2.6349,2.6499,2.6499,2.6499,2.6637,2.6826,2.6826,2.7173,2.767,2.7996,2.7871,2.7607,2.7607,2.7386,2.7123,2.7123,2.7123,2.7123,2.7123,2.6813,2.6499,2.6499,2.6499,2.6499,2.6499,2.6499,2.6499,2.6499,2.7334,2.8002,2.8002,2.8716,2.927,2.927,2.9873,3.0178,2.9827,3.0524,3.1029,3.1029,3.1029,3.1161,3.1467,3.0834,3.0144,2.951,2.9157,2.8997,2.9085,2.8749,2.8594,2.8651,2.7797,2.7099,2.6596,2.6259,2.5971,2.5813,2.6194,2.6229,2.6001,2.6869,2.6956,2.6499,2.6499,2.6499,2.6499,2.6499,2.6625,2.6903,2.7734,2.817,2.8424,2.0245,2.0459,2.0147,1.9175,1.9805,2.0099,1.9016,1.9678,1.9962,1.8977,1.8858,1.845,1.7423,1.7302,1.7302,1.7302,1.7302,1.7302,1.7302,1.7302,1.7362,1.7464,1.845,1.95,2.0586,2.0605,2.0605,2.0605,2.0605,2.0605,2.0605,2.0605,2.0605,2.0605,2.0605,2.0605,2.0663,2.1612,2.1989,2.2178,2.4192,2.4987,2.5123,2.6112,2.6499,2.6499,2.6549,2.6889,2.7311,2.7412,2.7758,2.8185,2.8235,2.8204,2.8185,2.8185,2.8147,2.8109,2.8109,2.8109,2.8109,2.8109,2.7374,2.6625,2.6575,2.6524,2.6499,2.6499,2.6499,2.6499,2.6499,2.6555,2.6607,2.6607,2.7229,2.7703,2.7703,2.9066,2.9781,2.8987,2.9644,3.0208,3.0299,3.0374,3.0644,3.1234,3.0659,2.9994,2.9301,2.8524,2.8168,2.8369,2.7584,2.7242,2.7359,2.7167,2.7064,2.7052,2.6325,2.5871,2.5674,2.5674,2.5979,2.6499,2.6499,2.6499,2.6499,2.6499,2.6499,2.6499,2.6549,2.6876,2.7311,2.7412,2.7745,2.8242,1.9135,1.9342,1.9274,1.9036,1.9195,1.8977,1.7839,1.7868,1.792,1.7698,1.7666,1.7577,1.7342,1.7302,1.7302,1.7302,1.7302,1.7302,1.7302,1.7302,1.7698,1.859,1.8877,1.95,2.0586,2.0605,2.0605,2.0605,2.0605,2.0605,2.0605,2.0605,2.0605,2.0605,2.0605,2.0605,2.0663,2.1612,2.1989,2.2178,2.4192,2.4987,2.5123,2.6112,2.6499,2.6549,2.6989,2.7198,2.7437,2.8267,2.8631,2.8806,2.9277,2.9114,2.8731,2.8731,2.843,2.8109,2.8109,2.8109,2.8109,2.8109,2.7921,2.7632,2.7223,2.6801,2.6499,2.6499,2.6499,2.6499,2.6499,2.7007,2.7434,2.7434,2.7587,2.7703,2.7703,2.8035,2.8198,2.8002,2.8748,2.9551,3.0238,3.0866,3.0777,2.9628,3.0011,2.9939,2.9106,2.8887,2.8803,2.8849,2.8664,2.8586,2.8616,2.7891,2.7003,2.5942,2.6335,2.645,2.6298,2.6298,2.6373,2.6499,2.6499,2.6499,2.6499,2.6499,2.6499,2.6537,2.6947,2.7198,2.7412,2.8229,2.8631,2.8819,1.7954,1.8189,1.802,1.7516,1.7839,1.7819,1.6703,1.6968,1.7111,1.6601,1.6539,1.6334,1.5835,1.578,1.578,1.578,1.578,1.578,1.578,1.578,1.6041,1.665,1.7151,1.794,1.9007,1.9559,2.0089,2.0605,2.0605,2.0605,2.0605,2.0605,2.0605,2.0605,2.0605,2.0605,2.0625,2.1116,2.1336,2.147,2.2973,2.3854,2.4337,2.4874,2.5657,2.651,2.6565,2.7222,2.8197,2.9032,2.9321,2.9371,2.9691,2.9578,2.9321,2.9321,2.9139,2.8913,2.8913,2.8913,2.8913,2.8913,2.8699,2.8267,2.7487,2.7072,2.6813,2.6549,2.6499,2.6499,2.6499,2.685,2.7129,2.7129,2.7129,2.7129,2.7129,2.7467,2.7554,2.7162,2.7871,2.8556,2.9018,2.9827,2.9935,2.9066,2.905,2.886,2.8395,2.8019,2.7986,2.8363,2.8002,2.7986,2.8379,2.7537,2.6752,2.6017,2.6411,2.6561,2.6499,2.6499,2.6499,2.6499,2.6499,2.6499,2.6499,2.6499,2.665,2.6914,2.7185,2.7607,2.8134,2.8693,2.9082,2.9371,1.6701,1.6989,1.6744,1.5861,1.6437,1.6662,1.5579,1.6178,1.6424,1.5545,1.5442,1.5095,1.4208,1.4109,1.4109,1.4109,1.4109,1.4109,1.4109,1.4109,1.4187,1.437,1.5241,1.6293,1.7565,1.8519,1.952,2.0605,2.0605,2.0605,2.0605,2.0605,2.0605,2.0605,2.0605,2.0605,2.0605,2.0605,2.0605,2.0673,2.1631,2.2497,2.3257,2.3423,2.463,2.6233,2.6015,2.7279,2.9132,2.9628,2.9792,2.9792,2.9792,2.9792,2.9792,2.9792,2.9792,2.9792,2.9792,2.9792,2.9792,2.9792,2.9428,2.8794,2.7795,2.7437,2.7173,2.6738,2.6562,2.6499,2.6499,2.6499,2.6499,2.6499,2.6499,2.6499,2.6499,2.7061,2.7246,2.6572,2.7213,2.7653,2.7517,2.8411,2.8876,2.8588,2.8035,2.7637,2.7501,2.6867,2.6816,2.7467,2.685,2.6816,2.7501,2.6833,2.6499,2.6499,2.6499,2.6499,2.6499,2.6499,2.6499,2.6499,2.6499,2.6549,2.6637,2.6637,2.6947,2.7449,2.755,2.8122,2.8919,2.9019,2.9377,2.9792,1.5338,1.5754,1.5861,1.5724,1.582,1.5538,1.4468,1.4433,1.4475,1.4328,1.4307,1.4271,1.413,1.4109,1.4109,1.4109,1.4109,1.4109,1.4109,1.4109,1.451,1.5434,1.5621,1.6654,1.8738,1.8917,1.952,2.0605,2.0605,2.0605,2.0605,2.0605,2.0605,2.0605,2.0605,2.0605,2.0605,2.0605,2.0605,2.0673,2.1631,2.2084,2.2309,2.3165,2.4199,2.5313,2.6185,2.786,2.9691,2.9767,2.9792,2.9792,2.9792,2.9792,2.9792,2.9792,2.9792,2.9792,2.9792,2.9792,2.9792,2.9792,2.9729,2.9503,2.8831,2.7971,2.7273,2.7198,2.6826,2.6499,2.6499,2.6499,2.6499,2.6499,2.6499,2.6499,2.6499,2.6589,2.6624,2.6516,2.7213,2.7434,2.6731,2.8084,2.8395,2.6956,2.7367,2.7401,2.6696,2.6555,2.6538,2.6658,2.6555,2.6538,2.6658,2.6538,2.6499,2.6499,2.6499,2.6499,2.6499,2.6499,2.6499,2.6499,2.6499,2.6763,2.7185,2.7185,2.7512,2.8047,2.8493,2.8781,2.8969,2.949,2.9729,2.9792,1.4182,1.4438,1.4586,1.4761,1.4817,1.4657,1.4166,1.4109,1.4109,1.4109,1.4109,1.4109,1.4109,1.4109,1.4109,1.4109,1.4109,1.4109,1.4109,1.4109,1.4307,1.4796,1.4817,1.5545,1.7123,1.7738,1.859,1.9707,2.0304,2.0605,2.0605,2.0605,2.0605,2.0605,2.0605,2.0605,2.0605,2.0605,2.0605,2.0644,2.1039,2.1536,2.1989,2.1916,2.2824,2.4373,2.6015,2.7969,2.9792,2.9792,2.9792,2.9792,2.9792,2.9792,2.9792,2.9792,2.9792,2.9792,2.9792,2.9792,2.9792,2.9792,2.9792,2.9729,2.9446,2.8787,2.8021,2.7424,2.7097,2.6864,2.6549,2.6499,2.6499,2.6499,2.6499,2.6499,2.6499,2.6499,2.6499,2.6499,2.6816,2.6888,2.6521,2.7162,2.73,2.6555,2.6833,2.6871,2.6521,2.6499,2.6499,2.6499,2.6499,2.6499,2.6499,2.6499,2.6499,2.6499,2.6499,2.6499,2.6499,2.6499,2.6499,2.6512,2.6826,2.7072,2.7324,2.7607,2.8059,2.8568,2.8819,2.9107,2.944,2.9691,2.9792,2.9792]},{"header":{"parameterUnit":"m.s-1","parameterCategory":1,"la1":30.6,"la2":28.766,"lo1":-90.7593,"lo2":-88.6598,"dy":0.0162,"dx":0.0183,"nx":116,"ny":114,"refTime":"2023-09-15T18:00:00:Z","depth":0,"parameterNumber":3,"parameterNumberName":"V-component_of_WINDS"},"data":[0.0,0.0,0.0,0.0,0.0,0.0,0.0,0.0,0.0,0.0,0.0,0.0,0.0,0.0,0.0,0.0,0.0,0.0,0.0,0.0,0.0,0.0,0.0,0.0,0.0,0.0,0.0,0.0,0.0,0.0,0.0,0.0,0.0,0.0,0.0,0.0,0.0,0.0,0.0,0.0,0.0,0.0,0.0,0.0,0.0,0.0,0.0,0.0,0.0,0.0,0.0,0.0,0.0,0.0,0.0,0.0,0.0,0.0,0.0,0.0,0.0,0.0,0.0,0.0,0.0,0.0,0.0,0.0,0.0,0.0,0.0,0.0,0.0,0.0,0.0,0.0,0.0,0.0,0.0,0.0,0.0,0.0,0.0,0.0,0.0,0.0,0.0,0.0,0.0,0.0,0.0,0.0,0.0,0.0,0.0,0.0,0.0,0.0,0.0,0.0,0.0,0.0,0.0,0.0,0.0,0.0,0.0,0.0,0.0,0.0,0.0,0.0,0.0,0.0,0.0,0.0,0.0,0.0,0.0,0.0,0.0,0.0,0.0,0.0,0.0,0.0,0.0,0.0,0.0,0.0,0.0,0.0,0.0,0.0,0.0,0.0,0.0,0.0,0.0,0.0,0.0,0.0,0.0,0.0,0.0,0.0,0.0,0.0,0.0,0.0,0.0,0.0,0.0,0.0,0.0,0.0,0.0,0.0,0.0,0.0,0.0,0.0,0.0,0.0,0.0,0.0,0.0,0.0,0.0,0.0,0.0,0.0,0.0,0.0,0.0,0.0,0.0,0.0,0.0,0.0,0.0,0.0,0.0,0.0,0.0,0.0,0.0,0.0,0.0,0.0,0.0,0.0,0.0,0.0,0.0,0.0,0.0,0.0,0.0,0.0,0.0,0.0,0.0,0.0,0.0,0.0,0.0,0.0,0.0,0.0,0.0,0.0,0.0,0.0,0.0,0.0,0.0,0.0,0.0,0.0,0.0,0.0,0.0,0.0,0.0,0.0,0.0,0.0,0.0,0.0,0.0,0.0,0.0,0.0,0.0,0.0,0.0,0.0,0.0,0.0,0.0,0.0,0.0,0.0,0.0,0.0,0.0,0.0,0.0,0.0,0.0,0.0,0.0,0.0,0.0,0.0,0.0,0.0,0.0,0.0,0.0,0.0,0.0,0.0,0.0,0.0,0.0,0.0,0.0,0.0,0.0,0.0,0.0,0.0,0.0,0.0,0.0,0.0,0.0,0.0,0.0,0.0,0.0,0.0,0.0,0.0,0.0,0.0,0.0,0.0,0.0,0.0,0.0,0.0,0.0,0.0,0.0,0.0,0.0,0.0,0.0,0.0,0.0,0.0,0.0,0.0,0.0,0.0,0.0,0.0,0.0,0.0,0.0,0.0,0.0,0.0,0.0,0.0,0.0,0.0,0.0,0.0,0.0,0.0,0.0,0.0,0.0,0.0,0.0,0.0,0.0,0.0,0.0,0.0,0.0,0.0,0.0,0.0,0.0,0.0,0.0,0.0,0.0,0.0,0.0,0.0,0.0,0.0,0.0,0.0,0.0,0.0,0.0,0.0,0.0,0.0,0.0,0.0,0.0,0.0,0.0,0.0,0.0,0.0,0.0,0.0,0.0,0.0,0.0,0.0,0.0,0.0,0.0,0.0,0.0,0.0,0.0,0.0,0.0,0.0,0.0,0.0,0.0,0.0,0.0,0.0,0.0,0.0,0.0,0.0,0.0,0.0,0.0,0.0,0.0,0.0,0.0,0.0,0.0,0.0,0.0,0.0,0.0,0.0,0.0,0.0,0.0,0.0,0.0,0.0,0.0,0.0,0.0,0.0,0.0,0.0,0.0,0.0,0.0,0.0,0.0,0.0,0.0,0.0,0.0,0.0,0.0,0.0,0.0,0.0,0.0,0.0,0.0,0.0,0.0,0.0,0.0,0.0,0.0,0.0,0.0,0.0,0.0,0.0,0.0,0.0,0.0,0.0,0.0,0.0,0.0,0.0,0.0,0.0,0.0,0.0,0.0,0.0,0.0,0.0,0.0,0.0,0.0,0.0,0.0,0.0,0.0,0.0,0.0,0.0,0.0,0.0,0.0,0.0,0.0,0.0,0.0,0.0,0.0,0.0,0.0,0.0,0.0,0.0,0.0,0.0,0.0,0.0,0.0,0.0,0.0,0.0,0.0,0.0,0.0,0.0,0.0,0.0,0.0,0.0,0.0,0.0,0.0,0.0,0.0,0.0,0.0,0.0,0.0,0.0,0.0,0.0,0.0,0.0,0.0,0.0,0.0,0.0,0.0,0.0,0.0,0.0,0.0,0.0,0.0,0.0,0.0,0.0,0.0,0.0,0.0,0.0,0.0,0.0,0.0,0.0,0.0,0.0,0.0,0.0,0.0,0.0,0.0,0.0,0.0,0.0,0.0,0.0,0.0,0.0,0.0,0.0,0.0,0.0,0.0,0.0,0.0,0.0,0.0,0.0,0.0,0.0,0.0,0.0,0.0,0.0,0.0,0.0,0.0,0.0,0.0,0.0,0.0,0.0,0.0,0.0,0.0,0.0,0.0,0.0,0.0,0.0,0.0,0.0,0.0,0.0,0.0,0.0,0.0,0.0,0.0,0.0,0.0,0.0,0.0,0.0,0.0,0.0,0.0,0.0,0.0,0.0,0.0,0.0,0.0,0.0,0.0,0.0,0.0,0.0,0.0,0.0,0.0,0.0,0.0,0.0,0.0,0.0,0.0,0.0,0.0,0.0,0.0,0.0,0.0,0.0,0.0,0.0,0.0,0.0,0.0,0.0,0.0,0.0,0.0,0.0,0.0,0.0,0.0,0.0,0.0,0.0,0.0,0.0,0.0,0.0,0.0,0.0,0.0,0.0,0.0,0.0,0.0,0.0,0.0,0.0,0.0,0.0,0.0,0.0,0.0,0.0,0.0,0.0,0.0,0.0,0.0,0.0,0.0,0.0,0.0,0.0,0.0,0.0,0.0,0.0,0.0,0.0,0.0,0.0,0.0,0.0,0.0,0.0,0.0,0.0,0.0,0.0,0.0,0.0,0.0,0.0,0.0,0.0,0.0,0.0,0.0,0.0,0.0,0.0,0.0,0.0,0.0,0.0,0.0,0.0,0.0,0.0,0.0,0.0,0.0,0.0,0.0,0.0,0.0,0.0,0.0,0.0,0.0,0.0,0.0,0.0,0.0,0.0,0.0,0.0,0.0,0.0,0.0,0.0,0.0,0.0,0.0,0.0,0.0,0.0,0.0,0.0,0.0,0.0,0.0,0.0,0.0,0.0,0.0,0.0,0.0,0.0,0.0,0.0,0.0,0.0,0.0,0.0,0.0,0.0,0.0,0.0,0.0,0.0,0.0,0.0,0.0,0.0,0.0,0.0,0.0,0.0,0.0,0.0,0.0,0.0,0.0,0.0,0.0,0.0,0.0,0.0,0.0,0.0,0.0,0.0,0.0,0.0,0.0,0.0,0.0,0.0,0.0,0.0,0.0,0.0,0.0,0.0,0.0,0.0,0.0,0.0,0.0,0.0,0.0,0.0,0.0,0.0,0.0,0.0,0.0,0.0,0.0,0.0,0.0,0.0,0.0,0.0,0.0,0.0,0.0,0.0,0.0,0.0,0.0,0.0,0.0,0.0,0.0,0.0,0.0,0.0,0.0,0.0,0.0,0.0,0.0,0.0,0.0,0.0,0.0,0.0,0.0,0.0,0.0,0.0,0.0,0.0,0.0,0.0,0.0,0.0,0.0,0.0,0.0,0.0,0.0,0.0,0.0,0.0,0.0,0.0,0.0,0.0,0.0,0.0,0.0,0.0,0.0,0.0,0.0,0.0,0.0,0.0,0.0,0.0,0.0,0.0,0.0,0.0,0.0,0.0,0.0,0.0,0.0,0.0,0.0,0.0,0.0,0.0,0.0,0.0,0.0,0.0,0.0,0.0,0.0,0.0,0.0,0.0,0.0,0.0,0.0,0.0,0.0,0.0,0.0,0.0,0.0,0.0,0.0,0.0,0.0,0.0,0.0,0.0,0.0,0.0,0.0,0.0,0.0,0.0,0.0,0.0,0.0,0.0,0.0,0.0,0.0,0.0,0.0,0.0,0.0,0.0,0.0,0.0,0.0,0.0,0.0,0.0,0.0,0.0,0.0,0.0,0.0,0.0,0.0,0.0,0.0,0.0,0.0,0.0,0.0,0.0,0.0,0.0,0.0,0.0,0.0,0.0,0.0,0.0,0.0,0.0,0.0,0.0,0.0,0.0,0.0,0.0,0.0,0.0,0.0,0.0,0.0,0.0,0.0,0.0,0.0,0.0,0.0,0.0,0.0,0.0,0.0,0.0,0.0,0.0,0.0,0.0,0.0,0.0,0.0,0.0,0.0,0.0,0.0,0.0,0.0,0.0,0.0,0.0,0.0,0.0,0.0,0.0,0.0,0.0,0.0,0.0,0.0,0.0,0.0,0.0,0.0,0.0,0.0,0.0,0.0,0.0,0.0,0.0,0.0,0.0,0.0,0.0,0.0,0.0,0.0,0.0,0.0,0.0,0.0,0.0,0.0,0.0,0.0,0.0,0.0,0.0,0.0,0.0,0.0,0.0,0.0,0.0,0.0,0.0,0.0,0.0,0.0,0.0,0.0,0.0,0.0,0.0,0.0,0.0,0.0,0.0,0.0,0.0,0.0,0.0,0.0,0.0,0.0,0.0,0.0,0.0,0.0,0.0,0.0,0.0,0.0,0.0,0.0,0.0,0.0,0.0,0.0,0.0,0.0,0.0,0.0,0.0,0.0,0.0,0.0,0.0,0.0,0.0,0.0,0.0,0.0,0.0,0.0,0.0,0.0,0.0,0.0,0.0,0.0,0.0,0.0,0.0,0.0,0.0,0.0,0.0,0.0,0.0,0.0,0.0,0.0,0.0,0.0,0.0,0.0,0.0,0.0,0.0,0.0,0.0,0.0,0.0,0.0,0.0,0.0,0.0,0.0,0.0,0.0,0.0,0.0,0.0,0.0,0.0,0.0,0.0,0.0,0.0,0.0,0.0,0.0,0.0,0.0,0.0,0.0,0.0,0.0,0.0,0.0,0.0,0.0,0.0,0.0,0.0,0.0,0.0,0.0,0.0,0.0,0.0,0.0,0.0,0.0,0.0,0.0,0.0,0.0,0.0,0.0,0.0,0.0,0.0,0.0,0.0,0.0,0.0,0.0,0.0,0.0,0.0,0.0,0.0,0.0,0.0,0.0,0.0,0.0,0.0,0.0,0.0,0.0,0.0,0.0,0.0,0.0,0.0,0.0,0.0,0.0,0.0,0.0,0.0,0.0,0.0,0.0,0.0,0.0,0.0,0.0,0.0,0.0,0.0,0.0,0.0,0.0,0.0,0.0,0.0,0.0,0.0,0.0,0.0,0.0,0.0,0.0,0.0,0.0,0.0,0.0,0.0,0.0,0.0,0.0,0.0,0.0,0.0,0.0,0.0,0.0,0.0,0.0,0.0,0.0,0.0,0.0,0.0,0.0,0.0,0.0,0.0,0.0,0.0,0.0,0.0,0.0,0.0,0.0,0.0,0.0,0.0,0.0,0.0,0.0,0.0,0.0,0.0,0.0,0.0,0.0,0.0,0.0,0.0,0.0,0.0,0.0,0.0,0.0,0.0,0.0,0.0,0.0,0.0,0.0,0.0,0.0,0.0,0.0,0.0,0.0,0.0,0.0,0.0,0.0,0.0,0.0,0.0,0.0,0.0,0.0,0.0,0.0,0.0,0.0,0.0,0.0,0.0,0.0,0.0,0.0,0.0,0.0,0.0,0.0,0.0,0.0,0.0,0.0,0.0,0.0,0.0,0.0,0.0,0.0,0.0,0.0,0.0,0.0,0.0,0.0,0.0,0.0,0.0,0.0,0.0,0.0,0.0,0.0,0.0,0.0,0.0,0.0,0.0,0.0,0.0,0.0,0.0,0.0,0.0,0.0,0.0,0.0,0.0,0.0,0.0,0.0,0.0,0.0,0.0,0.0,0.0,0.0,0.0,0.0,0.0,0.0,0.0,0.0,0.0,0.0,0.0,0.0,0.0,0.0,0.0,0.0,0.0,0.0,0.0,0.0,0.0,1.6091,0.0,0.0,0.0,0.0,0.0,0.0,0.0,0.0,0.0,0.0,0.0,0.0,0.0,0.0,0.0,0.0,0.0,0.0,0.0,0.0,0.0,0.0,0.0,0.0,0.0,0.0,0.0,0.0,0.0,0.0,0.0,0.0,0.0,0.0,0.0,0.0,0.0,0.0,0.0,0.0,0.0,0.0,0.0,0.0,0.0,0.0,0.0,0.0,0.0,0.0,0.0,0.0,0.0,0.0,0.0,0.0,0.0,0.0,0.0,0.0,0.0,0.0,0.0,0.0,0.0,0.0,0.0,0.0,0.0,0.0,0.0,0.0,0.0,0.0,0.0,0.0,0.0,0.0,0.0,0.0,0.0,0.0,0.0,0.0,0.0,0.0,0.0,0.0,0.0,0.0,0.0,0.0,0.0,0.0,0.0,0.0,0.0,0.0,0.0,0.0,0.0,0.0,0.0,0.0,0.0,0.0,0.0,0.0,0.0,0.0,0.0,0.0,0.0,0.0,0.0,0.0,1.6901,0.0,0.0,0.0,0.0,0.0,0.0,0.0,0.0,0.0,0.0,0.0,0.0,0.0,0.0,0.0,0.0,0.0,0.0,0.0,0.0,0.0,0.0,0.0,0.0,0.0,0.0,0.0,0.0,0.0,0.0,0.0,0.0,0.0,0.0,0.0,0.0,0.0,0.0,0.0,0.0,0.0,0.0,0.0,0.0,0.0,0.0,0.0,0.0,0.0,0.0,0.0,0.0,0.0,0.0,0.0,0.0,0.0,0.0,0.0,0.0,0.0,0.0,0.0,0.0,0.0,0.0,0.0,0.0,0.0,0.0,0.0,0.0,0.0,0.0,0.0,0.0,0.0,0.0,0.0,0.0,0.0,0.0,0.0,0.0,0.0,0.0,0.0,0.0,0.0,0.0,0.0,0.0,0.0,0.0,0.0,0.0,0.0,0.0,0.0,0.0,0.0,0.0,0.0,0.0,0.0,0.0,0.0,0.0,2.0534,2.074,2.0779,2.1743,2.2692,2.3434,2.0885,2.0302,2.0964,0.0,0.0,0.0,0.0,0.0,0.0,0.0,0.0,0.0,0.0,0.0,0.0,0.0,0.0,0.0,0.0,0.0,0.0,0.0,0.0,0.0,0.0,0.0,0.0,0.0,0.0,0.0,0.0,0.0,0.0,0.0,0.0,0.0,0.0,0.0,0.0,0.0,0.0,0.0,2.0822,2.1434,2.1999,2.2382,1.9304,0.0,0.0,0.0,0.0,0.0,0.0,0.0,0.0,0.0,0.0,0.0,0.0,0.0,0.0,0.0,0.0,0.0,0.0,0.0,0.0,0.0,0.0,0.0,0.0,0.0,0.0,0.0,0.0,0.0,0.0,0.0,0.0,0.0,0.0,0.0,0.0,0.0,0.0,0.0,0.0,0.0,0.0,0.0,1.6298,1.6298,0.0,0.0,0.0,0.0,0.0,0.0,0.0,0.0,0.0,0.0,0.0,0.0,0.0,1.9447,1.9597,2.0639,2.1218,2.1294,2.3459,2.4486,2.4528,2.5868,2.6559,2.6684,2.6279,0.0,2.355,2.3647,0.0,0.0,0.0,0.0,0.0,0.0,0.0,0.0,0.0,0.0,0.0,0.0,0.0,0.0,0.0,0.0,0.0,0.0,0.0,0.0,0.0,0.0,0.0,0.0,0.0,0.0,0.0,0.0,0.0,0.0,0.0,0.0,0.0,0.0,0.0,0.0,2.046,2.199,2.334,2.3469,2.3908,2.4514,2.2825,2.1586,2.0696,1.9578,0.0,0.0,0.0,0.0,0.0,0.0,0.0,0.0,0.0,0.0,0.0,0.0,0.0,0.0,0.0,0.0,0.0,0.0,0.0,0.0,0.0,0.0,0.0,0.0,0.0,0.0,0.0,0.0,0.0,0.0,0.0,0.0,0.0,0.0,0.0,0.0,0.0,0.0,0.0,1.516,1.5603,1.5603,1.5185,1.4645,0.0,0.0,0.0,0.0,0.0,0.0,0.0,0.0,0.0,2.0363,2.0627,2.1204,2.2146,2.2663,2.3488,2.4662,2.5746,2.6867,2.7986,2.9099,2.9761,3.0072,3.0576,3.0221,2.9124,2.6319,2.4353,2.3091,0.0,0.0,0.0,0.0,2.2092,2.1959,0.0,0.0,0.0,0.0,0.0,0.0,0.0,0.0,0.0,0.0,0.0,0.0,0.0,0.0,0.0,1.2355,0.0,0.0,0.0,0.0,0.0,0.0,0.0,0.0,0.0,0.0,0.0,0.0,2.231,2.3658,2.5156,2.4902,2.5154,2.5799,2.5649,2.467,2.3045,2.192,2.0942,0.0,0.0,0.0,0.0,0.0,0.0,0.0,0.0,0.0,0.0,0.0,0.0,0.0,0.0,0.0,0.0,0.0,0.0,0.0,0.0,0.0,0.0,0.0,0.0,0.0,0.0,0.0,0.0,0.0,0.0,0.0,0.0,0.0,0.0,0.0,0.0,0.0,0.0,1.559,1.5852,1.5563,1.5789,1.5515,0.0,0.0,0.0,0.0,0.0,0.0,2.0175,2.0501,2.109,2.211,2.2412,2.3153,2.4393,2.4938,2.5974,2.7524,2.8125,2.9201,3.0672,3.1544,3.2162,3.2568,3.3223,3.3499,3.32,2.9192,2.725,2.6692,2.5738,2.5061,2.4672,2.5181,2.5232,2.5274,0.0,0.0,0.0,0.0,0.0,0.0,0.0,0.0,0.0,0.0,0.0,0.0,0.0,0.0,1.4023,1.4152,1.5445,1.5593,0.0,0.0,0.0,0.0,0.0,0.0,0.0,0.0,0.0,2.1197,2.334,2.4795,2.5574,2.5541,2.5929,2.6656,2.7018,2.6496,2.5275,2.4189,2.369,2.3494,0.0,0.0,0.0,0.0,0.0,0.0,0.0,0.0,0.0,0.0,0.0,0.0,0.0,0.0,0.0,0.0,0.0,0.0,0.0,0.0,0.0,0.0,0.0,0.0,0.0,0.0,0.0,0.0,0.0,0.0,0.0,0.0,0.0,0.0,0.0,0.0,0.0,0.0,0.0,1.741,1.8167,0.0,0.0,0.0,0.0,1.8832,1.9397,2.0213,2.1343,2.2383,2.3208,2.3853,2.4858,2.5423,2.5511,2.7481,2.8516,2.865,3.0891,3.2008,3.2113,3.3009,3.3409,3.3438,3.3484,3.3499,3.3484,3.3215,3.1974,3.0242,3.0179,2.9011,2.763,2.946,2.9673,2.929,0.0,0.0,0.0,0.0,0.0,0.0,0.0,0.0,0.0,0.0,0.0,0.0,0.0,1.4533,1.626,1.6467,1.799,1.853,1.7547,0.0,0.0,0.0,0.0,0.0,0.0,0.0,2.232,2.4036,2.4814,2.5592,2.631,2.6578,2.6825,2.7099,2.7517,2.7444,2.6964,2.5851,2.51,2.4556,2.3166,2.1717,0.0,0.0,0.0,0.0,0.0,0.0,0.0,0.0,0.0,0.0,0.0,0.0,0.0,0.0,0.0,0.0,0.0,0.0,0.0,0.0,0.0,0.0,0.0,0.0,0.0,0.0,0.0,0.0,0.0,0.0,0.0,0.0,0.0,0.0,0.0,0.0,0.0,1.7525,1.8995,0.0,1.8531,1.9585,2.0552,2.109,2.1968,2.2975,2.4082,2.4506,2.5146,2.6092,2.7087,2.7754,2.8114,2.9487,3.0657,3.1612,3.2434,3.3367,3.4339,3.4658,3.4786,3.4786,3.4786,3.4786,3.4786,3.4786,3.3858,3.2422,3.2422,3.2018,3.1479,3.2168,3.2243,3.2107,0.0,0.0,0.0,0.0,0.0,0.0,0.0,0.0,0.0,0.0,0.0,1.3183,1.3901,1.6564,1.8458,1.889,2.0176,2.0369,1.8941,0.0,0.0,0.0,0.0,0.0,0.0,2.2252,2.3876,2.5601,2.5854,2.6218,2.6708,2.6962,2.7316,2.7716,2.7985,2.8326,2.8655,2.7902,2.6992,2.5957,2.4946,2.3573,2.2019,0.0,0.0,0.0,0.0,0.0,0.0,0.0,0.0,0.0,0.0,0.0,0.0,0.0,0.0,0.0,0.0,0.0,0.0,0.0,0.0,0.0,0.0,0.0,0.0,0.0,0.0,0.0,0.0,0.0,0.0,0.0,0.0,0.0,0.0,0.0,1.9447,1.8341,2.0339,2.1369,2.0211,2.163,2.2836,2.3361,2.4293,2.5238,2.6143,2.665,2.7254,2.8022,2.9155,2.9918,3.0273,3.1428,3.2496,3.346,3.3818,3.4509,3.5504,3.5504,3.5504,3.5504,3.5504,3.5504,3.5504,3.5504,3.4981,3.4173,3.4173,3.4173,3.4173,3.4173,3.4173,3.4173,0.0,0.0,0.0,0.0,0.0,0.0,0.0,0.0,0.0,0.0,1.3503,1.531,1.7467,1.9209,2.0526,2.1268,2.1816,2.0929,1.8127,1.8877,0.0,0.0,0.0,0.0,2.2337,2.3789,2.4889,2.5634,2.6353,2.67,2.67,2.6742,2.7382,2.8495,2.8528,2.9201,3.03,3.0315,2.9423,2.7918,2.717,2.6183,2.4917,0.0,0.0,0.0,0.0,0.0,0.0,0.0,0.0,0.0,0.0,0.0,0.0,0.0,0.0,0.0,0.0,0.0,0.0,0.0,0.0,0.0,0.0,0.0,0.0,0.0,0.0,0.0,0.0,0.0,0.0,0.0,0.0,0.0,1.838,2.0175,2.1155,2.0062,2.2385,2.364,2.2533,2.3926,2.5118,2.5636,2.6218,2.6806,2.7377,2.8746,2.9544,2.9592,3.1075,3.1875,3.1875,3.332,3.4044,3.4061,3.5036,3.5504,3.5504,3.5504,3.5504,3.5504,3.5534,3.5534,3.5518,3.5549,3.558,3.5582,3.5519,3.5504,3.5504,3.5504,3.5504,3.5504,0.0,0.0,0.0,0.0,0.0,0.0,0.0,0.0,0.0,0.0,1.3421,1.5207,1.7459,1.9678,2.1309,2.2092,2.2387,2.2072,2.0995,0.0,0.0,0.0,0.0,0.0,2.3874,2.4821,2.5659,2.6404,2.659,2.67,2.6725,2.7552,2.8118,2.8456,2.9284,2.9841,3.0185,3.0519,3.041,2.9915,2.8881,2.7649,2.6235,0.0,0.0,0.0,0.0,0.0,0.0,0.0,0.0,0.0,0.0,0.0,0.0,0.0,0.0,0.0,0.0,0.0,0.0,0.0,0.0,0.0,0.0,0.0,0.0,0.0,0.0,0.0,0.0,0.0,0.0,0.0,0.0,2.1217,2.0665,2.1794,2.2709,2.2836,2.4598,2.5695,2.538,2.6465,2.725,2.7406,2.757,2.8208,2.9467,2.9925,3.0641,3.1709,3.2834,3.3397,3.3397,3.452,3.51,3.51,3.5375,3.5504,3.5504,3.5504,3.5504,3.5534,3.6013,3.6239,3.6252,3.6701,3.7252,3.7671,3.611,3.5504,3.5504,3.5504,3.5504,3.5504,0.0,0.0,0.0,0.0,0.0,0.0,0.0,0.0,0.0,0.0,1.3853,1.5447,1.824,2.0193,2.1589,2.2264,2.199,2.1616,2.1194,0.0,0.0,0.0,0.0,2.422,2.494,2.5676,2.6268,2.67,2.67,2.686,2.7182,2.7836,2.8569,2.9391,3.0066,3.063,3.1124,3.14,3.15,3.1413,3.0422,2.933,2.8092,2.644,2.4919,2.3564,2.2641,2.1837,2.1062,2.0175,0.0,0.0,0.0,0.0,0.0,0.0,0.0,0.0,0.0,0.0,0.0,0.0,0.0,0.0,0.0,0.0,0.0,0.0,0.0,0.0,0.0,0.0,0.0,0.0,2.1655,2.315,2.353,2.4133,2.4657,2.5012,2.6306,2.7173,2.7173,2.772,2.8179,2.8417,2.843,2.9119,3.0647,3.111,3.189,3.3157,3.4126,3.4627,3.4627,3.5213,3.5504,3.5504,3.5504,3.5504,3.5519,3.5789,3.5923,0.0,3.6596,3.6881,3.6896,3.727,3.7901,0.0,0.0,0.0,0.0,0.0,3.6221,3.5878,0.0,0.0,0.0,0.0,0.0,0.0,0.0,0.0,0.0,0.0,0.0,1.5801,1.9312,2.0573,2.1416,2.1996,2.1091,2.037,0.0,0.0,0.0,2.34,2.4305,2.5041,2.5702,2.637,2.67,2.67,2.6784,2.7165,2.7807,2.7976,2.897,3.0629,3.0716,3.135,3.2358,3.2401,3.2426,3.2355,3.1699,3.0965,3.0031,2.7901,2.6641,2.5702,2.3656,2.2496,2.1918,2.1664,0.0,0.0,0.0,0.0,0.0,0.0,0.0,0.0,0.0,0.0,0.0,0.0,0.0,0.0,0.0,0.0,0.0,0.0,0.0,0.0,0.0,0.0,0.0,0.0,2.3502,2.4824,2.6373,2.6688,2.6751,2.6688,2.7557,2.8197,2.8197,2.826,2.8499,2.8969,2.9089,2.9792,3.127,0.0,0.0,0.0,0.0,3.5504,3.5504,3.5504,3.5504,3.5504,3.5504,3.5549,3.5639,3.6239,3.6538,3.6643,3.7255,3.7524,3.7524,3.7582,3.8076,3.8698,3.7876,3.8548,3.9804,3.8247,3.728,3.6642,0.0,0.0,0.0,0.0,0.0,0.0,0.0,0.0,0.0,1.406,1.4402,1.5717,1.9302,2.0128,2.076,2.1627,2.0952,2.0632,0.0,0.0,2.3062,2.4237,2.5549,2.6344,2.6471,2.6632,2.67,2.67,2.7291,2.7655,2.7832,2.9075,2.9867,3.0232,3.0836,3.1234,3.1468,3.1806,3.1942,3.1942,3.2174,3.1596,3.048,2.9394,2.8715,2.8205,2.7114,2.664,2.626,2.4466,2.3763,2.3373,2.1863,0.0,0.0,0.0,0.0,0.0,0.0,0.0,0.0,0.0,0.0,0.0,0.0,0.0,0.0,0.0,0.0,0.0,0.0,0.0,0.0,2.3616,2.4987,2.6285,2.7035,2.7896,2.8285,2.7846,2.8355,2.8756,2.8756,2.9202,2.9515,2.9616,3.0333,3.1227,3.2272,3.3223,3.4177,3.518,3.5392,3.5504,3.5504,3.5504,3.5504,3.5504,0.0,0.0,3.6314,3.6449,3.6761,3.727,3.7913,3.8197,3.8242,3.8778,3.9109,3.9219,3.8647,3.9093,3.9792,3.8098,3.7802,3.8166,0.0,0.0,0.0,0.0,0.0,0.0,0.0,0.0,0.0,0.0,1.4038,1.5203,1.7723,1.838,1.9045,2.0004,2.0332,0.0,0.0,2.2588,2.406,2.554,2.631,2.67,2.67,2.67,2.67,2.67,2.7444,2.8019,2.8433,2.9574,3.0301,3.0666,3.1038,3.12,3.1227,3.1813,3.2046,3.2074,3.2303,3.2041,3.1408,3.0464,2.9865,2.9457,2.8687,2.8137,2.7638,2.6514,2.5904,2.544,2.4547,2.3754,2.2856,0.0,0.0,0.0,0.0,0.0,0.0,0.0,0.0,0.0,0.0,0.0,0.0,0.0,0.0,2.3387,2.3017,0.0,2.4544,2.5149,2.6407,2.7487,2.8034,2.8568,2.8787,2.853,2.8994,2.9346,2.9346,2.9616,2.9979,3.0476,3.0932,3.1815,3.3223,3.3756,3.4461,3.5472,3.5504,3.5504,3.5504,3.5504,3.5504,3.5504,3.5833,3.6194,3.6523,3.7167,3.7614,3.7943,3.8616,3.8901,3.8987,4.0188,4.096,4.1299,4.0622,4.008,3.962,3.8829,3.8554,3.8441,0.0,0.0,0.0,0.0,0.0,0.0,0.0,0.0,0.0,0.0,0.0,1.4719,1.6093,1.6623,1.7252,0.0,0.0,0.0,0.0,2.273,2.4458,2.6395,2.6623,2.67,2.67,2.67,2.67,2.67,2.7596,2.8366,2.9027,2.9905,3.0632,3.12,3.12,3.12,3.1251,3.1826,3.209,3.209,3.209,3.209,3.1978,3.1137,3.0608,3.0209,2.9322,2.8578,2.8002,2.7689,2.719,2.67,2.67,2.5813,2.4475,2.2874,2.1784,0.0,0.0,0.0,0.0,0.0,0.0,0.0,0.0,2.1842,2.2954,2.4041,2.4616,2.5064,2.5583,2.5703,2.5979,2.6831,2.7682,2.8442,2.8994,2.907,2.907,2.907,2.9503,2.9792,2.9792,2.9792,3.0196,3.1124,3.137,3.2213,3.391,3.4194,3.4675,3.5472,3.5504,3.5504,3.5504,3.5504,3.5564,3.5699,3.6254,3.6628,3.6913,3.7928,3.8484,3.8634,3.9334,3.9755,4.0041,4.1593,4.2567,4.2986,4.2268,4.1146,3.9894,3.9901,3.9565,3.9007,0.0,0.0,0.0,0.0,0.0,0.0,0.0,0.0,0.0,0.0,0.0,0.0,0.0,0.0,0.0,0.0,0.0,0.0,2.1197,2.3187,2.4771,2.5685,2.6353,2.67,2.67,2.67,2.67,2.67,2.8155,2.8899,2.9027,3.0439,3.1123,3.12,3.12,3.12,3.1217,3.1285,3.1319,3.1319,3.1319,3.1319,3.1302,3.1191,3.1114,3.0896,2.9491,2.8942,2.8654,2.7292,2.6767,2.67,2.67,2.6293,2.5468,2.3623,2.2313,2.1024,1.9105,1.9136,1.9968,2.1091,2.1809,2.2877,0.0,2.5941,2.624,2.69,2.8383,2.911,2.7672,2.8273,2.889,2.8678,2.8731,2.9019,2.9616,2.9691,2.9691,2.9691,2.9754,2.9792,2.9792,2.9792,3.0196,3.1124,3.1979,3.2908,3.3927,3.4856,3.5375,3.5504,3.5504,3.5504,3.5504,3.5504,3.5804,3.6389,3.6464,3.7092,3.8182,3.835,3.8721,3.9341,4.0191,4.0996,4.1788,4.2754,4.277,4.2141,4.2046,4.1885,4.1609,4.0868,4.102,4.1482,0.0,0.0,0.0,0.0,0.0,0.0,0.0,0.0,0.0,0.0,0.0,0.0,0.0,0.0,0.0,0.0,0.0,0.0,2.114,2.3279,2.4821,2.5567,2.6302,2.67,2.67,2.67,2.67,2.67,2.7774,2.8289,2.8323,2.9854,3.0565,3.0581,3.1004,3.12,3.1224,3.1657,3.1843,3.1843,3.1843,3.1843,3.1742,3.0886,3.0565,3.0429,2.9382,2.8417,0.0,0.0,2.6404,2.6133,2.6556,2.6117,2.5128,2.3647,2.264,2.1948,2.1632,2.1754,2.2288,2.3629,2.4474,2.5342,2.6797,2.7767,2.8616,2.9566,3.0204,3.054,3.0362,2.9695,2.9288,2.9716,2.9579,2.9515,2.9754,2.9792,2.9792,2.9792,3.0279,3.04,2.9837,3.0298,3.0988,3.1942,3.289,3.3839,3.4822,3.5262,3.5504,3.5504,3.5504,3.5504,3.5504,3.5504,3.5833,3.6508,3.6851,3.7509,3.8424,3.8796,3.9413,4.022,4.108,4.1949,4.2785,4.3139,4.3381,4.3454,4.2955,4.277,4.2583,4.1213,4.1247,4.1949,0.0,0.0,0.0,0.0,0.0,0.0,0.0,0.0,0.0,0.0,0.0,0.0,0.0,0.0,0.0,0.0,0.0,0.0,0.0,2.2781,2.4314,2.5253,2.5998,2.6488,2.67,2.67,2.67,2.67,2.7444,2.7807,2.7832,2.9168,2.9803,2.982,3.0354,3.0591,3.0625,3.1159,3.1396,3.1396,3.1396,3.1396,3.1278,3.0192,2.9659,2.9405,2.8856,2.7816,0.0,0.0,2.5913,2.5373,2.579,2.5387,2.4524,2.333,2.2469,2.2141,2.3097,2.361,2.4298,2.5992,2.72,2.8103,2.8728,2.9815,3.0917,3.1805,3.1889,3.1945,3.2366,3.1058,3.0152,3.0899,3.0548,3.0292,3.0533,3.057,3.057,3.057,3.1175,3.1328,3.0633,3.1193,3.1979,3.2925,3.3619,3.4428,3.5455,3.5504,3.5504,3.5504,3.5504,3.5504,3.5504,3.5684,3.6103,3.6746,3.7375,3.8033,3.8691,3.9167,3.9882,4.0758,4.1609,4.2489,4.3321,4.3562,4.3887,4.4181,4.3547,4.3306,4.3139,4.1885,4.182,4.2363,0.0,0.0,0.0,0.0,0.0,0.0,0.0,0.0,0.0,0.0,0.0,0.0,0.0,0.0,0.0,0.0,0.0,0.0,0.0,2.1502,2.3021,2.4474,2.5236,2.5981,2.6683,2.67,2.67,2.67,2.7444,2.7807,2.7824,2.8662,2.9027,2.9027,2.9061,2.9077,2.9077,2.9094,2.9094,2.9094,2.9094,2.9094,2.9094,2.9044,2.8552,2.7874,2.7841,0.0,0.0,2.5871,2.5135,2.448,2.4107,2.4054,2.3904,2.2758,2.1635,2.1031,2.2373,2.3625,2.5202,2.7859,2.994,3.1525,3.2198,3.2886,3.3395,3.3439,3.3931,3.4126,3.3237,3.275,3.2508,3.2526,3.176,3.1481,3.2393,3.2518,3.2518,3.2518,3.254,3.254,0.0,3.254,3.2961,3.3893,3.3993,3.4428,3.5455,3.5504,3.5504,3.5504,3.5504,3.5504,3.5504,3.6133,3.6761,3.7389,3.8048,3.8721,3.9376,3.9391,3.9882,4.0758,4.1609,4.2489,4.3366,4.421,4.4078,4.3336,4.3306,4.3306,4.3291,4.3246,4.3246,4.3261,0.0,0.0,0.0,0.0,0.0,0.0,0.0,0.0,0.0,0.0,0.0,0.0,0.0,0.0,0.0,0.0,0.0,0.0,0.0,2.117,2.2523,2.3021,2.4229,2.5211,2.5947,2.5981,2.6201,2.67,2.6945,2.7072,2.7097,2.7849,2.8205,2.8221,2.8764,2.8993,2.8993,2.8993,2.8993,2.8993,2.8993,2.8993,2.8942,2.8416,2.7831,2.732,0.0,0.0,0.0,2.5685,2.5431,2.5249,2.5277,2.4763,2.387,2.2378,2.2265,2.2921,2.4268,2.6243,2.8338,3.0089,3.1689,3.3006,3.3664,3.3994,3.4293,3.4741,3.3449,3.2341,3.2649,3.1578,3.0879,3.1493,3.1906,3.2249,3.2558,3.2593,3.2593,3.2593,3.3154,0.0,0.0,0.0,0.0,3.3993,3.461,3.5133,3.5488,3.5504,3.5504,3.5504,3.5504,3.5504,3.5504,3.6148,3.6791,3.7402,3.8524,3.9167,3.9409,4.0008,4.0414,4.0758,4.1609,4.2157,4.2458,4.2754,4.2707,4.2505,4.3078,4.3306,4.3366,4.3962,4.4167,4.4167,0.0,0.0,0.0,0.0,0.0,0.0,0.0,0.0,0.0,0.0,0.0,0.0,0.0,0.0,0.0,0.0,0.0,0.0,0.0,0.0,2.1329,2.1887,2.2815,2.3678,2.44,2.4417,2.4654,2.5135,2.565,2.5904,2.5938,2.6945,2.741,2.7427,2.7952,2.8172,2.8172,2.8172,2.8028,2.7782,2.7782,2.7669,2.7434,2.6921,2.6602,0.0,0.0,0.0,0.0,2.5355,2.5137,2.4888,2.4722,2.4209,2.3534,2.2918,2.3315,2.4406,2.6467,2.8291,3.0072,3.2063,3.3215,3.4039,3.4697,3.4862,3.4922,3.51,3.3243,3.1715,3.208,3.1092,3.027,3.0508,3.1399,3.2188,3.2522,3.2572,3.2831,3.3548,3.4175,3.4543,0.0,0.0,0.0,3.4543,3.5133,3.5504,3.5504,3.5504,3.5504,3.5504,3.5504,3.5504,3.5504,3.6372,3.7255,3.812,3.8987,3.9406,3.9409,3.9973,4.0255,4.0274,4.1147,4.1543,4.156,4.1869,4.1997,4.2093,4.2955,4.3108,4.2939,4.3814,4.4138,4.4181,0.0,0.0,0.0,0.0,0.0,0.0,0.0,0.0,0.0,0.0,0.0,0.0,0.0,0.0,0.0,0.0,0.0,0.0,0.0,0.0,0.0,2.1021,2.1123,2.1488,2.2236,2.2236,2.2262,2.2296,2.3705,2.4381,2.4434,2.5846,2.6505,2.6522,2.6522,2.6531,2.6564,2.6531,2.6125,2.5518,2.5518,2.5205,2.4771,2.4789,0.0,0.0,0.0,0.0,2.5118,2.4891,2.4359,2.3624,2.2745,2.2661,2.3137,2.4347,2.4799,2.5591,2.8785,2.9756,3.0596,3.3709,3.4533,3.4712,3.531,3.5444,3.5235,3.4503,3.326,3.2108,3.1421,3.1114,3.0668,2.9785,3.0573,3.1599,3.2512,3.2647,3.3364,3.528,3.5504,3.5504,3.5504,0.0,0.0,3.5504,0.0,3.5504,3.5504,3.5504,3.5504,3.5504,3.5504,3.5504,3.5504,3.6761,3.806,3.9406,3.9406,3.9406,3.9406,3.9406,3.9406,3.9445,4.0274,4.0622,4.0707,4.1527,4.1869,4.1949,4.2832,4.2661,4.2046,4.2909,4.3261,4.3428,0.0,0.0,0.0,0.0,0.0,0.0,0.0,0.0,0.0,0.0,0.0,0.0,0.0,0.0,0.0,0.0,0.0,0.0,0.0,0.0,0.0,0.0,0.0,0.0,0.0,0.0,0.0,0.0,2.2675,2.2958,2.3169,2.3542,2.3852,2.4083,2.4083,2.4287,2.458,2.4244,2.4197,2.4331,0.0,2.4336,2.4382,0.0,0.0,0.0,0.0,0.0,2.4661,2.4994,2.5028,2.4913,2.4689,2.5061,2.5671,2.5989,2.747,2.9177,3.0043,3.1733,3.3455,3.4294,3.4877,3.516,3.4832,3.4757,3.4277,3.2602,3.0837,2.9385,2.8725,2.8942,2.9454,3.0165,3.2154,3.3892,3.4635,3.4741,3.4936,3.5444,3.5504,3.5504,3.5504,3.5504,0.0,0.0,3.5504,3.5504,3.5504,3.5504,3.5504,3.5504,3.5504,3.5504,3.5504,3.6761,3.806,3.9406,3.9406,3.9406,3.9406,3.9406,3.9406,3.9409,3.9628,3.9737,3.9755,3.997,4.006,4.0148,4.1013,4.123,4.1147,4.2013,4.2738,4.3336,0.0,0.0,0.0,0.0,0.0,0.0,0.0,0.0,0.0,0.0,0.0,0.0,0.0,0.0,0.0,0.0,0.0,0.0,0.0,0.0,0.0,0.0,0.0,0.0,0.0,0.0,0.0,0.0,0.0,0.0,0.0,2.1808,2.2305,2.276,2.276,2.3073,2.3577,2.3321,0.0,0.0,0.0,0.0,0.0,0.0,0.0,0.0,0.0,2.4297,2.4095,2.44,2.4744,2.5053,2.5053,2.5765,2.6719,2.7318,2.8906,3.0687,3.1584,3.3141,3.4563,3.4877,3.5012,3.4817,3.3829,3.3395,3.2632,3.0643,2.8893,2.7617,2.724,2.7946,2.8637,2.8771,3.1255,3.332,3.3693,3.3993,3.4501,3.54,3.5504,3.5504,3.5504,3.5504,3.5504,0.0,3.5504,3.5504,3.5504,3.5504,3.5504,3.5504,3.5504,3.5639,3.5938,3.6911,3.7943,3.8958,3.9257,3.9406,3.9406,3.9406,3.9406,3.9406,0.0,3.9406,3.9406,3.9406,3.9628,4.0025,4.0518,4.0707,4.0758,4.1247,4.1981,4.2739,0.0,0.0,0.0,0.0,0.0,0.0,0.0,0.0,0.0,0.0,0.0,0.0,0.0,0.0,0.0,0.0,0.0,0.0,0.0,0.0,0.0,0.0,0.0,0.0,0.0,0.0,0.0,0.0,0.0,0.0,0.0,0.0,0.0,0.0,0.0,0.0,0.0,0.0,0.0,0.0,0.0,0.0,0.0,0.0,0.0,0.0,2.3595,2.3595,2.3595,2.3595,2.4107,2.4728,2.4728,2.5782,2.7243,2.8487,2.9819,3.13,3.3125,3.4113,3.4757,3.5235,3.4937,3.4099,3.2587,3.1794,3.0777,2.8637,2.7275,2.645,2.6348,2.7425,2.8038,2.7153,2.9536,3.1585,3.1854,3.2407,3.3455,3.5279,3.5504,3.5504,3.5504,3.5504,3.5504,3.5504,3.5504,3.5504,3.5504,3.5504,3.5504,3.5504,3.5504,3.5818,3.6493,3.7105,3.7749,3.8424,3.9095,3.9406,3.9406,3.9406,3.9406,3.9406,0.0,0.0,3.9406,3.9406,3.9847,4.0535,4.0535,4.0535,4.0535,4.0535,4.108,4.1853,0.0,0.0,0.0,0.0,0.0,0.0,0.0,0.0,0.0,0.0,0.0,0.0,0.0,0.0,0.0,0.0,0.0,0.0,0.0,0.0,0.0,0.0,0.0,0.0,0.0,0.0,0.0,0.0,0.0,0.0,0.0,0.0,0.0,0.0,0.0,0.0,0.0,0.0,0.0,0.0,0.0,0.0,0.0,0.0,0.0,0.0,2.3595,2.3595,2.3595,2.3595,2.4406,2.5423,2.5423,2.7111,2.9219,2.9953,3.1509,3.317,3.4084,3.4817,3.522,3.4772,3.4578,3.3859,3.1405,3.0761,2.9805,2.6739,2.5932,2.5603,2.5053,2.6048,2.7408,2.8845,3.0433,3.2078,3.3754,3.4084,3.4503,3.54,3.5504,3.5504,3.5504,3.5504,0.0,0.0,3.5504,3.5504,3.5504,3.5504,3.5504,3.5504,3.5504,3.5818,3.6493,3.7105,3.7749,3.8424,3.9095,3.9406,3.9406,3.9406,3.9406,3.9406,3.9406,0.0,3.9406,3.9406,3.9499,3.9628,3.9628,3.9628,3.9628,3.9628,4.0185,4.103,0.0,0.0,0.0,0.0,0.0,0.0,0.0,0.0,0.0,0.0,0.0,0.0,0.0,0.0,0.0,0.0,0.0,0.0,0.0,0.0,0.0,0.0,0.0,0.0,0.0,0.0,1.6376,1.6541,0.0,0.0,0.0,0.0,0.0,0.0,0.0,0.0,0.0,0.0,0.0,0.0,0.0,0.0,0.0,0.0,0.0,0.0,0.0,2.3336,2.3595,2.3595,2.4257,2.5139,2.5483,2.72,2.9219,2.9834,3.1674,3.3559,3.3889,3.4473,3.4907,3.4578,3.3979,3.2766,3.0118,2.9249,2.8156,2.5166,2.4556,2.4571,2.459,2.5408,2.6617,2.8289,2.9924,3.1555,3.323,3.4054,3.4742,3.5429,3.5504,3.5504,3.5504,3.5504,3.5504,3.5504,3.5504,3.5504,3.5504,3.5504,3.5504,3.5504,3.5504,3.5654,3.5968,3.6926,3.7569,3.7883,3.8913,3.9406,3.9406,3.9406,3.9406,3.9406,3.9406,0.0,3.9406,3.9406,3.9406,3.9406,3.9406,3.9406,3.9406,3.9406,3.9955,4.0758,0.0,0.0,0.0,0.0,0.0,0.0,0.0,0.0,1.2364,1.2153,1.2581,1.2892,1.2836,1.2832,0.0,0.0,0.0,0.0,0.0,0.0,0.0,0.0,0.0,0.0,0.0,0.0,0.0,1.6191,1.5926,0.0,0.0,0.0,0.0,0.0,1.7765,0.0,0.0,0.0,0.0,0.0,0.0,0.0,0.0,0.0,0.0,0.0,0.0,2.3092,2.3595,2.3595,2.3958,2.45,2.5169,2.6677,2.8353,2.9324,3.115,3.2946,3.338,3.3889,3.4248,3.4113,3.317,3.16,2.8981,2.7872,2.6671,2.4118,2.3595,2.3759,2.4291,2.4933,2.5779,2.6986,2.8695,3.0387,3.1854,3.323,3.4383,3.519,3.5415,3.5504,3.5504,3.5504,0.0,3.5504,3.5504,3.5504,3.5504,3.5504,3.5504,3.5504,3.5504,3.5504,3.5504,3.6641,3.7285,3.7402,3.8599,3.9257,3.9406,3.9406,3.9406,3.9406,3.9406,0.0,0.0,3.9406,3.9406,3.9406,3.9406,3.9406,3.9406,3.9406,3.9829,4.0449,0.0,0.0,0.0,0.0,0.0,0.0,0.0,0.0,1.2932,1.291,1.2755,1.2538,1.2297,1.2266,0.0,0.0,0.0,0.0,0.0,0.0,0.0,0.0,0.0,0.0,0.0,0.0,0.0,1.5849,1.5813,0.0,0.0,0.0,0.0,0.0,0.0,1.8431,1.9708,0.0,0.0,0.0,0.0,0.0,0.0,0.0,0.0,0.0,0.0,2.3092,2.3595,2.3595,2.364,2.3819,2.4485,2.5648,2.7153,2.9039,3.0162,3.1165,3.3006,3.3544,3.344,3.2841,3.2123,3.0898,2.8291,2.718,2.6105,2.4029,2.3595,2.3625,2.3684,2.4242,2.4933,2.5663,2.6958,2.853,3.0417,3.1854,3.3155,3.4443,3.513,3.5504,3.5504,3.5504,3.5504,3.5504,3.5504,3.5504,3.5504,3.5504,3.5504,3.5504,3.5504,3.5504,3.5504,3.6207,3.6851,3.7402,3.8138,3.8811,3.9406,3.9406,3.9406,3.9406,3.9406,0.0,0.0,3.9406,3.9406,3.9406,3.9406,3.9406,3.9406,3.9406,3.9445,3.9628,0.0,0.0,0.0,0.0,0.0,0.0,0.0,0.0,1.2038,1.1875,1.2149,1.2261,1.1982,1.232,0.0,0.0,0.0,0.0,0.0,0.0,0.0,0.0,0.0,0.0,0.0,0.0,0.0,1.5799,1.5799,0.0,0.0,0.0,0.0,0.0,0.0,1.8431,1.9708,0.0,0.0,0.0,0.0,0.0,0.0,0.0,0.0,0.0,0.0,0.0,2.3595,2.3595,2.3595,2.3655,2.3913,2.4358,2.5282,2.769,2.9142,3.0222,3.1375,3.1689,3.1629,3.136,3.0523,2.9267,2.7423,2.6479,2.554,2.3924,2.3595,2.3595,2.3595,2.3808,2.4227,2.4889,2.5782,2.7081,2.9086,3.0822,3.2407,3.3739,3.4846,3.5504,3.5504,3.5504,3.5504,3.5504,3.5504,3.5504,3.5504,3.5504,3.5504,3.5504,3.5504,3.5504,3.5504,3.6148,3.6628,3.6866,3.7916,3.8542,3.8811,3.9212,3.9406,3.9406,3.9406,0.0,0.0,3.9406,3.9406,3.9406,3.9406,3.9406,3.9406,3.9406,3.9406,3.9445,0.0,0.0,0.0,0.0,0.0,0.0,1.0009,1.0979,1.1635,1.1454,1.181,1.2003,1.1826,1.2214,1.2768,1.3451,0.0,0.0,0.0,0.0,0.0,0.0,0.0,0.0,0.0,0.0,0.0,0.0,1.5799,1.5896,0.0,0.0,1.6593,1.7997,0.0,0.0,0.0,0.0,0.0,0.0,0.0,0.0,0.0,0.0,0.0,0.0,0.0,0.0,0.0,0.0,0.0,2.3565,2.3396,2.3456,2.4044,2.633,2.7812,2.8889,2.9714,3.0073,3.0193,2.9998,2.9101,2.7949,2.6602,2.5794,2.499,2.3834,2.3595,2.3595,2.3595,2.3595,2.3748,0.0,0.0,2.5872,2.7485,2.9222,3.0762,3.1913,3.3066,3.3978,3.4562,3.516,3.5504,3.5504,3.5504,3.5504,3.5504,3.5504,3.5504,3.5504,3.5504,3.5504,3.5504,3.5968,3.6314,3.6508,3.7422,3.805,3.8424,3.8901,3.9212,3.9406,3.9406,0.0,0.0,3.9182,3.9092,3.9077,3.8883,3.8808,3.8808,3.8808,3.8808,3.8808,0.0,0.0,0.0,0.0,0.0,0.0,0.0,0.0,1.2195,1.219,1.1961,1.179,1.1805,1.1805,1.208,1.275,0.0,0.0,0.0,0.0,0.0,0.0,0.0,0.0,0.0,0.0,0.0,0.0,0.0,0.0,1.6689,1.6076,1.6832,1.8664,0.0,0.0,0.0,0.0,0.0,0.0,0.0,0.0,0.0,0.0,0.0,0.0,0.0,0.0,0.0,0.0,0.0,0.0,0.0,2.3112,2.3864,2.5214,2.6093,2.6929,2.8263,2.9099,2.9443,2.8786,2.8111,2.727,2.5914,2.5083,2.4425,2.3744,2.3595,2.3595,2.3595,2.3595,2.3595,2.361,2.4171,0.0,2.5528,2.6794,2.7899,2.8562,2.9249,3.0416,3.2347,3.4322,3.5504,3.5504,3.5504,0.0,3.5504,3.5504,3.5504,3.5504,3.5504,3.5504,3.5504,3.5519,3.5833,3.6508,3.6508,3.7182,3.8409,3.8424,3.8781,0.0,0.0,0.0,0.0,3.8676,3.8424,3.8332,3.7689,3.7417,3.7417,3.7417,3.7417,3.7417,0.0,0.0,0.0,0.0,0.0,0.0,0.0,0.0,1.1933,1.1933,1.1844,1.1805,1.1805,1.2214,1.2564,1.278,0.0,0.0,0.0,0.0,0.0,0.0,0.0,0.0,0.0,0.0,0.0,0.0,0.0,0.0,0.0,0.0,1.6996,1.8027,1.8267,0.0,0.0,0.0,0.0,0.0,0.0,0.0,0.0,0.0,0.0,0.0,0.0,0.0,0.0,0.0,0.0,0.0,0.0,0.0,0.0,2.3606,2.4388,2.5438,2.6306,2.6695,2.6811,2.6602,2.6048,2.5438,2.5008,2.4406,2.3864,2.364,2.3595,2.3595,2.3595,2.3595,2.3595,2.3595,2.3789,2.4152,2.4814,2.6871,2.8695,2.9774,3.2108,3.3873,3.4486,0.0,3.5504,3.5504,3.5504,3.5504,3.5504,3.5504,3.5504,3.5504,3.5504,3.5504,3.5504,3.5504,3.5609,3.5818,3.6284,3.6718,3.7122,3.7524,3.7838,0.0,0.0,0.0,0.0,3.7808,3.7719,3.7704,3.7477,3.7387,3.7387,3.7387,3.7387,3.7387,0.0,0.0,0.0,0.0,0.0,0.0,0.0,0.0,1.1805,1.1805,1.1805,1.1805,1.1805,1.2169,1.2415,1.2415,0.0,0.0,0.0,0.0,0.0,0.0,0.0,0.0,0.0,0.0,0.0,0.0,0.0,0.0,0.0,0.0,0.0,0.0,0.0,0.0,0.0,0.0,0.0,0.0,0.0,0.0,1.9048,0.0,0.0,0.0,0.0,0.0,0.0,0.0,0.0,0.0,0.0,0.0,0.0,0.0,2.3221,2.4377,2.5038,2.5408,2.5543,2.5289,2.4903,2.453,2.4276,2.3898,2.3595,2.3595,2.3595,2.3595,2.3595,2.3595,2.3595,2.3595,2.3595,2.3924,2.4844,2.6425,2.8038,2.9594,3.2512,3.4366,0.0,3.5039,3.5504,3.5504,3.5504,0.0,3.5504,3.5504,3.5504,3.5504,3.5504,3.5504,3.5504,3.5504,3.5504,3.5504,3.5923,3.6269,3.6508,3.6881,3.718,0.0,0.0,0.0,0.0,3.715,3.706,3.7045,3.6774,3.6669,3.6669,3.6669,3.6669,3.6669,0.0,0.0,0.0,0.0,0.0,0.0,0.0,0.0,0.0,0.0,0.0,1.1805,1.1805,1.1805,0.0,0.0,0.0,0.0,0.0,0.0,0.0,0.0,0.0,0.0,0.0,0.0,0.0,1.5755,1.5726,1.5477,1.5074,0.0,0.0,0.0,0.0,0.0,0.0,0.0,0.0,0.0,0.0,0.0,0.0,0.0,0.0,0.0,0.0,0.0,0.0,0.0,0.0,0.0,0.0,0.0,0.0,0.0,0.0,0.0,0.0,2.4978,2.5304,2.4679,2.453,2.4365,2.3744,2.3595,0.0,2.3595,2.3595,2.3595,2.3595,2.3595,2.3595,2.3595,2.3595,2.4073,2.5408,2.5842,2.6695,2.8517,3.1091,3.2662,3.2512,3.4322,3.5504,3.5504,3.5504,0.0,3.5504,3.5504,3.5504,3.5504,3.5504,3.5504,3.5504,3.5504,3.5504,3.5504,3.5504,3.5833,3.6434,3.6434,3.6731,0.0,0.0,0.0,0.0,3.6656,3.6434,3.6374,3.5744,3.5504,3.5504,3.5504,3.5504,3.5504,0.0,0.0,0.0,0.0,0.0,0.0,0.0,0.0,0.0,0.0,0.0,0.0,0.0,0.0,0.0,0.0,0.0,0.0,0.0,0.0,0.0,0.0,0.0,0.0,0.0,0.0,0.0,1.5255,1.4953,1.4752,1.4657,1.5284,0.0,0.0,0.0,0.0,0.0,0.0,0.0,0.0,0.0,0.0,0.0,0.0,0.0,0.0,2.0017,2.0804,0.0,0.0,0.0,0.0,0.0,0.0,0.0,0.0,2.2592,2.3625,2.3789,0.0,2.4029,2.3879,2.3849,2.3789,0.0,2.3595,2.3595,2.3595,2.3595,2.3595,2.3595,2.3595,2.3595,2.3595,2.3595,2.4073,2.5408,2.822,3.009,3.0058,3.2856,3.4187,3.2647,3.4322,3.5504,3.5504,3.5504,3.5504,3.5504,3.5504,3.5504,3.5504,3.5504,3.5504,3.5504,3.5504,3.5504,3.5504,3.5504,3.5594,3.5744,3.5744,3.5818,0.0,0.0,0.0,3.5953,3.5789,3.5744,3.5729,3.5564,3.5504,3.5504,3.5504,3.5504,3.5504,0.0,0.0,0.0,0.0,0.0,0.0,0.0,0.0,0.0,0.0,0.0,0.0,0.0,0.0,0.0,0.0,0.0,0.0,0.0,0.0,0.0,0.0,0.0,0.0,0.0,0.0,0.0,0.0,0.0,1.4414,0.0,0.0,0.0,0.0,0.0,0.0,0.0,0.0,0.0,0.0,1.7414,0.0,0.0,0.0,0.0,0.0,1.9068,1.9901,0.0,2.1647,2.1614,2.1349,0.0,0.0,0.0,0.0,2.201,2.2417,2.2658,2.315,2.3595,2.3595,2.3595,2.3595,2.3595,2.3595,2.3595,2.3595,2.3595,2.3595,2.3595,2.3853,2.3958,2.3655,2.4373,2.5342,2.6375,2.8637,3.0373,3.0897,3.2826,3.4052,0.0,3.486,3.5504,3.5504,0.0,3.5504,3.5504,3.5504,3.5504,3.5504,3.5504,3.5504,3.5504,3.5504,3.5504,3.5504,3.5504,3.5504,3.5504,3.5504,3.5504,0.0,0.0,0.0,3.5504,3.5504,3.5504,3.5504,3.5504,3.5504,3.5504,3.5504,3.5504,3.5504,0.0,0.0,0.0,0.0,0.0,0.0,0.0,0.0,0.0,0.0,0.0,0.0,0.0,0.0,0.0,0.0,0.0,0.0,0.0,0.0,0.0,0.0,0.0,0.0,0.0,0.0,0.0,0.0,0.0,0.0,0.0,0.0,1.3909,0.0,0.0,0.0,0.0,0.0,0.0,0.0,1.6675,0.0,0.0,0.0,0.0,0.0,0.0,0.0,0.0,2.0592,2.0695,2.0744,2.1254,0.0,0.0,0.0,0.0,0.0,2.1578,2.2489,2.333,2.3443,2.353,2.3595,2.3595,2.3595,2.3595,2.3595,2.3595,2.3625,2.3729,2.4137,2.4291,2.3823,2.5435,2.7048,2.7929,2.88,2.988,3.1331,3.2348,0.0,3.4905,3.5325,3.5504,3.5504,0.0,3.5504,3.5504,3.5504,3.5504,3.5504,3.5504,3.5504,3.5504,3.5504,3.5504,3.5504,3.5504,3.5504,3.5504,3.5504,3.5504,3.5504,0.0,0.0,3.5504,3.5504,3.5504,3.5504,3.5504,3.5504,3.5504,3.5504,3.5504,3.5504,0.0,0.0,0.0,0.0,0.0,0.0,0.0,0.0,0.0,0.0,0.0,0.0,0.0,0.0,0.0,0.0,0.0,0.0,0.0,0.0,0.0,0.0,0.0,0.0,0.0,0.0,0.0,0.0,0.0,0.0,1.3306,1.3365,1.3323,0.0,0.0,0.0,1.5037,1.5533,1.6243,1.7,1.6712,0.0,0.0,0.0,0.0,0.0,0.0,0.0,0.0,2.0194,2.0005,1.9985,2.013,0.0,0.0,0.0,0.0,0.0,2.1681,2.1843,2.2121,2.2691,2.3209,2.3595,2.3595,2.3595,2.3595,2.3595,2.3595,2.3763,2.4335,2.4077,2.3913,2.4365,2.6123,2.8064,2.9804,3.1614,3.2452,3.16,0.0,3.4486,3.3095,3.4501,3.5504,0.0,0.0,3.5504,3.5504,3.5504,3.5504,3.5504,3.5504,3.5504,3.5504,3.5504,3.5504,3.5504,3.5504,3.5504,3.5504,3.5504,3.5504,0.0,0.0,3.5504,3.5504,3.5504,3.5504,3.5504,3.5504,3.5504,3.5504,3.5504,3.5504,3.5504,0.0,0.0,0.0,0.0,0.0,0.0,0.0,0.0,0.0,0.0,0.0,0.0,0.0,0.0,0.0,0.0,0.0,0.0,0.0,0.0,0.0,0.0,0.0,0.0,0.0,0.0,0.0,0.0,0.0,1.3198,1.321,1.3534,1.4007,1.4576,0.0,0.0,1.5781,1.6032,1.642,1.6858,0.0,0.0,0.0,0.0,0.0,0.0,0.0,0.0,0.0,0.0,1.9351,1.9868,2.0266,0.0,0.0,0.0,0.0,0.0,2.0241,2.0747,2.1335,2.161,2.2406,2.3201,2.353,2.3595,2.3595,2.3595,2.3595,2.3804,2.4485,2.4309,2.4648,2.637,2.7198,2.8289,3.0223,3.0702,3.115,0.0,0.0,3.3933,3.4097,3.4966,0.0,0.0,0.0,0.0,3.5504,3.5504,3.5504,3.5504,3.5504,3.5504,3.5504,3.5504,3.5504,3.5504,3.5504,3.5504,3.5504,3.5504,3.5504,3.5504,0.0,3.5504,3.5504,3.5504,3.5504,3.5504,3.5504,3.5504,3.5504,3.5504,3.5504,3.5504,0.0,0.0,0.0,0.0,0.0,0.0,0.0,0.0,0.0,0.0,0.0,0.0,0.0,0.0,0.0,0.0,0.0,0.0,0.0,0.0,0.0,0.0,0.0,0.0,0.0,0.0,1.3198,1.3198,1.3341,1.3487,1.3616,1.4076,1.4727,0.0,0.0,0.0,1.63,1.63,1.6398,1.65,0.0,0.0,0.0,0.0,0.0,0.0,0.0,0.0,0.0,0.0,0.0,0.0,0.0,0.0,0.0,1.956,1.9289,1.8995,1.8991,1.9715,2.0519,2.0736,2.1856,2.2987,2.3323,2.3497,2.3596,2.3581,2.3699,2.3944,2.429,2.4428,2.5256,2.7603,2.7861,2.8571,3.0883,3.0357,3.0612,3.2931,3.32,3.3798,3.5338,3.5504,0.0,0.0,0.0,0.0,3.5504,3.5504,3.5504,3.5504,3.5504,3.5504,3.5504,3.5504,3.5504,3.5504,3.5504,3.5504,3.5504,3.5504,3.5504,3.5504,3.5504,3.5504,3.5504,3.5504,3.5504,3.5504,3.5504,3.5504,3.5504,3.5504,3.5504,3.5504,0.0,0.0,0.0,0.0,0.0,0.0,0.0,0.0,0.0,0.0,0.0,0.0,0.0,0.0,0.0,0.0,0.0,0.0,0.0,0.0,0.0,0.0,0.0,0.0,0.0,1.296,1.3198,1.3198,1.3765,1.4286,1.478,1.4818,1.4881,1.4956,0.0,1.5261,1.5766,1.5766,1.6034,1.65,1.65,0.0,0.0,0.0,0.0,0.0,0.0,0.0,0.0,0.0,0.0,0.0,0.0,0.0,1.8322,1.8338,1.8661,1.8993,1.9004,1.9073,1.9406,2.0515,2.217,2.3399,2.2875,2.3201,2.3584,2.3513,2.4041,2.4354,2.379,2.4067,2.4918,2.648,2.7573,2.9435,3.2795,0.0,3.3679,3.5099,3.5279,3.5355,3.5489,0.0,0.0,0.0,0.0,0.0,3.5504,3.5504,3.5504,3.5504,3.5504,3.5504,3.5504,3.5504,3.5504,3.5504,3.5504,3.5504,3.5504,3.5504,3.5504,3.5504,3.5504,3.5504,3.5504,3.5504,3.5504,3.5504,3.5504,3.5504,3.5504,3.5504,3.5504,3.5504,0.0,0.0,0.0,0.0,0.0,0.0,0.0,0.0,0.0,0.0,0.0,0.0,0.0,0.0,0.0,0.0,0.0,0.0,0.0,0.0,0.0,0.0,0.0,1.2408,1.2408,1.2931,1.3198,1.3198,1.3799,1.4551,1.5399,1.5399,0.0,0.0,1.5894,1.6007,1.6197,1.6197,1.63,1.65,1.65,1.65,0.0,0.0,0.0,0.0,0.0,0.0,0.0,0.0,1.8945,1.9384,0.0,1.8594,1.8567,1.79,1.8318,1.8932,1.859,1.9292,2.0048,1.9758,2.1058,2.2469,2.266,2.3191,2.3644,2.3573,2.4086,2.4195,2.3067,2.537,2.7074,2.592,2.7879,3.0273,3.2383,3.3161,3.3993,3.534,3.5504,3.5504,0.0,0.0,0.0,0.0,0.0,0.0,3.5504,3.5504,3.5504,3.5504,3.5504,3.5504,3.5504,3.5504,3.5504,3.5504,3.5504,3.5504,3.5504,3.5504,3.5504,3.5504,3.5504,3.5504,3.5504,3.5504,3.5504,3.5504,3.5504,3.5504,3.5504,3.5504,3.5504,3.5504,0.0,0.0,0.0,0.0,0.0,0.0,0.0,0.0,0.0,0.0,0.0,0.0,0.0,0.0,0.0,0.0,0.0,0.0,0.0,0.0,0.0,0.0,0.0,1.2643,1.2643,1.301,1.3198,1.3198,1.3979,1.4805,1.5703,0.0,0.0,0.0,1.65,1.65,1.65,1.65,1.65,1.65,1.65,1.65,0.0,0.0,0.0,0.0,0.0,0.0,0.0,0.0,1.8719,0.0,0.0,0.0,0.0,1.7562,1.8041,1.8669,1.8304,1.907,1.9866,1.9371,2.0055,2.1117,2.2124,2.2866,2.3378,2.3476,2.38,2.3891,2.3357,2.579,0.0,0.0,2.7726,3.0113,3.1936,3.271,3.3682,3.5307,3.5504,0.0,0.0,0.0,0.0,0.0,0.0,0.0,0.0,3.5504,3.5504,3.5504,3.5504,3.5504,3.5504,3.5504,3.5504,3.5504,3.5504,3.5504,3.5504,3.5504,3.5504,3.5504,3.5504,3.5504,3.5504,3.5504,3.5504,3.5504,3.5504,3.5504,3.5504,3.5504,3.5504,3.5504,0.0,0.0,0.0,0.0,0.0,0.0,0.0,0.0,0.0,0.0,0.0,0.0,0.0,0.0,0.0,0.0,0.0,0.0,0.0,0.0,0.0,0.0,0.0,1.3198,1.3198,1.3198,1.3198,1.321,1.4346,1.5173,1.5716,1.6247,0.0,0.0,0.0,1.65,1.65,1.65,1.65,1.65,1.65,1.65,1.65,0.0,0.0,0.0,0.0,0.0,0.0,0.0,1.828,1.7588,0.0,0.0,0.0,0.0,1.7776,1.8191,1.8204,1.8204,1.8468,1.9522,1.9397,1.9472,2.1198,2.2113,2.2731,2.3212,2.322,2.3527,2.485,2.4951,0.0,2.5959,2.7,2.8749,3.1745,3.2189,3.3017,3.5211,3.5488,0.0,0.0,0.0,0.0,0.0,0.0,0.0,0.0,3.5504,3.5504,3.5504,3.5504,3.5504,3.5504,3.5504,3.5504,3.5504,3.5504,3.5504,3.5504,3.5504,3.5504,3.5504,3.5504,3.5504,3.5504,3.5504,3.5504,3.5504,3.5504,3.5504,3.5504,3.5504,3.5504,3.5504,0.0,0.0,0.0,0.0,0.0,0.0,0.0,0.0,0.0,0.0,0.0,0.0,0.0,0.0,0.0,0.0,0.0,0.0,0.0,0.0,0.0,0.0,0.0,0.0,0.0,0.0,1.3403,1.3837,1.4554,1.5173,0.0,0.0,0.0,1.65,0.0,0.0,1.65,1.65,1.65,1.65,1.65,1.65,1.65,0.0,0.0,0.0,0.0,0.0,0.0,0.0,0.0,0.0,0.0,0.0,0.0,1.736,1.7512,1.7726,1.8103,1.8481,1.8757,1.8681,1.9434,2.0329,2.0856,2.2113,2.3431,2.437,2.4945,2.5087,2.4438,2.5694,0.0,2.5371,2.6593,2.817,2.9553,3.1162,3.2619,3.3753,0.0,0.0,0.0,0.0,0.0,0.0,0.0,0.0,0.0,3.5504,3.5504,3.5504,3.5504,3.5504,3.5504,3.5504,3.5504,3.5504,3.5504,3.5504,3.5504,3.5504,3.5504,3.5504,3.5504,3.5504,3.5504,3.5504,3.5504,3.5504,3.5504,3.5504,3.5504,3.5504,3.5504,3.5504,0.0,0.0,0.0,0.0,0.0,0.0,0.0,0.0,0.0,0.0,0.0,0.0,0.0,0.0,0.0,0.0,0.0,0.0,0.0,0.0,0.0,0.0,0.0,0.0,0.0,1.3198,1.35,0.0,0.0,0.0,0.0,0.0,0.0,1.65,0.0,1.65,0.0,1.65,1.65,1.65,1.65,1.65,1.65,0.0,0.0,0.0,0.0,0.0,0.0,0.0,0.0,0.0,1.7011,0.0,1.741,1.741,1.755,1.7827,1.8368,1.8606,1.8719,1.8807,1.9773,2.0867,2.1507,2.2491,2.3604,2.4751,2.5326,2.55,2.5076,2.6228,0.0,2.5673,2.647,2.7562,2.8565,2.992,3.1188,3.2219,0.0,0.0,0.0,0.0,0.0,0.0,0.0,0.0,0.0,3.5504,3.5504,3.5504,3.5504,3.5504,3.5504,3.5504,3.5504,3.5504,3.5504,3.5504,3.5504,3.5504,3.5504,3.5504,3.5504,3.5504,3.5504,3.5504,3.5504,3.5504,3.5504,3.5504,3.5504,3.5504,3.5504,3.5504,0.0,0.0,0.0,0.0,0.0,0.0,0.0,0.0,0.0,0.0,0.0,0.0,0.0,0.0,0.0,0.0,0.0,0.0,0.0,0.0,0.0,0.0,0.0,0.0,0.0,0.0,0.0,0.0,0.0,0.0,0.0,0.0,1.65,1.65,0.0,1.65,1.65,1.65,1.65,1.65,1.65,1.65,1.65,1.65,0.0,0.0,0.0,0.0,0.0,0.0,0.0,0.0,1.7299,1.7437,1.741,1.7461,1.7777,1.8242,1.8782,1.8619,1.8518,1.9472,2.0251,2.1168,2.2744,2.3108,2.3421,2.4578,2.4804,2.5143,2.6298,2.6499,2.6499,2.6499,2.6499,2.6977,2.8313,2.8618,2.9221,0.0,0.0,0.0,0.0,0.0,0.0,0.0,0.0,0.0,0.0,3.5474,3.5504,3.5504,3.5504,3.5504,3.5504,3.5504,3.5504,3.5504,3.5444,3.5415,3.5415,3.5474,3.5504,3.5504,3.5504,3.5504,3.5504,3.5504,3.5504,3.5504,3.5504,3.5504,3.5504,3.5504,3.5504,3.5504,0.0,0.0,0.0,0.0,0.0,0.0,0.0,0.0,0.0,0.0,0.0,0.0,0.0,0.0,0.0,0.0,0.0,0.0,0.0,0.0,0.0,0.0,0.0,0.0,0.0,0.0,0.0,0.0,0.0,0.0,0.0,0.0,0.0,1.65,0.0,1.65,1.65,1.65,1.65,1.65,1.65,1.65,1.65,1.65,1.65,0.0,0.0,0.0,0.0,0.0,0.0,0.0,1.799,1.7738,1.7475,1.7903,1.7814,1.7688,1.8229,1.8594,1.8882,1.9108,2.0263,2.1645,2.2832,2.3108,2.3421,2.4578,2.4804,2.5143,2.6298,2.6499,2.6499,2.6499,2.6499,2.661,2.693,2.7974,2.882,0.0,0.0,0.0,0.0,0.0,0.0,0.0,0.0,0.0,3.4712,3.5205,3.5504,3.5504,3.5504,3.5504,3.5504,3.5504,3.5504,0.0,3.4982,3.4712,3.4727,3.525,3.5504,3.5504,3.5504,3.5504,3.5504,3.5504,3.5504,3.5504,3.5504,3.5504,3.5504,3.5504,3.5504,3.5504,0.0,0.0,0.0,0.0,0.0,0.0,0.0,0.0,0.0,0.0,0.0,0.0,0.0,0.0,0.0,0.0,0.0,0.0,0.0,0.0,0.0,0.0,0.0,0.0,0.0,0.0,0.0,0.0,0.0,0.0,0.0,0.0,0.0,1.65,0.0,1.65,1.65,1.65,1.65,1.65,1.65,1.65,1.65,1.65,1.65,1.65,1.65,0.0,0.0,0.0,0.0,0.0,0.0,0.0,1.7789,1.7814,1.7613,1.7575,1.8368,1.8606,1.8807,1.961,2.0652,2.1707,2.2533,2.292,2.3346,2.4227,2.4628,2.5055,2.5917,2.6311,2.6499,2.6499,2.6499,2.6499,2.6499,2.7161,0.0,0.0,0.0,0.0,0.0,0.0,0.0,0.0,0.0,3.3571,3.4008,3.4352,3.4547,3.4547,3.4547,3.4547,3.4547,3.4547,3.4547,3.4532,3.4203,3.4024,3.4039,3.4382,3.4547,3.4562,3.4876,3.5011,3.5056,3.537,3.5504,3.5504,3.5504,3.5504,3.5504,3.5504,3.5504,3.5504,0.0,0.0,0.0,0.0,0.0,0.0,0.0,0.0,0.0,0.0,0.0,0.0,0.0,0.0,0.0,0.0,0.0,0.0,0.0,0.0,0.0,0.0,0.0,0.0,0.0,0.0,0.0,0.0,0.0,0.0,0.0,0.0,0.0,1.65,0.0,1.65,1.65,1.65,1.65,1.65,1.65,1.65,1.65,1.65,1.65,1.65,1.65,1.6574,1.6749,1.7349,0.0,0.0,0.0,0.0,1.8091,1.7562,1.741,1.7588,1.8481,1.8543,1.8719,2.0302,2.1106,2.1631,2.2169,2.2706,2.3246,2.3738,2.4277,2.4854,2.5485,2.6005,2.6386,2.6474,2.6499,2.6499,2.6499,2.6499,0.0,0.0,0.0,0.0,0.0,0.0,0.0,0.0,0.0,3.2204,3.306,3.3072,3.3208,3.3499,3.3346,3.3346,3.3499,3.3499,3.3499,3.3499,3.338,3.326,3.3155,3.3155,3.3275,3.3529,3.4084,3.4323,3.4368,3.4921,3.522,3.5325,3.5325,3.54,3.5504,3.5504,3.5504,3.5504,0.0,0.0,0.0,0.0,0.0,0.0,0.0,0.0,0.0,0.0,0.0,0.0,0.0,0.0,0.0,0.0,0.0,0.0,1.2396,0.0,0.0,1.3198,1.3198,0.0,0.0,0.0,0.0,0.0,0.0,0.0,0.0,0.0,0.0,1.65,0.0,1.65,1.65,1.65,1.65,1.65,1.65,1.65,1.65,1.65,1.65,1.65,1.65,1.6835,1.7361,1.7903,1.8393,0.0,0.0,0.0,1.8091,1.7562,1.741,1.7424,1.7575,1.823,1.9183,2.0402,2.1106,2.1631,2.2169,2.2706,2.3118,2.3208,2.3687,2.4418,2.541,2.5678,2.5891,2.6411,2.6499,2.6499,2.6499,2.6499,0.0,0.0,0.0,0.0,0.0,0.0,0.0,0.0,2.9542,3.0642,3.1462,3.1393,3.1996,3.3438,3.2772,3.2741,3.3499,3.3499,3.3499,3.3484,3.2916,3.2333,3.1765,3.1765,3.2407,3.3499,3.3589,3.3619,3.3649,3.3724,3.4113,3.4622,3.4622,3.4997,3.5504,3.5504,3.5504,3.5504,0.0,0.0,0.0,0.0,0.0,0.0,0.0,0.0,0.0,0.0,0.0,0.0,0.0,0.0,0.0,1.2027,1.2538,1.2843,1.2843,1.3073,1.3198,1.3198,1.3198,1.3198,0.0,0.0,0.0,0.0,0.0,0.0,0.0,1.6398,1.65,0.0,0.0,0.0,0.0,1.65,1.65,1.65,1.65,1.6699,1.6974,1.6624,1.6712,1.6961,1.6624,0.0,1.7036,1.7915,1.8355,1.8594,1.8907,0.0,0.0,0.0,1.741,1.7473,1.7776,1.8405,1.9196,2.0,2.0629,2.1193,2.1732,2.227,2.2732,2.3045,2.3308,2.3738,2.4556,2.4958,2.5247,2.5498,2.5548,2.5653,2.5954,2.5992,0.0,0.0,0.0,0.0,0.0,0.0,0.0,0.0,2.8341,2.9083,2.9915,2.9911,3.0223,3.0965,3.0605,3.084,3.1687,3.1717,3.1929,3.2377,3.2078,3.1795,3.1511,3.1511,3.1824,3.2407,3.2781,3.2946,3.2976,3.335,3.3664,3.3934,3.3934,3.4353,3.4952,3.4952,3.5175,3.5504,0.0,0.0,0.0,0.0,0.0,0.0,0.0,0.0,0.0,0.0,0.0,0.0,0.0,0.0,0.0,0.0,1.2968,1.3198,1.3198,1.3198,1.3198,1.3198,1.3198,1.3269,1.3437,0.0,0.0,0.0,0.0,0.0,1.65,1.65,1.65,0.0,1.65,1.65,0.0,0.0,1.65,1.65,1.6674,1.6999,1.7373,1.7061,1.7212,1.7525,1.6936,0.0,0.0,0.0,1.8091,1.8267,1.8669,1.8795,0.0,0.0,0.0,1.7487,1.789,1.8393,1.8932,1.9459,2.0037,2.0616,2.1168,2.1707,2.2245,0.0,2.2895,2.3085,2.365,2.4214,2.4641,2.4779,2.4804,2.4942,2.5347,2.5398,0.0,0.0,0.0,0.0,0.0,0.0,0.0,0.0,2.7401,2.7769,2.862,2.8476,2.8556,2.8987,2.8796,2.9192,3.0299,3.0509,3.0911,3.1511,3.1511,3.1511,3.1511,3.1511,3.1511,3.1525,3.2033,3.2258,3.2288,3.2781,3.3095,3.3245,3.3245,3.3664,3.4248,3.4248,3.4682,3.525,0.0,0.0,0.0,0.0,0.0,0.0,0.0,0.0,0.0,0.0,0.0,0.0,0.0,1.204,1.2576,1.311,1.3185,1.3198,1.3198,1.3198,1.3198,1.3198,1.3198,0.0,1.4044,0.0,0.0,0.0,0.0,0.0,1.65,1.65,1.65,1.65,1.65,1.65,1.65,0.0,0.0,0.0,1.7123,1.7361,1.7449,1.7928,0.0,0.0,0.0,0.0,0.0,0.0,0.0,0.0,0.0,1.823,1.8129,0.0,0.0,0.0,1.7424,1.7827,1.8368,1.8907,1.9447,1.9999,2.0603,2.1169,2.1681,2.2219,2.2332,2.2508,2.3045,2.3637,2.4217,2.4729,2.4804,2.4816,2.4842,2.4842,0.0,0.0,0.0,0.0,0.0,0.0,0.0,0.0,2.6555,2.6922,2.772,2.704,2.7351,2.8955,2.8198,2.8572,3.0284,3.1058,3.1452,3.1511,3.1511,3.1511,3.1511,3.1511,3.1511,3.1511,3.154,3.1555,3.1555,3.1585,3.1974,3.2542,3.2542,3.2961,3.3544,3.3544,3.3979,3.4548,0.0,0.0,0.0,0.0,0.0,0.0,0.0,0.0,0.0,0.0,0.0,0.0,0.0,1.1538,1.2095,1.2638,1.3006,1.3198,1.3198,1.3198,1.3198,1.3198,1.3571,1.3875,1.4103,1.4447,0.0,0.0,0.0,1.5969,1.65,1.65,1.65,1.65,1.65,1.65,1.65,1.65,0.0,0.0,0.0,0.0,0.0,0.0,0.0,0.0,0.0,0.0,0.0,0.0,0.0,0.0,0.0,0.0,0.0,1.7562,1.7135,1.6911,1.7286,1.7537,1.7826,1.8343,1.8895,1.9434,1.9987,2.0565,2.1144,2.1683,2.1782,2.1945,2.2483,2.3032,2.3499,2.3684,2.371,2.3835,2.4227,2.4293,0.0,0.0,0.0,0.0,0.0,0.0,0.0,0.0,0.0,2.6624,2.6905,2.6658,2.6782,2.7384,2.7078,2.7753,2.9442,3.0314,3.0999,3.1511,3.1511,3.1511,3.1511,3.1511,3.1511,3.1511,3.1511,3.1511,3.1511,3.1511,3.1645,3.1854,3.1854,3.2273,3.2856,3.2856,3.3275,3.3919,0.0,0.0,0.0,0.0,0.0,0.0,0.0,0.0,0.0,0.0,0.0,0.0,0.0,0.0,1.1897,1.2613,1.2994,1.3198,1.3198,1.3198,1.3198,1.3198,1.3584,1.3887,1.4103,0.0,0.0,0.0,0.0,0.0,0.0,1.65,1.65,1.65,1.65,1.65,0.0,0.0,0.0,1.7423,0.0,0.0,1.8945,0.0,0.0,0.0,0.0,0.0,0.0,0.0,0.0,0.0,0.0,0.0,0.0,0.0,1.7075,1.7075,1.7087,1.7248,1.7487,1.784,1.8204,1.8644,1.9359,1.9836,2.0339,2.1081,2.1218,2.1394,2.1933,2.232,2.2681,2.3045,2.3108,2.3246,2.3637,2.3703,0.0,0.0,0.0,0.0,0.0,0.0,0.0,0.0,0.0,0.0,2.6197,2.6197,2.6298,2.6487,2.6765,2.7571,2.8987,2.9858,3.0688,3.1511,3.1511,3.1511,3.1511,3.1511,3.1511,3.1511,3.1511,3.1511,3.1511,3.1511,3.1511,3.1511,3.1511,3.1765,3.2168,3.2168,3.2587,3.323,0.0,0.0,0.0,0.0,0.0,0.0,0.0,0.0,0.0,0.0,0.0,0.0,0.0,0.0,0.0,1.3106,1.3198,1.3198,1.3198,1.3198,1.3198,1.3198,1.3223,1.35,1.4081,0.0,0.0,0.0,0.0,0.0,0.0,0.0,1.65,1.65,1.65,1.65,1.6536,0.0,1.6862,1.7462,0.0,1.8556,1.9108,0.0,0.0,0.0,1.9233,1.9033,0.0,1.8418,0.0,0.0,0.0,0.0,0.0,0.0,0.0,1.7904,0.0,0.0,0.0,1.7361,1.7398,1.7676,1.8719,1.8983,1.9321,2.0427,2.0654,2.0842,2.1382,2.1482,2.182,2.2882,2.307,2.3083,2.3083,2.3095,0.0,0.0,0.0,0.0,0.0,0.0,0.0,0.0,2.4791,2.503,2.5548,2.5573,2.5841,2.6424,2.7211,2.803,2.89,2.9771,3.06,3.1407,3.1436,3.1451,3.1451,3.1451,3.1451,3.1466,3.1466,3.1481,3.1511,3.1511,3.1511,3.1511,3.1511,3.1511,3.1511,3.1511,3.1914,3.2467,0.0,0.0,0.0,0.0,0.0,0.0,0.0,0.0,0.0,0.0,0.0,0.0,0.0,0.0,1.245,1.3135,1.3198,1.3198,1.3198,1.3198,1.3198,1.3198,1.3618,1.3934,1.4103,0.0,0.0,0.0,0.0,0.0,0.0,0.0,0.0,0.0,1.65,1.6737,1.7148,1.7148,0.0,1.8028,1.8568,1.9359,0.0,0.0,0.0,0.0,0.0,1.9698,1.9045,0.0,1.8393,1.7251,0.0,0.0,0.0,0.0,0.0,0.0,1.6599,0.0,0.0,0.0,0.0,0.0,1.7765,1.8443,1.9096,1.9409,1.9773,2.0226,2.0817,2.0918,2.1157,2.1832,2.227,2.2521,2.2521,2.2857,0.0,0.0,0.0,0.0,0.0,0.0,0.0,0.0,2.4578,2.4867,2.5005,2.5017,2.5093,2.5272,2.5489,2.6016,2.6892,2.7674,2.845,2.9259,2.9853,3.0118,3.0118,3.0118,3.0357,3.0777,3.0777,3.1047,3.1511,3.1511,3.1511,3.1511,3.1511,3.1511,3.1511,3.1511,3.1615,3.1854,0.0,0.0,0.0,0.0,0.0,0.0,0.0,0.0,0.0,0.0,0.0,0.0,0.0,0.0,0.0,1.3173,1.3198,1.3198,1.3198,1.3198,1.3198,1.3198,1.3778,1.4103,1.4103,1.4931,0.0,0.0,0.0,0.0,0.0,0.0,0.0,0.0,0.0,0.0,0.0,0.0,0.0,0.0,1.887,0.0,0.0,2.0301,2.0728,0.0,0.0,0.0,2.0087,2.0401,1.9346,0.0,0.0,0.0,0.0,0.0,0.0,0.0,0.0,1.65,0.0,0.0,0.0,0.0,1.7625,1.8229,1.8794,0.0,1.9585,1.9911,2.0251,2.0314,2.0427,2.0741,2.1255,2.1707,2.1933,2.2232,0.0,0.0,0.0,0.0,0.0,2.3424,2.3625,2.3625,2.3913,2.4199,2.4453,2.4678,2.4804,2.4804,2.4804,2.5227,2.6085,2.6531,2.7298,2.841,2.8874,2.9291,2.9593,2.9593,2.9788,3.0133,3.0387,3.0717,3.1092,3.1391,3.1511,3.1467,3.1117,3.0999,3.097,3.0584,3.045,3.0507,0.0,0.0,0.0,0.0,0.0,0.0,0.0,0.0,0.0,0.0,0.0,0.0,0.0,0.0,0.0,0.0,1.3198,1.3198,1.3198,1.3198,0.0,1.3198,1.3778,1.4103,1.4103,1.468,0.0,0.0,0.0,0.0,0.0,0.0,0.0,0.0,0.0,0.0,0.0,0.0,0.0,1.9008,1.9058,1.9773,0.0,0.0,2.1169,2.1683,2.1683,2.1594,2.1482,2.1343,2.0639,0.0,0.0,0.0,0.0,0.0,1.7074,0.0,0.0,0.0,0.0,0.0,0.0,0.0,1.7778,1.8054,1.838,0.0,1.9585,1.9623,1.9623,1.9623,1.9623,1.9623,2.0125,2.0729,2.1331,2.1457,2.1683,0.0,0.0,0.0,2.2882,2.2982,2.3007,2.3007,2.307,2.3333,2.3879,2.4352,2.46,2.46,2.46,2.4973,2.5761,2.5869,2.6586,2.7954,2.8123,2.8557,2.9261,2.9342,2.9413,2.9518,3.0133,3.0432,3.0538,3.1212,3.1452,3.1292,3.0584,3.0238,3.0057,2.9286,2.9002,2.9002,0.9905,0.0,0.0,0.0,0.0,0.0,0.0,0.0,0.0,0.0,0.0,0.0,0.0,0.0,0.0,0.0,1.3198,1.3198,1.3198,1.3198,0.0,1.3198,1.3778,1.4103,1.4103,1.5047,0.0,0.0,0.0,0.0,0.0,0.0,0.0,0.0,0.0,0.0,0.0,0.0,0.0,1.9045,1.9472,0.0,2.1344,2.1344,2.1945,2.2782,2.2782,2.2232,2.1369,2.0439,1.9987,1.9698,0.0,0.0,0.0,1.7929,0.0,0.0,0.0,0.0,0.0,0.0,0.0,0.0,1.6787,1.7212,1.7613,0.0,1.8204,1.8518,1.8518,1.8518,1.8518,1.8518,1.897,1.9698,2.0717,2.1218,2.1545,0.0,0.0,0.0,2.1794,2.2194,2.2458,2.2458,2.2857,2.3158,2.3271,2.3371,2.3434,2.3434,2.3434,2.3497,2.3682,2.4341,2.4799,2.5104,2.6299,2.6951,2.7112,2.7717,2.8276,2.8831,2.9488,3.0057,3.0538,3.1212,3.1117,3.0524,3.0359,2.9873,2.9239,2.9066,2.9002,2.9002,0.9905,0.0,0.0,0.0,0.0,0.0,0.0,0.0,0.0,0.0,0.0,0.0,0.0,0.0,0.0,0.0,0.0,0.0,0.0,0.0,0.0,1.3198,1.4287,1.4773,1.4497,1.5808,0.0,0.0,0.0,0.0,0.0,0.0,0.0,0.0,0.0,0.0,0.0,0.0,1.892,1.9422,1.9685,0.0,2.1532,2.1794,2.2395,2.3108,2.3108,2.2744,2.2169,2.1329,2.069,0.0,0.0,1.8844,1.8154,0.0,1.799,1.8141,0.0,0.0,0.0,1.7801,0.0,0.0,0.0,1.7375,1.7486,1.7751,1.8016,1.8204,1.8204,1.8204,1.8204,1.8204,1.8656,1.912,1.9409,2.015,2.0752,0.0,0.0,0.0,2.1469,2.1732,2.1895,2.1895,2.2395,2.2694,2.2694,2.2957,2.3108,2.3108,2.3108,2.3108,2.3108,2.3499,2.3899,2.4307,2.5412,2.6135,2.651,2.6878,2.7432,2.8087,2.8033,2.8534,2.943,2.9725,2.9513,2.905,2.9473,2.9129,2.8298,2.7887,2.7753,2.7753,0.9905,0.0,0.0,0.0,0.0,0.0,0.0,0.0,0.0,0.0,0.0,0.0,0.0,0.0,0.0,0.0,0.0,0.0,0.0,0.0,0.0,1.3541,1.4922,1.5546,1.522,1.6476,0.0,0.0,0.0,0.0,0.0,0.0,0.0,0.0,0.0,0.0,0.0,0.0,0.0,1.9811,0.0,2.0527,2.1407,2.1945,2.2546,2.312,2.3233,2.3271,2.317,2.2521,2.1595,2.0578,1.9861,1.9045,0.0,0.0,0.0,0.0,0.0,0.0,0.0,0.0,0.0,1.7512,0.0,0.0,0.0,1.779,1.7866,1.7866,1.7866,0.0,0.0,0.0,0.0,0.0,0.0,1.8545,0.0,2.0138,0.0,0.0,0.0,2.1016,2.1142,2.1482,2.1694,2.1906,2.2119,2.2644,2.2945,2.2945,2.3045,2.3108,2.3108,2.3108,2.3424,2.4074,2.4965,2.5701,2.6283,2.6444,2.6826,2.7348,2.6692,2.7044,2.8096,2.8173,2.801,2.7769,2.846,2.823,2.7384,2.6731,2.6499,2.6499,0.9905,0.9905,0.0,0.0,0.0,0.0,0.0,0.0,0.0,0.0,0.0,0.0,0.0,0.0,0.0,0.0,0.0,0.0,1.562,0.0,0.0,0.0,1.5345,1.589,1.631,1.65,0.0,0.0,0.0,0.0,0.0,0.0,0.0,0.0,1.7653,0.0,0.0,0.0,1.9321,0.0,2.0376,2.0679,0.0,2.1394,2.2219,2.317,2.3715,2.3904,2.374,0.0,2.1595,2.0515,0.0,1.9008,1.8707,1.7701,0.0,0.0,0.0,0.0,0.0,0.0,1.8154,0.0,0.0,0.0,1.6613,1.6687,0.0,1.6688,0.0,0.0,0.0,0.0,0.0,0.0,1.5901,1.6456,1.7276,1.8355,0.0,0.0,0.0,1.9284,1.9898,2.1394,2.0614,2.0526,2.1545,2.2108,2.2383,2.2383,2.2844,2.3108,2.3108,2.3108,2.3153,2.3245,2.471,2.5439,2.555,2.6203,2.655,2.6618,2.647,2.6757,2.7367,2.7962,2.801,2.7703,2.7819,2.7351,2.6624,2.6521,2.6499,2.6499,0.9905,0.9905,1.0264,0.0,0.0,0.0,0.0,0.0,0.0,0.0,0.0,0.0,0.0,0.0,0.0,0.0,0.0,1.7426,0.0,0.0,0.0,0.0,0.0,0.0,0.0,1.7571,1.7585,0.0,1.6961,0.0,0.0,0.0,0.0,0.0,1.7513,0.0,1.838,0.0,1.9585,0.0,0.0,0.0,0.0,2.2374,2.3411,2.4111,2.4377,2.4252,2.3929,0.0,2.2135,0.0,0.0,0.0,0.0,0.0,0.0,0.0,0.0,0.0,0.0,0.0,0.0,0.0,1.7462,0.0,1.65,0.0,0.0,0.0,0.0,0.0,0.0,0.0,1.5337,0.0,0.0,0.0,1.6236,0.0,0.0,0.0,0.0,0.0,0.0,0.0,2.0389,2.0527,2.1018,2.1531,2.1983,2.2282,2.2521,2.2782,2.3108,2.3108,2.3108,2.3123,2.4654,2.5175,2.4794,2.5522,2.5851,2.5797,2.4893,2.5226,2.644,2.6289,2.6528,2.7007,2.7007,2.6799,2.6499,2.6499,2.6499,2.6499,0.9905,0.9905,1.0213,0.0,0.0,0.0,0.0,0.0,0.0,0.0,0.0,0.0,1.3822,1.4752,0.0,0.0,1.88,1.9339,0.0,0.0,1.8954,0.0,0.0,0.0,0.0,0.0,1.8234,0.0,0.0,0.0,0.0,0.0,0.0,0.0,0.0,1.7903,1.882,0.0,1.9974,2.0351,2.133,2.1758,2.1972,2.3439,2.4415,2.5017,2.5017,2.477,2.4368,2.3916,2.2585,0.0,2.1707,0.0,0.0,0.0,0.0,0.0,1.8028,0.0,0.0,0.0,0.0,0.0,0.0,0.0,0.0,0.0,0.0,0.0,0.0,0.0,0.0,0.0,0.0,1.4524,0.0,1.4283,0.0,0.0,0.0,0.0,0.0,0.0,0.0,1.9346,1.9773,2.0151,2.044,2.0981,2.1457,2.1845,2.2159,2.2483,2.2882,2.3032,2.3108,2.3123,2.4453,2.4823,2.4321,2.4851,2.5091,2.5021,2.3679,2.4048,2.5558,2.502,2.5473,2.6499,2.6499,2.6499,2.6499,2.6499,2.6499,2.6499,0.9905,0.9905,1.0075,0.0,0.0,0.0,0.0,0.0,0.0,0.0,0.0,0.0,0.0,0.0,0.0,0.0,0.0,2.4619,2.2961,0.0,2.1829,0.0,0.0,1.8938,0.0,0.0,1.7857,1.7302,0.0,0.0,0.0,0.0,0.0,0.0,0.0,1.7713,1.828,1.9359,2.0439,2.1481,2.2058,2.3236,2.4628,0.0,2.4657,2.5573,2.5573,0.0,0.0,2.3672,2.2746,0.0,0.0,0.0,0.0,0.0,0.0,0.0,0.0,0.0,0.0,1.833,0.0,0.0,0.0,0.0,1.65,0.0,0.0,0.0,0.0,0.0,0.0,0.0,0.0,0.0,0.0,0.0,0.0,0.0,0.0,0.0,0.0,0.0,0.0,1.8179,1.8279,1.8731,1.9773,2.0402,2.0729,2.0755,2.1757,2.2307,2.232,2.2844,2.3108,2.3108,2.3943,2.4321,2.4307,2.4321,2.435,2.4292,2.3469,2.3763,2.4836,2.4804,2.5473,2.6499,2.6499,2.6499,2.6499,2.6499,2.6499,2.6499,0.9905,1.0188,1.0494,1.0675,0.0,0.0,0.0,1.3241,0.0,0.0,0.0,0.0,0.0,2.0539,2.2187,0.0,0.0,2.5931,2.6035,2.4563,0.0,0.0,0.0,1.9875,0.0,0.0,1.8902,1.8361,1.8361,0.0,0.0,0.0,0.0,0.0,0.0,1.7902,0.0,0.0,0.0,0.0,0.0,2.317,2.3735,0.0,0.0,2.6197,2.6197,2.5942,0.0,2.4958,2.3901,2.2847,2.2862,2.1886,2.0729,2.0879,2.054,0.0,0.0,0.0,1.9824,1.853,0.0,0.0,0.0,0.0,0.0,0.0,0.0,0.0,0.0,0.0,0.0,0.0,0.0,0.0,0.0,0.0,0.0,0.0,0.0,0.0,0.0,0.0,0.0,1.8155,1.8857,1.9422,1.9786,1.9987,2.0302,2.0679,2.1394,2.1945,2.2295,2.2832,2.3108,2.3108,2.3914,2.4016,2.3516,2.406,2.4002,2.3499,2.3215,2.3747,2.4804,2.4804,2.5473,2.6499,2.6499,2.6499,2.6499,2.6499,2.6499,2.6499,1.0458,1.0607,1.0701,0.0,0.0,0.0,0.0,0.0,0.0,0.0,1.7406,0.0,2.1334,0.0,2.3893,0.0,2.6868,2.7172,2.6916,2.6123,0.0,2.4978,2.2702,0.0,0.0,0.0,0.0,1.9609,1.9128,1.8631,0.0,0.0,0.0,0.0,0.0,1.8235,1.9705,2.0181,2.1228,0.0,0.0,2.3882,0.0,0.0,2.5423,2.5942,0.0,2.6248,2.5891,2.5661,2.4879,2.4026,2.4214,2.3175,2.1934,2.2299,2.1719,2.089,2.0514,2.0691,0.0,1.9145,1.9033,0.0,1.7439,0.0,0.0,0.0,0.0,0.0,0.0,0.0,0.0,0.0,0.0,0.0,0.0,1.0743,0.0,0.0,0.0,0.0,0.0,0.0,1.6708,1.7724,1.8697,1.9397,0.0,0.0,1.9974,2.0377,2.093,2.1469,2.202,2.2558,2.2907,2.3108,2.3632,2.359,2.3123,2.3647,2.3603,2.3108,2.3108,2.3747,2.4804,2.4804,2.5473,2.6499,2.6499,2.6499,2.6499,2.6499,2.6499,2.6499,1.1519,1.119,0.0,0.0,1.1736,0.0,0.0,0.0,1.4819,0.0,1.8051,1.9691,2.2149,2.4704,2.6388,2.6802,2.859,2.862,2.6051,2.6988,0.0,0.0,2.5068,2.5259,2.6569,0.0,0.0,2.0936,1.9594,1.8679,0.0,0.0,0.0,0.0,1.7565,0.0,2.0868,2.0175,2.1707,2.4625,2.5036,2.5371,2.5643,2.5682,2.535,2.5007,2.6114,2.6499,2.6411,2.5841,2.5624,2.5511,2.5005,2.4465,2.4042,2.4042,2.3612,2.292,2.1895,2.1608,2.1319,2.0162,0.0,0.0,0.0,0.0,1.8129,0.0,0.0,0.0,0.0,0.0,0.0,0.0,0.0,0.0,0.0,0.0,0.0,0.0,0.0,0.0,0.0,1.3363,1.4911,1.6895,1.7737,1.8632,0.0,0.0,1.9748,1.9798,2.039,2.0955,2.1495,2.2033,2.2571,2.3108,2.3108,2.3108,2.3108,2.3108,2.3108,2.3108,2.3108,2.3747,2.4804,2.4804,2.5473,2.6499,2.6499,2.6499,2.6499,2.6499,2.6499,2.6499,1.2077,1.224,1.2554,0.0,1.2951,1.2883,0.0,0.0,0.0,0.0,2.2465,2.4914,2.7988,2.8939,2.959,3.0195,3.0703,0.0,0.0,0.0,0.0,2.922,2.6739,2.5749,2.6584,2.386,0.0,2.149,2.014,1.9415,1.9271,0.0,0.0,0.0,0.0,0.0,2.0921,2.1116,2.303,2.5965,2.645,2.6493,0.0,0.0,2.657,2.5834,2.632,2.6499,2.6491,2.6323,2.5967,2.5573,2.5435,2.5034,2.4591,2.4591,2.4202,2.3715,2.3427,2.3022,2.2433,2.133,2.1054,2.0765,0.0,0.0,0.0,0.0,0.0,0.0,0.0,0.0,0.0,0.0,0.0,0.0,0.0,0.0,0.0,1.0303,0.0,0.0,1.1349,1.2979,1.4609,1.6036,1.6907,1.8093,1.971,0.0,0.0,1.9773,2.039,2.0955,2.1495,2.2033,2.2571,2.3108,2.3108,2.3108,2.3108,2.3108,2.3108,2.3108,2.3108,2.3747,2.4804,2.4804,2.5473,2.6499,2.6499,2.6499,2.6499,2.6499,2.6499,2.6499,1.3209,1.3446,0.0,1.409,0.0,0.0,1.4989,1.5993,0.0,2.1137,2.3415,0.0,2.8904,3.0507,3.163,3.2318,3.2377,0.0,3.0732,0.0,0.0,2.9699,2.8713,2.822,2.8293,2.5731,0.0,2.2971,0.0,0.0,1.9699,0.0,0.0,0.0,0.0,1.9487,2.1347,2.2791,2.4363,2.5978,2.7197,0.0,0.0,2.8112,2.7653,2.682,2.6963,2.6799,2.6499,2.6499,2.6273,2.5992,2.5992,2.5615,2.5143,2.5143,2.4766,2.434,2.434,2.3926,2.3349,2.2736,2.2397,2.192,2.079,2.0539,2.0388,0.0,0.0,0.0,0.0,0.0,0.0,0.0,0.0,0.0,0.0,0.0,0.0,0.0,1.1115,0.0,1.0767,1.2589,1.4329,1.5534,1.5893,1.6729,0.0,0.0,0.0,1.907,1.9874,2.0578,2.1143,2.1681,2.2219,2.2744,2.2995,2.3108,2.3108,2.3108,2.3108,2.3108,2.3108,2.3609,2.4465,2.4704,2.5322,2.6118,2.6399,2.6499,2.6499,2.6499,2.6499,2.6499,1.4346,1.4455,0.0,0.0,0.0,0.0,0.0,1.7145,0.0,2.1395,0.0,2.5555,2.7989,3.0866,3.2871,3.344,0.0,3.2542,3.0252,3.2242,3.2228,2.937,3.0792,3.1316,3.0657,2.8158,2.6123,0.0,0.0,0.0,0.0,0.0,0.0,0.0,0.0,0.0,0.0,2.4556,2.5668,2.5925,2.7739,2.8809,2.9317,2.9207,2.87,2.8002,2.7786,2.7179,2.6499,2.6499,2.6499,2.6521,2.6624,2.6304,2.5882,2.5882,2.5486,2.505,2.4937,2.4503,2.4092,2.4017,2.36,2.2945,2.1945,2.1707,2.1557,2.1018,1.9748,1.9095,0.0,0.0,0.0,0.0,0.0,0.0,0.0,0.0,0.0,0.0,0.0,0.0,0.0,1.2278,1.3889,1.4956,1.4643,1.5038,0.0,0.0,0.0,1.8393,1.9309,0.0,2.0679,0.0,2.1769,2.2307,2.2844,2.3108,2.3108,2.3108,2.3108,2.3108,2.3108,2.3449,2.4042,2.4578,2.5155,2.5778,2.6298,2.6499,2.6499,2.6499,2.6499,2.6499,1.412,0.0,0.0,0.0,0.0,1.9384,2.0759,2.2566,2.4406,2.6203,2.8584,3.0508,3.1539,3.2647,3.3365,3.3484,3.3499,0.0,0.0,0.0,0.0,3.2662,3.2437,3.2018,3.1331,2.9297,2.7053,0.0,0.0,0.0,0.0,0.0,0.0,0.0,0.0,0.0,2.337,2.493,0.0,2.887,2.9229,3.0048,3.0999,3.0314,2.9981,2.9659,2.823,2.7179,2.6499,2.6499,2.6499,2.6624,2.728,2.7422,2.7327,2.7327,2.6955,2.6381,2.5662,2.5071,2.4553,2.4117,2.3916,2.365,2.2985,2.2819,2.2671,2.2119,2.1794,2.1115,1.9585,0.0,0.0,0.0,0.0,0.0,0.0,0.0,0.0,0.0,0.0,1.3492,0.0,0.0,1.2711,1.3139,1.2893,0.0,0.0,0.0,0.0,0.0,1.9698,0.0,0.0,0.0,2.1769,2.2307,2.2844,2.3108,2.3108,2.3108,2.3108,2.3108,2.3108,2.3449,2.4042,2.4578,2.541,2.6348,2.6449,2.6499,2.6499,2.6499,2.6499,2.6499,1.4374,0.0,0.0,0.0,0.0,0.0,0.0,2.6677,0.0,2.7645,2.8996,3.0373,3.136,3.2991,3.4158,3.4502,3.4532,3.4532,3.4532,3.4532,3.4382,3.4039,3.338,3.2691,3.2034,3.0418,2.8115,2.5124,0.0,0.0,0.0,0.0,0.0,0.0,0.0,2.1435,0.0,0.0,0.0,2.8648,2.9653,3.0643,3.1452,3.1073,3.0659,3.0193,2.9348,2.8508,2.7736,2.728,2.7112,2.7196,2.7571,2.7703,2.7703,2.7703,2.7222,2.6683,2.6687,2.5972,2.5143,2.4895,2.4406,2.3929,2.3625,2.3321,2.3032,2.2769,2.2495,2.1617,1.9409,1.7939,0.0,0.0,0.0,0.0,0.0,0.0,0.0,0.0,0.0,0.0,0.0,0.0,0.0,0.0,0.0,0.0,0.0,0.0,0.0,0.0,0.0,0.0,0.0,0.0,0.0,2.1895,2.2706,2.3108,2.3108,2.3108,2.3108,2.3108,2.3108,2.3258,2.36,2.4453,2.5297,2.6055,2.6373,2.6499,2.6499,2.6499,2.6499,2.6499,0.0,1.5537,0.0,0.0,2.2224,0.0,2.7195,2.9503,3.0372,2.8845,2.9234,3.0073,3.1225,3.3365,3.4937,3.5459,3.5504,3.5504,3.5504,3.5504,3.5265,3.4742,3.3934,3.3245,3.2721,3.139,2.9237,0.0,0.0,0.0,0.0,0.0,0.0,0.0,0.0,0.0,0.0,0.0,2.7228,2.8351,2.9879,3.0897,3.1511,3.1511,3.1102,3.0539,3.0359,2.9858,2.9176,2.8476,2.8133,2.8002,2.8198,2.8133,2.7986,2.7986,2.7534,2.7078,2.7367,2.676,2.5957,2.5673,2.4958,2.428,2.4054,2.3625,2.3246,2.3133,2.2669,2.173,1.986,1.9196,0.0,0.0,0.0,0.0,0.0,0.0,0.0,0.0,0.0,0.0,1.4017,0.0,0.0,0.0,0.0,0.0,0.0,0.0,0.0,0.0,0.0,1.9459,1.9459,0.0,2.1507,0.0,2.2596,2.3108,2.3108,2.3108,2.3108,2.3108,2.3108,2.317,2.3371,2.4374,2.5118,2.5649,2.6273,2.6499,2.6499,2.6499,2.6499,2.6499,0.0,0.0,0.0,0.0,0.0,0.0,2.754,3.0283,3.2243,3.2063,3.2632,3.332,3.4039,3.4876,3.5429,3.5488,3.5504,3.5504,3.5504,3.5504,3.5474,3.5415,3.4173,3.3469,3.341,3.2093,3.0389,0.0,0.0,0.0,0.0,0.0,0.0,0.0,0.0,0.0,0.0,2.6465,2.7993,3.0238,3.0432,3.0897,3.1511,3.1511,3.1452,3.1278,3.0569,3.0253,3.0178,3.0072,2.9535,2.9018,2.9812,2.9504,2.8876,2.8876,2.8828,2.8443,2.7007,2.7056,2.7209,2.5911,2.5523,2.5197,2.4217,2.3954,2.3766,2.3208,2.2669,2.2096,2.1393,2.1217,2.0802,0.0,0.0,0.0,0.0,0.0,1.9058,1.8024,0.0,0.0,0.0,1.5472,0.0,0.0,1.3541,0.0,0.0,0.0,0.0,1.8143,0.0,1.8355,1.8355,2.0439,2.1507,2.152,2.2596,2.3108,2.3108,2.3108,2.3108,2.3108,2.3108,2.3411,2.3966,2.4553,2.5118,2.5649,2.6273,2.6499,2.6499,2.6499,2.6499,2.6499,0.0,0.0,0.0,0.0,0.0,0.0,0.0,3.2003,3.3245,3.3664,3.3934,3.4353,3.5026,3.534,3.5504,3.5504,3.5504,3.5504,3.5504,3.5504,3.5504,3.5504,3.4592,3.3919,3.3499,3.2572,3.0957,0.0,0.0,0.0,0.0,0.0,0.0,0.0,0.0,2.5372,2.6704,2.8263,2.9535,3.0537,3.0942,3.1256,3.1511,3.1511,3.1511,3.1452,3.1146,3.1029,3.1029,3.1029,3.0479,2.9843,3.0193,3.0057,2.9675,2.9144,2.8636,2.8068,2.7401,2.7095,2.6837,2.6282,2.5866,2.5398,2.4641,2.4243,2.3841,2.3221,2.2932,2.2621,2.2083,2.1721,2.1356,0.0,0.0,0.0,0.0,0.0,0.0,1.9258,0.0,1.7958,0.0,1.6364,1.5545,1.4903,0.0,0.0,0.0,0.0,0.0,1.818,0.0,1.9321,1.9698,2.0904,2.1656,2.1995,2.2732,2.3108,2.3108,2.3108,2.3108,2.3108,2.3108,2.3233,2.3537,2.444,2.4929,2.5222,2.6147,2.6499,2.6499,2.6499,2.6499,2.6499,2.3511,0.0,2.5174,0.0,2.943,3.0507,3.2751,3.3484,3.4039,3.4712,3.4787,3.4966,3.5444,3.5504,3.5504,3.5504,3.5504,3.5504,3.5504,3.5504,3.5504,3.5504,3.4862,0.0,3.3499,3.2841,3.1495,2.9446,2.7457,0.0,0.0,0.0,0.0,0.0,2.6255,2.7213,2.7872,2.9714,3.0598,3.0837,3.1316,3.1511,3.1511,3.1511,3.1511,3.1511,3.1511,3.1511,3.1511,3.1511,3.1117,3.0644,3.0644,3.0494,3.0193,2.9551,2.8764,2.8035,2.7769,2.7284,2.6799,2.6555,2.6185,2.5728,2.5155,2.4616,2.4014,2.3258,2.3108,2.2982,2.2608,2.2219,2.192,2.1757,0.0,0.0,0.0,0.0,0.0,0.0,1.8844,1.8255,1.8418,1.7277,1.6223,0.0,0.0,0.0,0.0,0.0,0.0,0.0,0.0,0.0,0.0,2.1067,2.1769,2.2307,2.2844,2.3108,2.3108,2.3108,2.3108,2.3108,2.3108,2.3108,2.3195,2.4324,2.4804,2.4917,2.6042,2.6499,2.6499,2.6499,2.6499,2.6499,2.6045,2.7091,2.8588,3.1869,3.2452,3.2916,3.4263,3.4473,3.4727,3.54,3.5489,3.5489,3.5504,3.5504,3.5504,3.5504,3.5504,3.5504,3.5504,3.5504,3.5504,0.0,0.0,3.4188,3.3499,3.2841,3.2168,3.1466,0.0,0.0,2.8487,0.0,2.627,2.754,2.757,2.865,3.0447,3.0492,3.0882,3.1496,3.1511,3.1511,3.1511,3.1511,3.1511,3.1511,3.1511,3.1511,3.1511,3.1511,3.1496,3.1496,3.1496,3.094,3.0299,3.0299,2.9659,2.8796,2.792,2.7687,2.7501,2.6696,2.6487,2.6336,2.5741,2.5184,2.4478,2.3333,2.3108,2.3108,2.3095,2.3095,2.2907,2.2383,0.0,0.0,0.0,0.0,0.0,1.9874,1.8844,1.8405,1.8945,1.8494,0.0,0.0,0.0,0.0,0.0,0.0,0.0,1.8204,1.8216,0.0,1.902,2.0677,2.1769,2.2307,2.2844,2.3108,2.3108,2.3108,2.3108,2.3108,2.3108,2.3108,2.3195,2.4324,2.4804,2.4917,2.6042,2.6499,2.6499,2.6499,2.6499,2.6499,2.9686,3.0478,3.127,3.2318,3.326,3.4009,3.4428,3.4892,3.525,3.5474,3.5504,3.5504,3.5504,3.5504,3.5504,0.0,3.5504,3.5504,0.0,3.5504,3.5504,3.5504,3.5295,3.4877,3.4203,3.3514,3.2841,3.2168,0.0,0.0,0.0,2.7258,2.7677,2.8978,2.9398,2.9924,3.0537,3.0987,3.1301,3.1511,3.1511,3.1511,3.1511,3.1511,3.1511,3.1511,3.1511,3.1511,3.1511,3.1511,3.1511,3.1511,3.1511,3.1322,3.1014,3.045,2.9675,2.8812,2.7937,2.73,2.6816,2.6555,2.6499,2.6336,2.5741,2.4908,2.4139,2.3788,2.3399,2.3108,2.3108,2.3108,2.3045,2.2869,2.2844,0.0,0.0,0.0,0.0,2.0515,2.0113,1.9811,0.0,1.9397,0.0,0.0,0.0,0.0,0.0,0.0,0.0,0.0,1.9309,0.0,2.0702,2.1594,2.2307,2.2844,2.302,2.3108,2.3108,2.3108,2.3108,2.3108,2.3108,2.3108,2.3195,2.4324,2.4804,2.4917,2.6042,2.6499,2.6499,2.6499,2.6499,2.6499,3.1421,3.2034,3.2572,3.2826,3.3784,3.4578,3.4832,3.5235,3.5504,3.5504,3.5504,3.5504,3.5504,3.5504,0.0,3.5504,3.5504,3.5504,3.5504,3.5504,3.5504,3.5504,3.5504,3.519,3.4503,0.0,0.0,3.2497,3.0613,2.9461,2.9056,2.9056,2.9505,3.0328,3.0702,3.0882,3.0897,3.1316,3.1511,3.1511,3.1511,3.1511,3.1511,3.1511,3.1511,3.1511,3.1511,3.1511,3.1511,3.1511,3.1511,3.1511,3.1511,3.1511,3.1394,3.0896,3.0148,2.9301,2.8427,2.7571,2.6871,2.6572,2.6499,2.6336,2.5741,2.5071,2.4481,2.4079,2.37,2.3358,2.3145,2.3108,2.3108,2.3108,2.3108,2.2982,2.2659,0.0,0.0,0.0,0.0,0.0,0.0,1.9924,1.9518,0.0,0.0,0.0,0.0,0.0,0.0,1.9145,2.0151,0.0,2.1794,2.2119,2.2571,2.3108,2.3108,2.3108,2.3108,2.3108,2.3108,2.3108,2.3108,2.3233,2.3512,2.4428,2.4917,2.518,2.6118,2.6499,2.6499,2.6499,2.6499,2.6499,3.1511,3.2078,0.0,0.0,3.4099,0.0,3.54,3.5504,3.5504,3.5504,3.5504,3.5504,3.5504,3.5553,3.5554,3.5504,0.0,0.0,0.0,3.5504,3.5504,3.5504,3.5538,3.5287,3.4657,3.4597,3.389,3.2497,3.1869,3.1555,3.1511,3.1511,3.1511,3.1511,3.1511,3.1511,3.1511,3.1511,3.1511,3.1511,3.1511,3.1511,3.1511,3.1511,3.1511,3.1511,3.1511,3.1511,3.1511,3.1511,3.1511,3.1511,3.1511,3.1511,3.1511,3.1511,3.0925,3.0118,2.9317,2.8411,2.7534,2.6765,2.6572,2.6434,2.5875,2.5723,2.5392,2.4334,2.4054,2.3841,2.3258,2.3133,2.3108,2.3108,2.3108,2.3108,2.3108,0.0,0.0,0.0,0.0,0.0,0.0,2.0251,2.0326,0.0,0.0,0.0,0.0,0.0,1.907,2.0691,2.0779,2.1294,2.2282,2.2332,2.2608,2.3108,2.3108,2.3108,2.3108,2.3108,2.3108,2.3108,2.3108,2.3449,2.4042,2.4578,2.5118,2.5649,2.6273,2.6499,2.6499,2.6499,2.6499,2.6499,0.0,0.0,3.3305,3.3469,3.4472,3.5325,3.5489,3.5504,3.5504,3.5504,3.5504,3.5504,3.5504,3.6006,3.6102,3.5538,3.5504,3.5504,3.5504,3.5504,3.5504,3.5504,3.6039,3.6276,3.6122,3.5599,3.4409,3.2497,3.2347,3.1989,3.1511,3.1511,3.1511,3.1511,3.1511,3.1511,3.1511,3.1511,3.1511,3.1511,3.1511,3.1511,3.1511,3.1511,3.1511,3.1511,3.1511,3.1511,3.1511,3.1511,3.1511,3.1511,3.1511,3.1511,3.1511,3.1511,3.0925,3.0253,3.0042,2.8876,2.7653,2.7467,2.7417,2.7378,2.7235,2.6886,2.6333,2.542,2.4569,2.3954,2.3816,2.3409,2.3108,2.3108,2.3108,2.3108,2.3108,2.2995,0.0,0.0,2.1868,2.1606,2.1344,2.1181,2.0854,0.0,0.0,0.0,0.0,1.971,1.9999,2.1268,2.1707,2.2046,2.2295,2.2706,2.297,2.3108,2.3108,2.3108,2.3108,2.3108,2.3108,2.3108,2.3108,2.3449,2.4042,2.4578,2.5118,2.5649,2.6273,2.6499,2.6499,2.6499,2.6499,2.6499,3.1937,3.2814,3.3501,3.3501,3.4912,3.5922,3.5558,3.5782,3.6006,3.6006,3.5717,3.5765,3.6477,3.6569,3.66,3.6554,3.6538,3.6399,3.6038,3.6352,3.6538,3.6538,3.6935,3.716,3.716,3.6797,3.5583,3.3511,3.3206,3.2517,3.1511,3.1511,3.1511,3.1511,3.1511,3.1511,3.1511,3.1511,3.1511,3.1511,3.1511,3.1511,3.1511,3.1511,3.1511,3.1511,3.1511,3.1511,3.1511,3.1511,3.1511,3.1511,3.1511,3.1511,3.1511,3.1511,3.119,3.0777,3.0389,2.9613,2.87,2.7887,2.8002,2.8084,2.7334,2.7203,2.6951,2.5819,2.5134,2.4582,2.4092,2.3725,2.3409,2.3145,2.2681,2.2546,2.3032,2.2684,0.0,2.2631,2.2671,2.2558,2.2257,2.2219,2.1968,2.1354,0.0,0.0,2.1316,2.1316,2.1479,2.1845,2.2159,2.242,2.2671,2.2957,2.3108,2.3108,2.3108,2.3108,2.3108,2.3108,2.3108,2.312,2.3399,2.3838,2.4402,2.4942,2.5498,2.603,2.6373,2.6499,2.6499,2.6499,2.6499,2.6499,3.2506,3.3182,3.362,3.3517,3.5271,3.6472,3.5793,3.6307,3.6767,3.6767,3.6243,3.6352,3.7662,3.7293,3.7189,3.7748,3.8007,3.7746,3.6828,3.7427,3.7807,3.7807,3.7923,3.7964,3.7964,3.7964,3.7011,3.5017,3.423,3.3168,3.1832,3.1598,3.1511,3.1511,3.1511,3.1511,3.1511,3.1511,3.1511,3.1511,3.1511,3.1511,3.1511,3.1511,3.1511,3.1511,3.1511,3.1511,3.1511,3.1511,3.1511,3.1511,3.1511,3.1511,3.1511,3.1511,3.1511,3.1351,3.0659,3.0389,2.9935,2.846,2.8556,2.8636,2.7196,2.73,2.7324,2.6013,2.5649,2.5322,2.4406,2.4104,2.3791,2.3083,2.2282,2.2008,2.2744,0.0,2.2083,2.2995,2.3108,2.3108,2.3108,2.3108,2.3108,2.3108,2.3108,2.3108,0.0,2.3108,2.2895,2.2433,2.242,2.2646,2.3095,2.3108,2.3108,2.3108,2.3108,2.3108,2.3108,2.3108,2.3168,2.3313,2.3912,2.4482,2.5006,2.557,2.6143,2.6692,2.6692,2.6692,2.6696,2.6833,2.6714,2.6521,3.2695,3.359,3.4241,3.3617,3.5271,3.6655,3.6524,3.7134,3.7602,3.7602,3.75,3.7531,3.7778,3.8246,3.8342,3.7835,3.8981,3.9146,3.7704,3.7719,3.7807,3.7807,3.84,3.8731,3.8731,3.8731,3.7993,3.646,3.519,3.4149,3.3323,3.2081,3.1511,3.1511,3.1511,3.1511,3.1511,3.1511,3.1511,3.1511,3.1511,3.1511,3.1511,3.1511,3.1511,3.1511,3.1511,3.1511,3.1511,3.1511,3.1511,3.1511,3.1511,3.1511,3.1511,3.1511,3.1511,3.1467,3.1351,3.0822,3.0238,2.9965,2.9442,2.8939,2.8668,2.8149,2.7458,2.6561,2.5954,2.5548,2.5372,2.4607,2.3653,2.2596,2.2656,2.2581,2.1845,0.0,2.2907,2.3083,2.3108,2.3108,2.3108,2.3108,2.3108,2.3108,2.3108,2.3108,2.3108,2.3108,2.3058,2.2982,2.2982,2.302,2.3108,2.3108,2.3108,2.3108,2.3108,2.3108,2.3108,2.3108,2.3469,2.4144,2.4754,2.5288,2.5785,2.6437,2.7026,2.7517,2.7517,2.7517,2.7604,2.833,2.772,2.6607,3.3659,3.4171,3.4484,3.4144,3.5567,3.6744,3.6708,3.733,3.7936,3.8337,3.805,3.8121,3.8941,3.8951,3.8951,3.9022,3.9692,3.9799,3.9092,3.9035,3.9035,3.9035,3.9371,3.9542,3.9542,3.9542,3.8861,3.7454,3.6357,3.5095,3.3675,3.2592,3.1881,3.1511,3.1511,3.1511,3.1511,3.1511,3.1511,3.1511,3.1511,3.1511,3.1511,3.1511,3.1511,3.1511,3.1511,3.1511,3.1511,3.1511,3.1511,3.1511,3.1511,3.1511,3.1511,3.1511,3.1511,3.1511,3.1511,3.1234,3.0837,3.0404,3.0314,3.0103,2.9207,2.8684,2.8165,2.7317,2.6582,2.5979,2.5649,2.5197,2.4506,2.3401,2.2909,0.0,0.0,2.2282,2.2458,2.3032,2.3108,2.3108,2.3108,2.3108,2.3108,2.3108,2.3108,2.3108,2.3108,2.3108,2.3108,2.3108,2.3108,2.3108,2.3108,2.3108,2.3108,2.3108,2.3108,2.3108,2.3108,2.3558,2.4129,2.4813,2.5352,2.5902,2.6448,2.6612,2.7083,2.7703,2.7703,2.7986,2.8379,2.8314,2.7819,2.7145,3.4528,3.4736,3.4769,3.4623,3.5818,3.6779,3.6733,3.7347,3.8096,3.8834,3.8434,3.8597,3.9948,3.9542,3.9437,4.0045,4.0096,4.0096,4.0096,4.0096,4.0096,4.0096,4.0096,4.0096,4.0096,4.0096,3.9568,3.8495,3.7531,3.6087,3.4171,3.3267,3.2369,3.1511,3.1511,3.1511,3.1511,3.1511,3.1511,3.1511,3.1511,3.1511,3.1511,3.1511,3.1511,3.1511,3.1511,3.1511,3.1511,3.1511,3.1511,3.1511,3.1511,3.1511,3.1511,3.1511,3.1511,3.1511,3.1511,3.1511,3.1351,3.0733,3.0896,3.0881,2.9597,2.9144,2.8812,2.8149,2.7517,2.6949,2.647,2.6125,2.5545,2.4455,0.0,0.0,0.0,2.242,2.2334,2.302,2.3108,2.3108,2.3108,2.3108,2.3108,2.3108,2.3108,2.3108,2.3108,2.3108,2.3108,2.3108,2.3108,2.3108,2.3108,2.3108,2.3108,2.3108,2.3108,2.3213,2.3395,2.4016,2.4816,2.576,2.6265,2.6856,2.746,2.74,2.7753,2.8298,2.8298,2.8716,2.9223,2.8556,2.8051,2.7604,3.4712,3.5098,3.5333,3.4706,3.5813,3.6794,3.6791,3.741,3.8171,3.8897,3.8944,3.9227,4.0015,4.0045,4.0033,4.0083,4.0096,4.0096,4.0096,4.0096,4.0096,4.0096,4.0096,4.0096,4.0096,4.0096,4.0054,3.9952,3.8576,3.7134,3.5609,3.4242,3.2869,3.1511,3.1511,3.1511,3.1511,3.1511,3.1511,3.1511,3.1511,3.1511,3.1511,3.1511,3.1511,3.1511,3.1511,3.1511,3.1511,3.1511,3.1511,3.1511,3.1511,3.1511,3.1511,3.1511,3.1511,3.1511,3.1511,3.1511,3.1496,3.1423,3.0896,3.0359,3.0238,2.9582,2.8987,2.8923,2.886,2.8798,2.8773,2.7675,2.6435,2.5295,0.0,0.0,2.2571,2.3201,2.3637,2.3158,2.3108,2.3108,2.3108,2.3108,2.3108,2.3108,2.3108,2.3108,2.3108,2.3108,2.3108,2.3108,2.3108,2.3108,2.3108,2.3108,2.3108,2.3108,2.3108,2.3499,2.422,2.4278,2.5404,2.7365,2.7953,2.8555,2.917,2.9769,3.0042,3.0103,3.0103,3.0148,3.0208,3.0118,2.9097,2.7687,3.5265,3.5436,3.5515,3.5253,3.5683,3.6214,3.6728,3.7038,3.7483,3.8227,3.8328,3.8599,3.9339,3.9423,3.9592,4.0062,4.0096,4.0096,4.0096,4.0096,4.0096,4.0096,4.0096,4.0096,4.0096,4.0096,4.0096,4.0096,3.9114,3.7872,3.6408,3.5406,3.3937,3.2174,3.2174,3.1938,3.1511,3.1511,3.1511,3.1511,3.1511,3.1511,3.1511,3.1511,3.1511,3.1511,3.1511,3.1511,3.1511,3.1511,3.1511,3.1511,3.1511,3.1511,3.1511,3.1511,3.1511,3.1511,3.1511,3.1511,3.1511,3.1511,3.1263,3.1043,3.1043,3.0389,2.9812,2.9812,2.938,2.9002,2.9002,2.8123,2.7142,2.6384,0.0,2.4971,2.3988,2.4227,2.4415,2.4173,2.4148,2.4148,2.4148,2.4148,2.4148,2.4148,2.385,2.365,2.365,2.3296,2.3108,2.3108,2.3108,2.3108,2.3108,2.3108,2.3108,2.3108,2.3617,2.4002,2.4334,2.5114,2.6425,2.8065,2.812,2.8817,2.9893,2.9621,2.9812,3.0299,3.0299,3.0599,3.0911,2.9889,2.9066,2.8427,3.56,3.56,3.56,3.56,3.56,3.5797,3.6332,3.6428,3.6699,3.7449,3.755,3.7838,3.8565,3.865,3.8865,3.9372,3.9406,3.9406,3.9406,3.9406,3.9508,3.9745,3.9525,3.9406,3.9406,3.9406,3.9406,3.9406,3.8903,3.7906,3.6438,3.5935,3.4693,3.2922,3.2922,3.2639,3.216,3.1937,3.1853,3.1824,3.1596,3.1511,3.1511,3.1511,3.1511,3.1511,3.1511,3.1511,3.1511,3.1511,3.1511,3.1511,3.1511,3.1511,3.1511,3.1511,3.1511,3.1511,3.1511,3.1511,3.1511,3.1511,3.1511,3.1511,3.1511,3.1073,3.0673,3.0673,3.0208,2.9797,2.9797,2.9097,2.8388,2.8028,2.7,2.6063,2.5527,2.5221,2.4992,2.4829,2.4804,2.4804,2.4804,2.4804,2.4804,2.4804,2.4453,2.418,2.4004,2.36,2.3296,2.3108,2.3108,2.3215,2.3469,2.323,2.323,2.3484,2.4045,2.4646,2.5335,2.6215,2.7499,2.904,2.8868,2.95,3.0629,3.0026,3.0133,3.0673,3.0673,3.1014,3.1336,2.9935,2.9411,2.9314,3.56,3.56,3.56,3.56,3.56,3.56,3.56,3.56,3.5881,3.6694,3.6795,3.7071,3.7821,3.7877,3.7893,3.7893,3.7893,3.7893,3.7893,3.7893,3.8227,3.8949,3.8294,3.7893,3.7893,3.7893,3.7893,3.7893,3.7893,3.7155,3.5704,3.5704,3.4962,3.3608,3.3608,3.3595,3.3559,3.2882,3.26,3.2547,3.1796,3.1511,3.1511,3.1511,3.1511,3.1511,3.1511,3.1511,3.1511,3.1511,3.1511,3.1511,3.1511,3.1511,3.1511,3.1511,3.1511,3.1511,3.1511,3.1511,3.1511,3.1511,3.1511,3.1511,3.1511,3.1511,3.1511,3.1511,3.1511,3.1511,3.1511,3.0837,3.0299,3.0299,2.8828,2.7522,2.6974,2.6163,2.541,2.4879,2.4816,2.4816,2.4816,2.4816,2.4816,2.4816,2.4816,2.4566,2.4029,2.4004,2.3725,2.3133,2.3105,2.3497,2.4305,2.3499,2.3514,2.432,2.432,2.5447,2.7515,2.7515,2.8612,3.0507,3.0493,3.0882,3.1511,3.1511,3.1511,3.1511,3.1511,3.1511,3.1394,3.0599,3.0313,3.0279,3.56,3.56,3.56,3.56,3.56,3.56,3.56,3.56,3.5695,3.5932,3.5949,3.6265,3.7038,3.7122,3.7342,3.7843,3.7893,3.7893,3.7893,3.7427,3.7224,3.7455,3.7736,3.7893,3.7893,3.7893,3.7893,3.7893,3.7893,3.7405,3.6464,3.6464,3.5697,3.4297,3.4297,3.4037,3.3559,3.2882,3.26,3.2547,3.1796,3.1511,3.1511,3.1511,3.1511,3.1511,3.1511,3.1511,3.1511,3.1511,3.1809,3.2288,3.2766,3.2572,3.2198,3.2198,3.1869,3.1511,3.1511,3.1511,3.1511,3.1511,3.1511,3.1511,3.1511,3.1511,3.1511,3.1511,3.1511,3.1511,3.1511,3.0344,2.9395,2.9395,2.8443,2.7637,2.7482,2.7239,2.7009,2.6853,2.6336,2.5979,2.5979,2.5979,2.5979,2.5979,2.5598,2.5134,2.4591,2.4553,2.4478,2.4299,2.4286,2.4413,2.4651,2.3619,2.4005,2.5776,2.5776,2.6594,2.815,2.8569,2.9403,3.048,3.0411,3.0793,3.1511,3.1511,3.1511,3.1511,3.1511,3.1511,3.1439,3.1079,3.0934,3.099,3.5644,3.56,3.5678,3.5876,3.5739,3.5661,3.5876,3.5739,3.5689,3.5887,3.592,3.6177,3.6872,3.6956,3.7135,3.7579,3.7613,3.7613,3.7613,3.7204,3.6956,3.6956,3.7169,3.7206,3.698,3.6997,3.6997,3.6997,3.6997,3.6761,3.6327,3.6327,3.585,3.5005,3.5005,3.4776,3.435,3.3688,3.3391,3.33,3.2325,3.1938,3.1894,3.1611,3.1511,3.1511,3.1511,3.1675,3.1899,3.1899,3.2347,3.2976,3.3365,3.3215,3.2901,3.2901,3.2602,3.2288,3.2288,3.2288,3.2288,3.2288,3.1884,3.1511,3.1511,3.1511,3.1511,3.1511,3.1511,3.1511,3.1511,3.0659,2.9996,2.9996,2.9286,2.8732,2.8732,2.8133,2.7835,2.8182,2.7484,2.6973,2.6973,2.6973,2.685,2.6521,2.6451,2.6204,2.5653,2.5966,2.5881,2.5339,2.5631,2.5774,2.5741,2.5083,2.5409,2.6713,2.7044,2.7911,2.924,2.9607,3.0174,3.0883,3.0808,3.1043,3.1511,3.1511,3.1511,3.1511,3.1511,3.166,3.1885,3.1764,3.1875,3.2198,3.5783,3.5661,3.5838,3.6301,3.6006,3.5843,3.6385,3.6054,3.592,3.6406,3.6467,3.6654,3.7152,3.7209,3.7209,3.7209,3.7209,3.7209,3.7209,3.7209,3.7181,3.7133,3.6654,3.615,3.5611,3.56,3.56,3.56,3.56,3.56,3.56,3.56,3.56,3.56,3.56,3.56,3.5566,3.4882,3.46,3.4479,3.3145,3.26,3.252,3.1782,3.1511,3.1511,3.157,3.1974,3.2512,3.2632,3.308,3.3589,3.3649,3.3649,3.3589,3.3589,3.3544,3.3499,3.3499,3.3499,3.3499,3.3499,3.2587,3.166,3.16,3.154,3.1511,3.1511,3.1511,3.1511,3.1511,3.1438,3.1394,3.1394,3.0777,3.0299,3.0299,2.8939,2.823,2.9018,2.8347,2.7802,2.7703,2.762,2.7351,2.6765,2.7334,2.7515,2.7115,2.7847,2.768,2.6396,2.7077,2.7421,2.7359,2.7495,2.7541,2.7498,2.8168,2.9241,3.0597,3.0597,3.0927,3.1511,3.1511,3.1511,3.1511,3.1511,3.1511,3.1511,3.157,3.1959,3.2512,3.2632,3.3066,3.3694,3.6322,3.6235,3.6249,3.6374,3.6291,3.6406,3.6933,3.6941,3.6894,3.7001,3.7038,3.7058,3.719,3.7209,3.7209,3.7209,3.7209,3.7209,3.7209,3.7209,3.7001,3.6583,3.6457,3.615,3.5611,3.56,3.56,3.56,3.56,3.56,3.56,3.56,3.56,3.56,3.56,3.56,3.5566,3.4882,3.46,3.4479,3.3145,3.26,3.252,3.1782,3.1511,3.157,3.2093,3.2377,3.2662,3.3724,3.4158,3.4368,3.4891,3.4696,3.4278,3.4278,3.3919,3.3499,3.3499,3.3499,3.3499,3.3499,3.3275,3.2931,3.2407,3.1869,3.1511,3.1511,3.1511,3.1511,3.1511,3.0999,3.0569,3.0569,3.0404,3.0299,3.0299,2.9965,2.9812,2.9996,2.9254,2.8443,2.7769,2.7129,2.7229,2.8363,2.7986,2.7949,2.8509,2.873,2.8677,2.8381,2.8539,2.8617,2.8616,2.9295,2.9695,2.9777,2.9377,2.9929,3.1271,3.1271,3.1361,3.1511,3.1511,3.1511,3.1511,3.1511,3.1511,3.1555,3.2078,3.2377,3.2632,3.3679,3.4158,3.4383,3.6812,3.6783,3.6845,3.7087,3.6933,3.6943,3.746,3.7341,3.7276,3.7506,3.7533,3.7623,3.7878,3.7922,3.7922,3.7922,3.7922,3.7922,3.7922,3.7922,3.7791,3.7506,3.7257,3.6884,3.6367,3.6118,3.5871,3.56,3.56,3.56,3.56,3.56,3.56,3.56,3.56,3.56,3.5588,3.523,3.5075,3.4993,3.3978,3.3365,3.3039,3.2637,3.2075,3.1629,3.2622,3.317,3.3604,3.4637,3.4982,3.5042,3.5385,3.525,3.4982,3.4982,3.4726,3.4457,3.4457,3.4457,3.4457,3.4457,3.4203,3.3724,3.2721,3.2228,3.1884,3.157,3.1511,3.1511,3.1511,3.1161,3.0866,3.0866,3.0866,3.0866,3.0866,3.0539,3.0434,3.0837,3.0118,2.9442,2.8987,2.8182,2.8068,2.8939,2.8955,2.9144,2.9597,2.9981,3.0011,2.9628,2.9996,3.0011,2.9613,3.045,3.091,3.0972,3.0584,3.0791,3.1511,3.1511,3.1511,3.1511,3.1511,3.1511,3.1511,3.1511,3.169,3.2004,3.2362,3.2901,3.3529,3.4233,3.4697,3.5042,3.7076,3.7224,3.7442,3.7825,3.7578,3.7479,3.7963,3.7711,3.7605,3.7998,3.804,3.82,3.8643,3.8699,3.8699,3.8699,3.8699,3.8699,3.8699,3.8699,3.865,3.8562,3.8142,3.764,3.7086,3.6641,3.6139,3.56,3.56,3.56,3.56,3.56,3.56,3.56,3.56,3.56,3.56,3.56,3.56,3.5538,3.4871,3.4272,3.3761,3.3646,3.2797,3.1859,3.3186,3.4104,3.4757,3.531,3.5504,3.5504,3.5504,3.5504,3.5504,3.5504,3.5504,3.5504,3.5504,3.5504,3.5504,3.5504,3.507,3.4353,3.3125,3.2662,3.2347,3.1795,3.1585,3.1511,3.1511,3.1511,3.1511,3.1511,3.1511,3.1511,3.1511,3.0925,3.0762,3.1423,3.0792,3.0344,3.0494,2.9582,2.9129,2.9411,2.9965,3.0359,3.0509,3.1146,3.119,3.0539,3.1161,3.119,3.0509,3.1175,3.1511,3.1511,3.1511,3.1511,3.1511,3.1511,3.1511,3.1511,3.1511,3.157,3.1675,3.1675,3.2078,3.2677,3.2796,3.3514,3.4503,3.4622,3.5011,3.5504,3.6858,3.734,3.7825,3.7903,3.7842,3.798,3.8504,3.8538,3.8523,3.8578,3.8585,3.8619,3.8692,3.8699,3.8699,3.8699,3.8699,3.8699,3.8699,3.8699,3.8488,3.8022,3.7946,3.7461,3.6529,3.6437,3.6139,3.56,3.56,3.56,3.56,3.56,3.56,3.56,3.56,3.56,3.56,3.56,3.56,3.5538,3.4871,3.454,3.4394,3.3824,3.3116,3.2619,3.3895,3.479,3.5385,3.5474,3.5504,3.5504,3.5504,3.5504,3.5504,3.5504,3.5504,3.5504,3.5504,3.5504,3.5504,3.5504,3.5429,3.516,3.4398,3.3335,3.2467,3.2377,3.1899,3.1511,3.1511,3.1511,3.1511,3.1511,3.1511,3.1511,3.1511,3.1409,3.138,3.1496,3.0792,3.0569,3.1263,2.9919,2.9597,3.1043,3.0629,3.0599,3.1292,3.1438,3.1452,3.1351,3.1438,3.1452,3.1351,3.1452,3.1511,3.1511,3.1511,3.1511,3.1511,3.1511,3.1511,3.1511,3.1511,3.1824,3.2362,3.2362,3.2751,3.3425,3.3994,3.4338,3.4563,3.5145,3.5429,3.5504,3.7004,3.7429,3.7812,3.8267,3.835,3.8433,3.8658,3.8699,3.8699,3.8699,3.8699,3.8699,3.8699,3.8699,3.8699,3.8699,3.8699,3.8699,3.8699,3.8699,3.8585,3.8358,3.835,3.7998,3.7249,3.6981,3.6583,3.606,3.575,3.56,3.56,3.56,3.56,3.56,3.56,3.56,3.56,3.56,3.56,3.5577,3.5276,3.493,3.46,3.4693,3.4078,3.3279,3.4173,3.4927,3.5504,3.5504,3.5504,3.5504,3.5504,3.5504,3.5504,3.5504,3.5504,3.5504,3.5504,3.5504,3.5504,3.5504,3.5504,3.5429,3.5131,3.4307,3.3395,3.2647,3.2258,3.1944,3.157,3.1511,3.1511,3.1511,3.1511,3.1511,3.1511,3.1511,3.1511,3.1511,3.119,3.1102,3.1467,3.0837,3.0688,3.1438,3.1175,3.1117,3.1467,3.1511,3.1511,3.1511,3.1511,3.1511,3.1511,3.1511,3.1511,3.1511,3.1511,3.1511,3.1511,3.1511,3.1511,3.1525,3.1899,3.2228,3.2527,3.2901,3.344,3.4084,3.4383,3.4727,3.5085,3.5385,3.5504,3.5504]}]]